[[{"header":{"parameterUnit":"m.s-1","parameterCategory":1,"la1":31.0,"la2":29.5877,"lo1":-88.7671,"lo2":-86.6584,"dy":0.0162,"dx":0.0185,"nx":115,"ny":88,"refTime":"2023-08-25T06:00:00:Z","depth":0,"parameterNumber":2,"parameterNumberName":"U-component_of_WINDS"},"data":[0.0,0.0,0.0,0.0,0.0,0.0,0.0,0.0,0.0,0.0,0.0,0.0,0.0,0.0,0.0,0.0,0.0,0.0,0.0,0.0,0.0,0.0,0.0,0.0,0.0,0.0,0.0,0.0,0.0,0.0,0.0,0.0,0.0,0.0,0.0,0.0,0.0,0.0,0.0,0.0,0.0,0.0,0.0,0.0,0.0,0.0,0.0,0.0,0.0,0.0,0.0,0.0,0.0,0.0,0.0,0.0,0.0,0.0,0.0,0.0,0.0,0.0,0.0,0.0,0.0,0.0,0.0,0.0,0.0,0.0,0.0,0.0,0.0,0.0,0.0,0.0,0.0,0.0,0.0,0.0,0.0,0.0,0.0,0.0,0.0,0.0,0.0,0.0,0.0,0.0,0.0,0.0,0.0,0.0,0.0,0.0,0.0,0.0,0.0,0.0,0.0,0.0,0.0,0.0,0.0,0.0,0.0,0.0,0.0,0.0,0.0,0.0,0.0,0.0,0.0,0.0,0.0,0.0,0.0,0.0,0.0,0.0,0.0,0.0,0.0,0.0,0.0,0.0,0.0,0.0,0.0,0.0,0.0,0.0,0.0,0.0,0.0,0.0,0.0,0.0,0.0,0.0,0.0,0.0,0.0,0.0,0.0,0.0,0.0,0.0,0.0,0.0,0.0,0.0,0.0,0.0,0.0,0.0,0.0,0.0,0.0,0.0,0.0,0.0,0.0,0.0,0.0,0.0,0.0,0.0,0.0,0.0,0.0,0.0,0.0,0.0,0.0,0.0,0.0,0.0,0.0,0.0,0.0,0.0,0.0,0.0,0.0,0.0,0.0,0.0,0.0,0.0,0.0,0.0,0.0,0.0,0.0,0.0,0.0,0.0,0.0,0.0,0.0,0.0,0.0,0.0,0.0,0.0,0.0,0.0,0.0,0.0,0.0,0.0,0.0,0.0,0.0,0.0,0.0,0.0,0.0,0.0,0.0,0.0,0.0,0.0,0.0,0.0,0.0,0.0,0.0,0.0,0.0,0.0,0.0,0.0,0.0,0.0,0.0,0.0,0.0,0.0,0.0,0.0,0.0,0.0,0.0,0.0,0.0,0.0,0.0,0.0,0.0,0.0,0.0,0.0,0.0,0.0,0.0,0.0,0.0,0.0,0.0,0.0,0.0,0.0,0.0,0.0,0.0,0.0,0.0,0.0,0.0,0.0,0.0,0.0,0.0,0.0,0.0,0.0,0.0,0.0,0.0,0.0,0.0,0.0,0.0,0.0,0.0,0.0,0.0,0.0,0.0,0.0,0.0,0.0,0.0,0.0,0.0,0.0,0.0,0.0,0.0,0.0,0.0,0.0,0.0,0.0,0.0,0.0,0.0,0.0,0.0,0.0,0.0,0.0,0.0,0.0,0.0,0.0,0.0,0.0,0.0,0.0,0.0,0.0,0.0,0.0,0.0,0.0,0.0,0.0,0.0,0.0,0.0,0.0,0.0,0.0,0.0,0.0,0.0,0.0,0.0,0.0,0.0,0.0,0.0,0.0,0.0,0.0,0.0,0.0,0.0,0.0,0.0,0.0,0.0,0.0,0.0,0.0,0.0,0.0,0.0,0.0,0.0,0.0,0.0,0.0,0.0,0.0,0.0,0.0,0.0,0.0,0.0,0.0,0.0,0.0,0.0,0.0,0.0,0.0,0.0,0.0,0.0,0.0,0.0,0.0,0.0,0.0,0.0,0.0,0.0,0.0,0.0,0.0,0.0,0.0,0.0,0.0,0.0,0.0,0.0,0.0,0.0,0.0,0.0,0.0,0.0,0.0,0.0,0.0,0.0,0.0,0.0,0.0,0.0,0.0,0.0,0.0,0.0,0.0,0.0,0.0,0.0,0.0,0.0,0.0,0.0,0.0,0.0,0.0,0.0,0.0,0.0,0.0,0.0,0.0,0.0,0.0,0.0,0.0,0.0,0.0,0.0,0.0,0.0,0.0,0.0,0.0,0.0,0.0,0.0,0.0,0.0,0.0,0.0,0.0,0.0,0.0,0.0,0.0,0.0,0.0,0.0,0.0,0.0,0.0,0.0,0.0,0.0,0.0,0.0,0.0,0.0,0.0,0.0,0.0,0.0,0.0,0.0,0.0,0.0,0.0,0.0,0.0,0.0,0.0,0.0,0.0,0.0,0.0,0.0,0.0,0.0,0.0,0.0,0.0,0.0,0.0,0.0,0.0,0.0,0.0,0.0,0.0,0.0,0.0,0.0,0.0,0.0,0.0,0.0,0.0,0.0,0.0,0.0,0.0,0.0,0.0,0.0,0.0,0.0,0.0,0.0,0.0,0.0,0.0,0.0,0.0,0.0,0.0,0.0,0.0,0.0,0.0,0.0,0.0,0.0,0.0,0.0,0.0,0.0,0.0,0.0,0.0,0.0,0.0,0.0,0.0,0.0,0.0,0.0,0.0,0.0,0.0,0.0,0.0,0.0,0.0,0.0,0.0,0.0,0.0,0.0,0.0,0.0,0.0,0.0,0.0,0.0,0.0,0.0,0.0,0.0,0.0,0.0,0.0,0.0,0.0,0.0,0.0,0.0,0.0,0.0,0.0,0.0,0.0,0.0,0.0,0.0,0.0,0.0,0.0,0.0,0.0,0.0,0.0,0.0,0.0,0.0,0.0,0.0,0.0,0.0,0.0,0.0,0.0,0.0,0.0,0.0,0.0,0.0,0.0,0.0,0.0,0.0,0.0,0.0,0.0,0.0,0.0,0.0,0.0,0.0,0.0,0.0,0.0,0.0,0.0,0.0,0.0,0.0,0.0,0.0,0.0,0.0,0.0,0.0,0.0,0.0,0.0,0.0,0.0,0.0,0.0,0.0,0.0,0.0,0.0,0.0,0.0,0.0,0.0,0.0,0.0,0.0,0.0,0.0,0.0,0.0,0.0,0.0,0.0,0.0,0.0,0.0,0.0,0.0,0.0,0.0,0.0,0.0,0.0,0.0,0.0,0.0,0.0,0.0,0.0,0.0,0.0,0.0,0.0,0.0,0.0,0.0,0.0,0.0,0.0,0.0,0.0,0.0,0.0,0.0,0.0,0.0,0.0,0.0,0.0,0.0,0.0,0.0,0.0,0.0,0.0,0.0,0.0,0.0,0.0,0.0,0.0,0.0,0.0,0.0,0.0,0.0,0.0,0.0,0.0,0.0,0.0,0.0,0.0,0.0,0.0,0.0,0.0,0.0,0.0,0.0,0.0,0.0,0.0,0.0,0.0,0.0,0.0,0.0,0.0,0.0,0.0,0.0,0.0,0.0,0.0,0.0,0.0,0.0,0.0,0.0,0.0,0.0,0.0,0.0,0.0,0.0,0.0,0.0,0.0,0.0,0.0,0.0,0.0,0.0,0.0,0.0,0.0,0.0,0.0,0.0,0.0,0.0,0.0,0.0,0.0,0.0,0.0,0.0,0.0,0.0,0.0,0.0,0.0,0.0,0.0,0.0,0.0,0.0,0.0,0.0,0.0,0.0,0.0,0.0,0.0,0.0,0.0,0.0,0.0,0.0,0.0,0.0,0.0,0.0,0.0,0.0,0.0,0.0,0.0,0.0,0.0,0.0,0.0,0.0,0.0,0.0,0.0,0.0,0.0,0.0,0.0,0.0,0.0,0.0,0.0,0.0,0.0,0.0,0.0,0.0,0.0,0.0,0.0,0.0,0.0,0.0,0.0,0.0,0.0,0.0,0.0,0.0,0.0,0.0,0.0,0.0,0.0,0.0,0.0,0.0,0.0,0.0,0.0,0.0,0.0,0.0,0.0,0.0,0.0,0.0,0.0,0.0,0.0,0.0,0.0,0.0,0.0,0.0,0.0,0.0,0.0,0.0,0.0,0.0,0.0,0.0,0.0,0.0,0.0,0.0,0.0,0.0,0.0,0.0,0.0,0.0,0.0,0.0,0.0,0.0,0.0,0.0,0.0,0.0,0.0,0.0,0.0,0.0,0.0,0.0,0.0,0.0,0.0,0.0,0.0,0.0,0.0,0.0,0.0,0.0,0.0,0.0,0.0,0.0,0.0,0.0,0.0,0.0,0.0,0.0,0.0,0.0,0.0,0.0,0.0,0.0,0.0,0.0,0.0,0.0,0.0,0.0,0.0,0.0,0.0,0.0,0.0,0.0,0.0,0.0,0.0,0.0,0.0,0.0,0.0,0.0,0.0,0.0,0.0,0.0,0.0,0.0,0.0,0.0,0.0,0.0,0.0,0.0,0.0,0.0,0.0,5.0683,0.0,0.0,0.0,5.0683,0.0,0.0,0.0,0.0,0.0,0.0,0.0,0.0,0.0,0.0,0.0,0.0,0.0,0.0,0.0,0.0,0.0,0.0,0.0,0.0,0.0,0.0,0.0,0.0,0.0,0.0,0.0,0.0,0.0,0.0,0.0,0.0,0.0,0.0,0.0,0.0,0.0,0.0,0.0,0.0,0.0,0.0,0.0,0.0,0.0,0.0,0.0,0.0,0.0,0.0,0.0,0.0,0.0,0.0,0.0,0.0,0.0,0.0,0.0,0.0,0.0,0.0,0.0,0.0,0.0,0.0,0.0,0.0,0.0,0.0,0.0,0.0,0.0,0.0,0.0,0.0,0.0,0.0,0.0,0.0,0.0,0.0,0.0,0.0,0.0,0.0,0.0,0.0,0.0,0.0,0.0,0.0,0.0,0.0,0.0,0.0,0.0,0.0,0.0,0.0,0.0,0.0,0.0,0.0,0.0,0.0,0.0,0.0,0.0,0.0,4.9279,4.9298,4.9279,4.9298,4.9298,0.0,0.0,0.0,0.0,0.0,0.0,0.0,0.0,0.0,0.0,0.0,0.0,0.0,0.0,0.0,0.0,0.0,0.0,0.0,0.0,0.0,0.0,0.0,0.0,0.0,0.0,0.0,0.0,0.0,0.0,0.0,0.0,0.0,0.0,0.0,0.0,0.0,0.0,0.0,0.0,0.0,0.0,0.0,0.0,0.0,0.0,0.0,0.0,0.0,0.0,0.0,0.0,0.0,0.0,0.0,0.0,0.0,0.0,0.0,0.0,0.0,0.0,0.0,0.0,0.0,0.0,0.0,0.0,0.0,0.0,0.0,0.0,0.0,0.0,0.0,0.0,0.0,0.0,0.0,0.0,0.0,0.0,0.0,0.0,0.0,0.0,0.0,0.0,0.0,0.0,0.0,0.0,0.0,0.0,0.0,0.0,0.0,0.0,0.0,0.0,0.0,0.0,0.0,0.0,0.0,0.0,0.0,0.0,0.0,0.0,0.0,0.0,4.8105,4.8105,4.8106,0.0,0.0,0.0,0.0,0.0,0.0,0.0,0.0,0.0,0.0,0.0,0.0,0.0,0.0,0.0,0.0,0.0,0.0,0.0,0.0,0.0,0.0,0.0,0.0,0.0,0.0,0.0,0.0,0.0,0.0,0.0,0.0,0.0,0.0,0.0,0.0,0.0,0.0,0.0,0.0,0.0,0.0,0.0,0.0,0.0,0.0,0.0,0.0,0.0,0.0,0.0,0.0,0.0,0.0,0.0,0.0,0.0,0.0,0.0,0.0,0.0,0.0,0.0,0.0,0.0,0.0,0.0,0.0,0.0,0.0,0.0,0.0,0.0,0.0,0.0,0.0,0.0,0.0,0.0,0.0,0.0,0.0,0.0,0.0,0.0,0.0,0.0,0.0,0.0,0.0,0.0,0.0,0.0,0.0,0.0,0.0,0.0,0.0,0.0,0.0,0.0,0.0,0.0,0.0,0.0,0.0,0.0,0.0,0.0,0.0,4.8105,4.8105,4.8086,0.0,4.8105,0.0,0.0,0.0,0.0,0.0,0.0,0.0,0.0,0.0,0.0,0.0,0.0,0.0,0.0,0.0,0.0,0.0,0.0,0.0,0.0,0.0,0.0,0.0,0.0,0.0,0.0,0.0,0.0,0.0,0.0,0.0,0.0,0.0,0.0,0.0,0.0,0.0,0.0,0.0,0.0,0.0,0.0,0.0,0.0,0.0,0.0,0.0,0.0,0.0,0.0,0.0,0.0,0.0,0.0,0.0,0.0,0.0,0.0,0.0,0.0,0.0,0.0,0.0,0.0,0.0,0.0,0.0,0.0,0.0,0.0,0.0,0.0,0.0,0.0,0.0,0.0,0.0,0.0,0.0,0.0,0.0,0.0,0.0,0.0,0.0,0.0,0.0,0.0,0.0,0.0,0.0,0.0,0.0,0.0,0.0,0.0,0.0,0.0,0.0,0.0,0.0,0.0,0.0,0.0,0.0,0.0,0.0,0.0,0.0,0.0,4.6624,4.6605,4.6605,4.6855,0.0,0.0,0.0,0.0,0.0,0.0,0.0,0.0,0.0,0.0,0.0,0.0,0.0,0.0,0.0,0.0,0.0,0.0,0.0,0.0,0.0,0.0,0.0,0.0,0.0,0.0,0.0,0.0,0.0,0.0,0.0,0.0,0.0,0.0,0.0,0.0,0.0,0.0,0.0,0.0,0.0,0.0,0.0,0.0,0.0,0.0,0.0,0.0,0.0,0.0,0.0,0.0,0.0,0.0,0.0,0.0,0.0,0.0,0.0,0.0,0.0,0.0,0.0,0.0,0.0,0.0,0.0,0.0,0.0,0.0,0.0,0.0,0.0,0.0,0.0,0.0,0.0,0.0,0.0,0.0,0.0,0.0,0.0,0.0,0.0,0.0,0.0,0.0,0.0,0.0,0.0,0.0,0.0,0.0,0.0,0.0,0.0,0.0,0.0,0.0,0.0,0.0,0.0,0.0,0.0,0.0,0.0,0.0,0.0,0.0,4.5586,4.5586,4.5586,4.5586,4.5893,4.6528,0.0,0.0,0.0,0.0,0.0,0.0,0.0,0.0,0.0,0.0,0.0,0.0,0.0,0.0,0.0,0.0,0.0,0.0,0.0,0.0,0.0,0.0,0.0,0.0,0.0,0.0,0.0,0.0,0.0,0.0,0.0,0.0,0.0,0.0,0.0,0.0,0.0,0.0,0.0,0.0,0.0,0.0,0.0,0.0,0.0,0.0,0.0,0.0,0.0,0.0,0.0,0.0,0.0,0.0,0.0,0.0,0.0,0.0,0.0,0.0,0.0,0.0,0.0,0.0,0.0,0.0,0.0,0.0,0.0,0.0,0.0,0.0,0.0,0.0,0.0,0.0,0.0,0.0,0.0,0.0,0.0,0.0,0.0,0.0,0.0,0.0,0.0,0.0,0.0,0.0,0.0,0.0,0.0,0.0,0.0,0.0,0.0,0.0,0.0,0.0,0.0,0.0,0.0,0.0,0.0,0.0,0.0,0.0,4.5586,4.5586,4.5586,4.5586,4.5586,4.5624,0.0,0.0,0.0,0.0,0.0,0.0,0.0,0.0,0.0,0.0,0.0,0.0,0.0,0.0,0.0,0.0,0.0,0.0,0.0,0.0,0.0,0.0,0.0,0.0,0.0,0.0,0.0,0.0,0.0,0.0,0.0,0.0,0.0,0.0,0.0,0.0,0.0,0.0,0.0,0.0,0.0,0.0,0.0,0.0,0.0,0.0,0.0,0.0,0.0,0.0,0.0,0.0,0.0,0.0,0.0,0.0,0.0,0.0,0.0,0.0,0.0,0.0,0.0,0.0,0.0,0.0,0.0,0.0,0.0,0.0,0.0,0.0,0.0,0.0,0.0,0.0,0.0,0.0,0.0,0.0,0.0,0.0,0.0,0.0,0.0,0.0,0.0,0.0,0.0,0.0,0.0,0.0,0.0,0.0,0.0,0.0,0.0,0.0,0.0,0.0,0.0,0.0,0.0,0.0,0.0,0.0,0.0,0.0,0.0,4.5586,4.5586,4.5586,4.5586,4.5586,4.5586,0.0,0.0,0.0,0.0,0.0,0.0,0.0,0.0,0.0,0.0,0.0,0.0,0.0,0.0,0.0,0.0,0.0,0.0,0.0,0.0,0.0,0.0,0.0,0.0,0.0,0.0,0.0,0.0,0.0,0.0,0.0,0.0,0.0,0.0,0.0,0.0,0.0,0.0,0.0,0.0,0.0,0.0,0.0,0.0,0.0,0.0,0.0,0.0,0.0,0.0,0.0,0.0,0.0,0.0,0.0,0.0,0.0,0.0,0.0,0.0,0.0,0.0,0.0,0.0,0.0,0.0,0.0,0.0,0.0,0.0,0.0,0.0,0.0,0.0,0.0,0.0,0.0,0.0,0.0,0.0,0.0,0.0,0.0,0.0,0.0,0.0,0.0,0.0,0.0,0.0,0.0,0.0,0.0,0.0,0.0,0.0,0.0,0.0,0.0,0.0,0.0,0.0,0.0,0.0,0.0,0.0,0.0,0.0,0.0,4.5586,0.0,4.5586,4.5586,4.5586,4.5586,0.0,0.0,0.0,0.0,0.0,0.0,0.0,0.0,0.0,0.0,0.0,0.0,0.0,0.0,0.0,0.0,0.0,0.0,0.0,0.0,0.0,0.0,0.0,0.0,0.0,0.0,0.0,0.0,0.0,0.0,0.0,0.0,0.0,0.0,0.0,0.0,0.0,0.0,0.0,0.0,0.0,0.0,0.0,0.0,0.0,0.0,0.0,0.0,0.0,0.0,0.0,0.0,0.0,0.0,0.0,0.0,0.0,0.0,0.0,0.0,0.0,0.0,0.0,0.0,0.0,0.0,0.0,0.0,0.0,0.0,0.0,0.0,0.0,0.0,0.0,0.0,0.0,0.0,0.0,0.0,0.0,0.0,0.0,0.0,0.0,0.0,0.0,0.0,0.0,0.0,0.0,0.0,0.0,0.0,0.0,0.0,0.0,0.0,0.0,0.0,0.0,0.0,0.0,0.0,0.0,0.0,0.0,0.0,4.5586,4.5586,4.5586,4.5586,4.5586,4.5586,4.5603,0.0,0.0,0.0,0.0,0.0,0.0,0.0,0.0,0.0,0.0,0.0,0.0,0.0,0.0,0.0,0.0,0.0,0.0,0.0,0.0,0.0,0.0,0.0,0.0,0.0,0.0,0.0,0.0,0.0,0.0,0.0,0.0,0.0,0.0,0.0,0.0,0.0,0.0,0.0,0.0,0.0,0.0,0.0,0.0,0.0,0.0,0.0,0.0,0.0,0.0,0.0,0.0,0.0,0.0,0.0,0.0,0.0,0.0,0.0,0.0,0.0,0.0,0.0,0.0,0.0,0.0,0.0,0.0,0.0,0.0,0.0,0.0,0.0,0.0,0.0,0.0,0.0,0.0,0.0,0.0,0.0,0.0,0.0,0.0,0.0,0.0,0.0,0.0,0.0,0.0,0.0,0.0,0.0,0.0,0.0,0.0,0.0,0.0,0.0,0.0,0.0,0.0,0.0,0.0,0.0,0.0,0.0,0.0,0.0,4.5586,4.5586,4.5586,4.5586,4.5586,4.5654,0.0,0.0,0.0,0.0,0.0,0.0,0.0,0.0,0.0,0.0,0.0,0.0,0.0,0.0,0.0,0.0,0.0,0.0,0.0,0.0,0.0,0.0,0.0,0.0,0.0,0.0,0.0,0.0,0.0,0.0,0.0,0.0,0.0,0.0,0.0,0.0,0.0,0.0,0.0,0.0,0.0,0.0,0.0,0.0,0.0,0.0,0.0,0.0,0.0,0.0,0.0,0.0,0.0,0.0,0.0,0.0,0.0,0.0,0.0,0.0,0.0,0.0,0.0,0.0,0.0,0.0,0.0,0.0,0.0,0.0,0.0,0.0,0.0,0.0,0.0,0.0,0.0,0.0,0.0,0.0,0.0,0.0,0.0,0.0,0.0,0.0,0.0,0.0,0.0,0.0,0.0,0.0,0.0,0.0,0.0,0.0,0.0,0.0,0.0,0.0,0.0,0.0,0.0,0.0,0.0,0.0,0.0,0.0,0.0,4.5586,4.5586,4.5586,4.5586,4.5586,4.5651,4.578,0.0,0.0,0.0,0.0,0.0,0.0,0.0,0.0,0.0,0.0,0.0,0.0,0.0,0.0,0.0,0.0,0.0,0.0,0.0,0.0,0.0,0.0,0.0,0.0,0.0,0.0,0.0,0.0,0.0,0.0,0.0,0.0,0.0,0.0,0.0,0.0,0.0,0.0,0.0,0.0,0.0,0.0,0.0,0.0,0.0,0.0,0.0,0.0,0.0,0.0,0.0,0.0,0.0,0.0,0.0,0.0,0.0,0.0,0.0,0.0,0.0,0.0,0.0,0.0,0.0,0.0,0.0,0.0,0.0,0.0,0.0,0.0,0.0,0.0,0.0,0.0,0.0,0.0,0.0,0.0,0.0,0.0,0.0,0.0,0.0,0.0,0.0,0.0,0.0,0.0,0.0,0.0,0.0,0.0,0.0,0.0,0.0,0.0,0.0,0.0,0.0,0.0,0.0,0.0,0.0,0.0,0.0,0.0,4.5586,4.5586,4.5586,4.5586,4.5586,4.5668,0.0,0.0,0.0,0.0,0.0,0.0,0.0,0.0,0.0,0.0,0.0,0.0,0.0,0.0,0.0,0.0,0.0,0.0,0.0,0.0,0.0,0.0,0.0,0.0,0.0,0.0,0.0,0.0,0.0,0.0,0.0,0.0,0.0,0.0,0.0,0.0,0.0,0.0,0.0,0.0,0.0,0.0,0.0,0.0,0.0,0.0,0.0,0.0,0.0,0.0,0.0,0.0,0.0,0.0,0.0,0.0,0.0,0.0,0.0,0.0,0.0,0.0,0.0,0.0,0.0,0.0,0.0,0.0,0.0,0.0,0.0,0.0,0.0,0.0,0.0,0.0,0.0,0.0,0.0,0.0,0.0,0.0,0.0,0.0,0.0,0.0,0.0,0.0,0.0,0.0,0.0,0.0,0.0,0.0,0.0,0.0,0.0,0.0,0.0,0.0,0.0,0.0,0.0,0.0,0.0,0.0,0.0,0.0,0.0,4.5586,4.5586,4.5586,4.5586,4.5586,4.5677,0.0,0.0,0.0,0.0,0.0,0.0,0.0,0.0,0.0,0.0,0.0,0.0,0.0,0.0,0.0,0.0,0.0,0.0,0.0,0.0,0.0,0.0,0.0,0.0,0.0,0.0,0.0,0.0,0.0,0.0,0.0,0.0,0.0,0.0,0.0,0.0,0.0,0.0,0.0,0.0,0.0,0.0,0.0,0.0,0.0,0.0,0.0,0.0,0.0,0.0,0.0,0.0,0.0,0.0,0.0,0.0,0.0,0.0,0.0,0.0,0.0,0.0,0.0,0.0,0.0,0.0,0.0,0.0,0.0,0.0,0.0,0.0,0.0,0.0,0.0,0.0,0.0,0.0,0.0,0.0,0.0,0.0,0.0,0.0,0.0,0.0,0.0,0.0,0.0,0.0,0.0,0.0,0.0,0.0,0.0,0.0,0.0,0.0,0.0,0.0,0.0,0.0,0.0,0.0,0.0,0.0,0.0,0.0,4.5586,4.5586,4.5586,4.562,4.5684,4.5676,4.5746,0.0,0.0,0.0,0.0,0.0,0.0,0.0,0.0,0.0,0.0,0.0,0.0,0.0,0.0,0.0,0.0,0.0,0.0,0.0,0.0,0.0,0.0,0.0,0.0,0.0,0.0,0.0,0.0,0.0,0.0,0.0,0.0,0.0,0.0,0.0,0.0,0.0,0.0,0.0,0.0,0.0,0.0,0.0,0.0,0.0,0.0,0.0,0.0,0.0,0.0,0.0,0.0,0.0,0.0,0.0,0.0,0.0,0.0,0.0,0.0,0.0,0.0,0.0,0.0,0.0,0.0,0.0,0.0,0.0,0.0,0.0,0.0,0.0,0.0,0.0,0.0,0.0,0.0,0.0,0.0,0.0,0.0,0.0,0.0,0.0,0.0,0.0,0.0,0.0,0.0,0.0,0.0,0.0,0.0,0.0,0.0,0.0,0.0,0.0,0.0,0.0,0.0,0.0,0.0,0.0,0.0,0.0,0.0,4.5603,4.562,4.562,4.5684,4.5814,4.5819,4.5843,0.0,0.0,0.0,0.0,0.0,0.0,0.0,0.0,0.0,0.0,0.0,0.0,0.0,0.0,0.0,0.0,0.0,0.0,0.0,0.0,0.0,0.0,0.0,0.0,0.0,0.0,0.0,0.0,0.0,0.0,0.0,0.0,0.0,0.0,0.0,0.0,0.0,0.0,0.0,0.0,0.0,0.0,0.0,0.0,0.0,0.0,0.0,0.0,0.0,0.0,0.0,0.0,0.0,0.0,0.0,0.0,0.0,0.0,0.0,0.0,0.0,0.0,0.0,0.0,0.0,0.0,0.0,0.0,0.0,0.0,0.0,0.0,0.0,0.0,0.0,0.0,0.0,0.0,0.0,0.0,0.0,0.0,0.0,0.0,0.0,0.0,0.0,0.0,0.0,0.0,0.0,0.0,0.0,0.0,0.0,0.0,0.0,0.0,0.0,0.0,0.0,0.0,0.0,0.0,0.0,0.0,0.0,0.0,4.5651,4.5757,4.5757,4.5789,4.5867,4.5843,4.5882,0.0,0.0,0.0,0.0,0.0,0.0,0.0,0.0,0.0,0.0,0.0,0.0,0.0,0.0,0.0,0.0,0.0,0.0,0.0,0.0,0.0,0.0,0.0,0.0,0.0,0.0,0.0,0.0,0.0,0.0,0.0,0.0,0.0,0.0,0.0,0.0,0.0,0.0,0.0,0.0,0.0,0.0,0.0,0.0,0.0,0.0,0.0,0.0,5.1387,0.0,0.0,0.0,0.0,0.0,0.0,0.0,0.0,0.0,0.0,0.0,0.0,0.0,0.0,0.0,0.0,0.0,0.0,0.0,0.0,0.0,0.0,0.0,0.0,0.0,0.0,0.0,0.0,0.0,0.0,0.0,0.0,0.0,0.0,0.0,0.0,0.0,0.0,0.0,0.0,0.0,0.0,0.0,0.0,0.0,0.0,0.0,0.0,0.0,0.0,0.0,0.0,0.0,0.0,0.0,0.0,0.0,0.0,0.0,4.5727,4.58,4.5829,4.5886,4.5987,4.5963,4.5987,0.0,0.0,0.0,0.0,0.0,0.0,0.0,0.0,0.0,0.0,0.0,0.0,0.0,0.0,0.0,0.0,0.0,0.0,0.0,0.0,0.0,0.0,0.0,0.0,0.0,0.0,0.0,0.0,0.0,0.0,0.0,0.0,0.0,0.0,0.0,0.0,0.0,0.0,0.0,0.0,0.0,0.0,0.0,0.0,0.0,0.0,0.0,0.0,0.0,0.0,0.0,0.0,0.0,0.0,0.0,0.0,0.0,0.0,0.0,0.0,0.0,0.0,0.0,0.0,0.0,0.0,0.0,0.0,0.0,0.0,0.0,0.0,0.0,0.0,0.0,0.0,0.0,0.0,0.0,0.0,0.0,0.0,0.0,0.0,0.0,0.0,0.0,0.0,0.0,0.0,0.0,0.0,0.0,0.0,0.0,0.0,0.0,0.0,0.0,0.0,0.0,0.0,0.0,0.0,0.0,0.0,0.0,4.6287,4.593,4.5822,4.5886,4.5996,4.6112,4.613,4.6199,4.6326,0.0,0.0,0.0,0.0,0.0,0.0,0.0,0.0,0.0,0.0,0.0,0.0,0.0,0.0,0.0,0.0,0.0,0.0,0.0,0.0,0.0,0.0,0.0,0.0,0.0,0.0,0.0,0.0,0.0,0.0,0.0,0.0,0.0,0.0,0.0,0.0,0.0,0.0,5.1387,5.1387,0.0,0.0,0.0,0.0,0.0,0.0,0.0,0.0,5.1387,0.0,0.0,0.0,0.0,0.0,0.0,0.0,0.0,0.0,0.0,0.0,0.0,0.0,0.0,0.0,0.0,0.0,0.0,0.0,0.0,0.0,0.0,0.0,0.0,0.0,0.0,0.0,0.0,0.0,0.0,0.0,0.0,0.0,0.0,0.0,0.0,0.0,0.0,0.0,0.0,0.0,0.0,0.0,0.0,0.0,0.0,0.0,0.0,0.0,0.0,0.0,0.0,0.0,0.0,0.0,0.0,4.6913,4.6831,4.6513,4.5906,4.5996,4.6118,4.6269,4.6264,4.6616,4.7307,0.0,0.0,0.0,0.0,0.0,0.0,0.0,0.0,0.0,0.0,0.0,0.0,0.0,0.0,0.0,0.0,0.0,0.0,0.0,0.0,0.0,0.0,0.0,0.0,0.0,0.0,0.0,0.0,0.0,0.0,0.0,0.0,0.0,0.0,0.0,0.0,0.0,0.0,0.0,5.1387,5.1387,0.0,0.0,0.0,0.0,0.0,0.0,0.0,0.0,5.1387,0.0,0.0,0.0,0.0,0.0,0.0,0.0,0.0,0.0,0.0,0.0,0.0,0.0,0.0,0.0,0.0,0.0,0.0,0.0,0.0,0.0,0.0,0.0,0.0,0.0,0.0,0.0,0.0,0.0,0.0,0.0,0.0,0.0,0.0,0.0,0.0,0.0,0.0,0.0,0.0,0.0,0.0,0.0,0.0,0.0,0.0,0.0,0.0,0.0,0.0,0.0,0.0,0.0,0.0,0.0,4.7509,4.6806,4.6271,4.591,4.6098,4.624,4.6319,4.6729,4.7178,0.0,0.0,0.0,0.0,0.0,0.0,0.0,0.0,0.0,0.0,0.0,0.0,0.0,0.0,0.0,0.0,0.0,0.0,0.0,0.0,0.0,0.0,0.0,0.0,0.0,0.0,0.0,0.0,0.0,0.0,0.0,0.0,0.0,0.0,0.0,0.0,0.0,0.0,0.0,0.0,5.0098,5.0254,5.0723,0.0,0.0,0.0,0.0,0.0,0.0,5.1133,5.1387,0.0,0.0,0.0,0.0,0.0,0.0,0.0,0.0,0.0,0.0,0.0,0.0,0.0,0.0,0.0,0.0,0.0,0.0,0.0,0.0,0.0,0.0,0.0,0.0,0.0,0.0,0.0,0.0,0.0,0.0,0.0,0.0,0.0,0.0,0.0,0.0,0.0,0.0,0.0,0.0,0.0,0.0,0.0,0.0,0.0,0.0,0.0,0.0,0.0,0.0,0.0,0.0,0.0,0.0,0.0,4.8066,4.6836,4.6094,4.5929,4.615,4.63,4.63,4.6983,4.749,0.0,0.0,0.0,0.0,0.0,0.0,0.0,0.0,0.0,0.0,0.0,0.0,0.0,0.0,0.0,0.0,0.0,0.0,0.0,0.0,0.0,0.0,0.0,0.0,0.0,0.0,0.0,0.0,0.0,0.0,0.0,0.0,0.0,0.0,0.0,0.0,0.0,0.0,0.0,0.0,0.0,4.916,4.9824,4.9336,0.0,0.0,0.0,0.0,5.0195,5.0859,0.0,0.0,0.0,0.0,0.0,0.0,0.0,0.0,0.0,0.0,0.0,0.0,0.0,0.0,0.0,0.0,0.0,0.0,0.0,0.0,0.0,0.0,0.0,0.0,0.0,0.0,0.0,0.0,0.0,0.0,0.0,0.0,0.0,0.0,0.0,0.0,0.0,0.0,0.0,0.0,0.0,0.0,0.0,0.0,0.0,0.0,0.0,0.0,0.0,0.0,0.0,0.0,0.0,0.0,0.0,0.0,4.8124,4.7403,4.6685,4.5968,4.617,4.63,4.63,4.6397,4.7139,0.0,0.0,0.0,0.0,0.0,0.0,0.0,0.0,0.0,0.0,0.0,0.0,0.0,0.0,0.0,0.0,0.0,0.0,0.0,0.0,0.0,0.0,0.0,0.0,0.0,0.0,0.0,0.0,0.0,0.0,0.0,0.0,0.0,0.0,0.0,0.0,0.0,0.0,0.0,0.0,0.0,4.8926,4.9023,4.8965,4.8945,0.0,0.0,5.0195,5.0195,5.0859,0.0,0.0,0.0,0.0,0.0,0.0,0.0,0.0,0.0,0.0,0.0,0.0,0.0,0.0,0.0,0.0,0.0,0.0,0.0,0.0,0.0,0.0,0.0,0.0,0.0,0.0,0.0,0.0,0.0,0.0,0.0,0.0,0.0,0.0,0.0,0.0,0.0,0.0,0.0,0.0,0.0,0.0,0.0,0.0,0.0,0.0,0.0,0.0,0.0,0.0,0.0,0.0,0.0,0.0,0.0,4.8526,4.8205,4.7049,4.6319,4.6044,4.6187,4.63,4.63,4.6788,4.7588,0.0,0.0,0.0,0.0,0.0,0.0,0.0,0.0,0.0,0.0,0.0,0.0,0.0,0.0,0.0,0.0,0.0,0.0,0.0,0.0,0.0,0.0,0.0,0.0,0.0,0.0,0.0,0.0,0.0,0.0,0.0,0.0,0.0,0.0,0.0,0.0,0.0,0.0,0.0,0.0,0.0,0.0,4.8105,4.7734,0.0,0.0,0.0,4.8858,4.9298,0.0,0.0,0.0,0.0,0.0,0.0,0.0,0.0,0.0,0.0,0.0,0.0,0.0,0.0,0.0,0.0,0.0,0.0,0.0,0.0,0.0,0.0,0.0,0.0,0.0,0.0,0.0,0.0,0.0,0.0,0.0,0.0,0.0,0.0,0.0,0.0,0.0,0.0,0.0,0.0,0.0,0.0,0.0,0.0,0.0,0.0,0.0,0.0,0.0,0.0,0.0,0.0,0.0,0.0,0.0,0.0,0.0,4.8261,4.6705,4.5969,4.6098,4.6221,4.63,4.63,4.6944,0.0,0.0,0.0,0.0,0.0,0.0,0.0,0.0,0.0,0.0,0.0,0.0,0.0,0.0,0.0,0.0,0.0,0.0,0.0,0.0,0.0,0.0,0.0,0.0,0.0,0.0,0.0,4.6197,0.0,0.0,0.0,0.0,0.0,0.0,0.0,0.0,0.0,0.0,0.0,0.0,0.0,0.0,4.6543,4.7168,4.6719,4.6523,0.0,0.0,4.7768,4.8299,4.9111,4.9944,0.0,0.0,0.0,0.0,0.0,0.0,0.0,0.0,0.0,0.0,0.0,0.0,0.0,0.0,0.0,0.0,0.0,0.0,0.0,0.0,0.0,0.0,0.0,0.0,0.0,0.0,0.0,0.0,0.0,0.0,0.0,0.0,0.0,0.0,0.0,0.0,0.0,0.0,0.0,0.0,0.0,0.0,0.0,0.0,0.0,0.0,0.0,0.0,0.0,0.0,0.0,0.0,0.0,0.0,4.8157,4.8241,4.6725,4.5978,4.6098,4.624,4.63,4.63,4.6358,4.7139,0.0,0.0,0.0,0.0,0.0,0.0,0.0,0.0,0.0,0.0,0.0,0.0,0.0,0.0,0.0,0.0,0.0,0.0,0.0,0.0,0.0,0.0,0.0,0.0,0.0,0.0,0.0,0.0,0.0,0.0,0.0,0.0,0.0,0.0,0.0,0.0,0.0,0.0,0.0,0.0,0.0,4.6328,4.6387,4.6328,4.6328,0.0,4.7026,4.7514,4.7583,4.8213,4.9006,4.9945,0.0,0.0,0.0,0.0,0.0,0.0,0.0,0.0,0.0,0.0,0.0,0.0,0.0,0.0,0.0,0.0,0.0,0.0,0.0,0.0,0.0,0.0,0.0,0.0,0.0,0.0,0.0,0.0,0.0,0.0,0.0,0.0,0.0,0.0,0.0,0.0,0.0,0.0,0.0,0.0,0.0,0.0,0.0,0.0,0.0,0.0,0.0,0.0,0.0,0.0,0.0,0.0,0.0,4.8208,4.8387,4.674,4.6005,4.6211,4.6273,4.63,4.63,4.6295,4.6829,0.0,0.0,0.0,0.0,0.0,0.0,0.0,0.0,0.0,0.0,0.0,0.0,0.0,0.0,0.0,0.0,0.0,0.0,0.0,0.0,0.0,0.0,0.0,0.0,0.0,0.0,0.0,0.0,4.5955,4.5858,4.58,0.0,0.0,0.0,0.0,0.0,0.0,0.0,0.0,0.0,0.0,4.6289,4.6289,4.6289,0.0,0.0,4.6497,4.6834,4.726,4.7555,4.8237,4.9722,4.9936,0.0,0.0,0.0,0.0,0.0,0.0,0.0,0.0,0.0,0.0,0.0,0.0,0.0,0.0,0.0,0.0,0.0,0.0,0.0,0.0,0.0,0.0,0.0,0.0,0.0,0.0,0.0,0.0,0.0,0.0,0.0,0.0,0.0,0.0,0.0,0.0,0.0,0.0,0.0,0.0,0.0,0.0,0.0,0.0,0.0,0.0,0.0,0.0,0.0,0.0,0.0,0.0,4.824,4.848,4.6793,4.6021,4.63,4.63,4.63,4.63,4.6301,4.666,0.0,0.0,0.0,0.0,0.0,0.0,0.0,0.0,0.0,0.0,0.0,0.0,0.0,0.0,0.0,0.0,0.0,0.0,0.0,0.0,0.0,0.0,0.0,0.0,0.0,0.0,0.0,0.0,4.5896,4.58,4.58,0.0,0.0,0.0,0.0,0.0,0.0,0.0,0.0,0.0,0.0,4.6289,4.6289,4.6289,4.6289,4.623,4.6205,4.6317,4.6795,4.6839,4.7308,4.8846,0.0,0.0,0.0,0.0,0.0,0.0,0.0,0.0,0.0,0.0,0.0,0.0,0.0,0.0,0.0,0.0,0.0,0.0,0.0,0.0,0.0,0.0,0.0,0.0,0.0,0.0,0.0,4.8306,0.0,0.0,4.7536,0.0,0.0,0.0,0.0,0.0,0.0,0.0,0.0,0.0,0.0,0.0,0.0,0.0,0.0,0.0,0.0,0.0,0.0,0.0,0.0,0.0,0.0,4.824,4.846,4.6773,4.6021,4.6277,4.63,4.63,4.63,4.6301,4.6679,4.7474,0.0,0.0,0.0,0.0,0.0,0.0,0.0,0.0,0.0,0.0,0.0,0.0,0.0,0.0,0.0,0.0,0.0,0.0,0.0,0.0,0.0,0.0,0.0,0.0,0.0,0.0,4.6007,4.5877,4.58,0.0,0.0,0.0,0.0,0.0,0.0,0.0,0.0,0.0,4.6115,4.6212,4.6289,4.6289,4.6289,4.6289,4.6289,4.6166,4.6104,4.6143,4.5988,4.6143,0.0,0.0,0.0,0.0,0.0,0.0,0.0,0.0,0.0,0.0,0.0,0.0,0.0,0.0,0.0,0.0,0.0,0.0,0.0,0.0,0.0,0.0,0.0,0.0,0.0,0.0,0.0,4.6966,4.7406,0.0,0.0,0.0,0.0,0.0,0.0,0.0,0.0,0.0,0.0,0.0,4.2617,4.2864,0.0,0.0,0.0,0.0,0.0,0.0,0.0,0.0,0.0,0.0,0.0,0.0,4.824,4.839,4.6773,4.6041,4.6277,4.63,4.63,4.63,4.6268,4.6627,4.7482,0.0,0.0,0.0,0.0,0.0,0.0,0.0,0.0,0.0,0.0,0.0,0.0,0.0,0.0,0.0,0.0,0.0,0.0,0.0,0.0,0.0,0.0,0.0,0.0,0.0,4.5955,0.0,0.0,0.0,0.0,0.0,0.0,0.0,0.0,0.0,0.0,4.5988,4.6111,4.6123,4.6212,4.6289,4.6289,4.6269,4.6211,0.0,0.0,0.0,0.0,0.0,0.0,0.0,0.0,0.0,0.0,0.0,0.0,0.0,5.0772,5.118,5.1219,5.1279,5.1328,5.1328,0.0,0.0,0.0,0.0,0.0,0.0,0.0,0.0,0.0,0.0,0.0,0.0,0.0,0.0,4.5706,4.6121,4.6019,0.0,0.0,0.0,0.0,0.0,0.0,0.0,0.0,4.2502,4.2396,4.2394,4.2394,4.3073,4.4328,4.4227,4.5111,0.0,0.0,0.0,0.0,0.0,0.0,0.0,0.0,4.8086,4.7983,4.6638,4.6021,4.6277,4.63,4.63,4.6303,4.623,4.6456,4.7041,4.7326,4.8027,0.0,0.0,0.0,0.0,0.0,0.0,0.0,0.0,0.0,0.0,0.0,0.0,0.0,0.0,0.0,0.0,0.0,0.0,0.0,0.0,0.0,0.0,0.0,4.5955,0.0,0.0,0.0,0.0,0.0,0.0,0.0,0.0,0.0,4.58,4.5988,4.6111,4.6123,4.6212,4.6289,4.6289,0.0,0.0,0.0,0.0,0.0,0.0,0.0,4.6007,4.6607,4.6704,4.7027,4.7951,4.8777,4.9301,4.9345,0.0,0.0,5.1099,5.121,5.1279,5.1268,5.1294,5.1308,5.1242,5.1215,5.1215,0.0,0.0,0.0,0.0,4.5198,0.0,0.0,0.0,4.4696,4.4525,0.0,4.4155,0.0,0.0,0.0,0.0,4.4927,4.3545,0.0,0.0,4.2026,4.1622,4.1604,4.1622,4.2026,4.2734,4.2436,4.3282,4.5203,4.603,0.0,0.0,0.0,0.0,0.0,0.0,4.778,4.7198,4.6366,4.6021,4.6277,4.63,4.6303,4.6306,4.623,4.6225,4.6222,4.6995,4.7462,4.7521,4.898,0.0,0.0,0.0,0.0,0.0,0.0,0.0,0.0,0.0,0.0,0.0,0.0,0.0,0.0,0.0,0.0,0.0,0.0,0.0,0.0,4.606,0.0,0.0,0.0,0.0,0.0,0.0,0.0,0.0,0.0,4.58,4.58,4.5969,4.6099,4.6115,0.0,0.0,0.0,0.0,4.6206,4.6196,4.6085,4.5988,4.5988,4.5896,4.58,4.5819,0.0,0.0,4.7008,4.7816,4.8396,4.8458,4.9115,4.9943,5.0828,5.1057,5.1197,5.12,5.1195,5.1191,5.1097,5.1119,5.1061,4.2678,0.0,0.0,0.0,0.0,4.3527,4.3333,4.3094,4.2946,4.3215,4.375,4.3596,0.0,0.0,0.0,0.0,0.0,0.0,4.329,4.2798,4.2537,4.2132,4.1604,4.1604,4.1856,4.2342,4.2541,4.3068,4.3962,4.4453,4.5732,4.7667,0.0,0.0,0.0,0.0,4.7217,4.7148,4.6346,4.6021,4.63,4.63,4.6258,4.623,4.6208,4.6206,4.6203,4.6429,4.6858,4.7482,4.7934,0.0,0.0,0.0,0.0,0.0,0.0,0.0,0.0,0.0,0.0,0.0,0.0,0.0,0.0,0.0,0.0,0.0,0.0,0.0,4.6046,4.656,4.6638,0.0,0.0,0.0,0.0,0.0,0.0,0.0,0.0,0.0,4.58,4.5988,4.6111,0.0,0.0,4.6289,4.6289,4.6211,4.6128,4.6145,4.5988,0.0,4.5838,4.5819,4.58,4.58,4.58,4.5896,4.6162,4.6911,4.7492,4.7497,4.8193,4.8885,4.9165,5.0268,5.1053,5.1139,5.1172,5.1184,5.1111,5.1099,5.1061,4.1751,4.2269,4.2816,4.2735,4.231,4.2314,4.2166,4.1974,4.1962,4.2207,4.2668,4.2668,4.2979,4.3465,4.3465,0.0,0.0,0.0,4.2763,4.2342,4.2308,4.2079,4.1622,4.1604,4.1788,4.2198,4.2462,4.2829,4.3406,4.366,4.4767,4.668,0.0,4.7061,4.7465,4.7103,4.6828,4.6674,4.6171,4.6041,4.63,4.63,4.6262,4.6205,4.6207,4.6212,4.6203,4.6196,4.6449,4.6956,4.7306,4.7934,0.0,0.0,0.0,0.0,0.0,0.0,0.0,0.0,0.0,0.0,0.0,4.7617,4.7598,0.0,0.0,0.0,4.6269,4.6205,4.6128,4.6571,0.0,0.0,0.0,0.0,0.0,0.0,0.0,4.58,4.58,4.58,4.58,4.5988,4.6111,4.6115,4.6212,4.6289,4.6289,0.0,4.6108,4.6106,4.5935,4.58,4.58,4.58,4.58,4.58,4.58,4.58,4.5819,4.6259,4.6568,4.6684,4.7298,4.7893,4.7884,4.9064,5.0167,5.048,5.0848,5.1061,5.1022,5.1041,5.1003,4.1318,4.1426,4.156,4.1604,4.1604,4.1604,4.1604,4.1604,4.1604,4.1604,4.1604,4.1604,4.2008,4.271,4.271,0.0,4.2675,4.1938,4.1622,4.1604,4.1604,4.1604,4.1604,4.1604,4.1788,4.2216,4.2221,4.2657,4.3353,4.3422,4.4033,4.5194,4.5718,4.6008,4.6026,4.6511,4.6495,4.5908,4.5899,4.6041,4.63,4.63,4.6262,4.6205,4.621,4.62,4.6203,4.6196,4.6196,4.6235,4.6956,4.7443,4.754,0.0,0.0,0.0,0.0,0.0,0.0,0.0,0.0,0.0,0.0,0.0,0.0,0.0,0.0,4.6367,4.6289,0.0,4.6289,4.629,0.0,0.0,0.0,4.6027,4.5819,4.58,4.58,4.58,0.0,0.0,4.5819,4.5988,4.6118,4.6119,4.6206,4.6289,4.6289,4.6172,4.6108,4.6106,4.5935,4.58,4.58,4.58,4.58,4.58,4.58,4.58,4.58,4.5819,4.5819,4.5858,4.6452,4.7008,4.6989,4.7757,4.8551,4.932,5.0094,5.0674,5.0596,5.0674,5.0716,4.1426,4.156,4.1604,4.1604,4.1604,4.1604,4.1604,4.1604,4.1604,4.1604,4.1604,4.1604,4.171,4.1885,4.1885,4.1885,4.1885,4.1692,4.1604,4.1604,4.1604,4.1604,4.1604,4.1604,4.1788,4.2198,4.2501,4.2922,4.3406,4.3712,4.4035,4.4339,4.4854,4.5402,4.5969,4.5935,4.5877,4.5835,4.5875,4.6041,4.6296,4.63,4.6262,4.6205,4.621,4.62,4.6203,4.6196,4.6196,4.6196,4.6391,4.6819,4.7482,4.8495,0.0,0.0,0.0,0.0,0.0,0.0,0.0,0.0,0.0,4.7832,4.8535,0.0,4.7246,0.0,4.6289,4.6269,4.623,4.6807,0.0,0.0,4.6588,4.6665,4.6027,4.5877,4.58,4.58,4.58,4.5819,4.5935,4.6046,4.6112,4.6157,4.625,4.6289,4.6289,4.6191,4.6108,4.6084,4.5916,4.58,4.58,4.58,4.58,4.58,4.58,4.58,4.58,4.58,4.58,4.58,4.5935,4.6123,4.6143,4.6834,4.7414,4.7734,4.8411,4.8991,4.8991,4.9517,4.9966,4.1335,4.1408,4.1471,4.156,4.1604,4.1604,4.1604,4.1604,4.1604,4.1604,4.1604,4.1604,4.1604,4.1604,4.1604,4.1604,4.1604,4.1604,4.1604,4.1604,4.1604,4.1604,4.1604,4.1604,4.1788,4.2198,4.2619,4.3032,4.3387,4.3828,4.4005,4.4023,4.4519,4.5019,4.5458,4.5552,4.5668,4.58,4.5908,4.6091,4.6277,4.63,4.6278,4.623,4.621,4.6198,4.6195,4.656,4.678,4.678,4.715,4.7404,4.7521,4.8319,4.8826,0.0,0.0,0.0,0.0,0.0,0.0,0.0,0.0,0.0,0.0,0.0,4.7383,4.6914,4.6523,4.6289,4.625,4.668,4.6729,4.6208,4.6505,4.6542,4.6073,4.5935,4.5858,4.58,4.5838,4.5896,4.5988,4.6085,4.6162,4.6201,4.6248,4.6289,4.6289,4.6186,4.6119,4.61,4.5916,4.58,4.58,4.58,4.58,4.58,4.58,4.58,4.58,4.58,4.58,4.58,4.58,4.58,4.5819,4.6162,4.651,4.6588,4.6902,4.7502,4.8237,4.8783,4.9131,4.1169,4.1192,4.1318,4.1471,4.1569,4.1604,4.1604,4.1604,4.1604,4.1604,4.1604,4.1604,4.1604,4.1604,4.1604,4.1604,4.1604,4.1604,4.1604,4.1604,4.1604,4.1604,4.1604,4.1604,4.1831,4.2279,4.2619,4.3014,4.3474,4.3809,4.4005,4.4023,4.4482,4.4757,4.4838,4.5284,4.5629,4.5808,4.5988,4.6144,4.63,4.63,4.6293,4.6307,4.623,4.6239,4.6362,4.6982,4.7384,4.7521,4.8125,4.8125,4.7404,4.8164,4.83,0.0,4.826,0.0,0.0,0.0,0.0,0.0,0.0,0.0,0.0,4.75,4.7461,4.7598,4.6816,4.6289,4.6289,4.6289,4.6269,4.623,4.6211,4.6128,4.6033,4.599,4.5935,4.5819,4.5916,4.5988,4.6022,4.6131,4.6201,4.6203,4.6248,4.6289,4.6289,4.6193,4.6112,4.6123,4.5916,4.58,4.58,4.58,4.58,4.58,4.58,4.58,4.58,4.58,4.58,4.58,4.58,4.58,4.58,4.5819,4.5819,4.5858,4.5916,4.638,4.7579,4.8101,4.8237,4.1123,4.1192,4.1318,4.1418,4.1437,4.1569,4.1604,4.1604,4.1604,4.1604,4.1604,4.1604,4.1604,4.1604,4.1604,4.1604,4.1604,4.1604,4.1604,4.1604,4.1604,4.1604,4.1604,4.1604,4.1984,4.2639,4.2754,4.3177,4.3892,4.3955,4.4005,4.4005,4.4315,4.4579,4.4819,0.0,0.0,0.0,4.5929,4.6076,4.6296,4.63,4.6293,4.6307,4.6241,0.0,4.7186,4.6748,4.678,4.7443,4.6975,0.0,0.0,0.0,0.0,0.0,0.0,0.0,0.0,0.0,0.0,0.0,4.7495,4.7607,4.7519,4.6914,4.6836,4.75,4.6797,4.6289,4.6289,4.6289,4.6289,4.6289,4.6191,4.6112,4.6078,4.593,4.5819,4.58,4.5916,4.6028,4.6075,4.6147,4.6234,4.6274,4.6287,4.6289,4.6289,4.6232,4.6151,4.6104,4.5916,4.58,4.58,4.58,4.58,4.58,4.58,4.58,4.58,4.58,4.58,4.58,4.58,4.58,4.58,4.58,4.58,4.58,4.58,4.5896,4.6245,4.6858,4.7356,4.118,4.1209,4.1363,4.1418,0.0,4.1463,4.148,4.1534,4.1569,4.1604,4.1604,4.1604,4.1604,4.1604,4.1604,4.1604,4.1604,4.1604,4.1604,4.1604,4.1604,4.1604,4.1604,4.177,4.2198,4.281,4.2996,4.3406,4.3974,4.4005,4.4005,4.4005,4.4278,4.4522,4.4819,4.5207,4.5572,4.5899,4.5899,4.6041,4.6277,4.63,4.6306,4.6297,4.6267,0.0,0.0,0.0,0.0,0.0,0.0,0.0,0.0,4.7267,0.0,4.6897,4.7225,4.7462,4.7416,4.7388,4.7148,4.67,4.6746,4.6835,4.6894,4.6523,4.6484,4.6894,4.6543,4.6289,4.6289,4.6289,4.6289,4.6289,4.6211,4.6127,4.6099,4.5975,4.5891,4.5819,4.5955,4.6072,4.6096,4.619,4.6254,4.63,4.6289,4.6289,4.6289,4.6253,4.6149,4.6061,4.5916,4.58,4.58,4.58,4.58,4.58,4.58,4.58,4.58,4.58,4.58,4.58,4.58,4.58,4.58,4.58,4.58,4.58,4.58,4.58,4.5819,4.6162,4.6472,4.118,4.1209,4.1335,4.1408,4.1418,4.1391,4.1418,4.1437,4.1569,0.0,0.0,4.1604,4.1604,4.1604,4.1604,4.1604,4.1604,4.1604,4.1604,4.1604,4.1604,4.1631,4.1719,4.205,4.2422,4.2904,4.3248,4.3575,4.4005,4.4005,4.4005,4.4023,4.424,4.4486,4.4824,4.5323,4.5692,4.5875,4.5889,4.6013,4.6249,4.6296,4.63,4.63,4.63,4.6339,4.6441,4.6972,4.7345,4.7496,4.8015,4.8008,4.7326,4.7267,4.6936,4.6274,4.6196,4.6162,4.613,4.6123,4.6096,4.6037,4.614,4.623,4.6289,4.6289,4.6289,4.6289,4.6289,4.6289,4.6289,4.6289,4.6289,4.6289,4.623,4.616,4.6099,4.6046,4.5935,4.5838,4.5969,4.6111,4.6103,4.6228,4.6289,4.6289,4.6289,4.6289,4.6289,4.623,4.6152,4.6034,4.5896,4.58,4.58,4.58,4.58,4.58,4.58,4.58,4.58,4.58,4.58,4.58,4.58,4.58,4.58,4.58,4.58,4.58,4.58,4.58,4.58,4.58,4.5838,4.114,4.1123,4.1335,4.1429,4.1418,4.1513,4.1587,4.1587,4.1604,4.1604,4.1604,4.1604,4.1604,4.1604,4.1604,4.1604,4.1604,4.1604,4.1604,4.1604,4.1604,4.1788,4.2133,4.2157,4.258,4.3283,4.3371,4.3627,4.3974,4.4005,4.4005,4.4005,4.4042,4.4323,4.4806,4.532,4.5668,4.5822,4.5875,4.5978,4.6131,4.6245,4.63,4.63,4.63,4.6627,4.7265,4.6713,4.6723,4.7426,4.6904,4.6507,4.6391,4.641,4.6313,4.6215,4.6196,4.6215,4.6189,4.6176,4.6196,4.6169,4.6192,4.623,4.6289,4.6289,4.6289,4.6289,4.6289,4.6289,4.6289,4.6289,4.6289,4.6289,4.623,4.6172,4.6118,4.6046,4.5955,4.5819,4.5969,4.6111,4.6123,4.6212,4.6289,4.6289,4.6289,4.6289,4.6269,4.6191,4.6133,4.6069,4.5916,4.5819,4.58,4.58,4.58,4.58,4.58,4.58,4.58,4.58,4.58,4.58,4.58,4.58,4.58,4.58,4.58,4.58,4.58,4.58,4.58,4.58,4.58,4.1841,4.2002,4.1492,4.144,4.1677,4.155,4.1552,4.1604,4.1604,4.1604,4.1604,4.1604,4.1604,4.1604,4.1604,4.1604,4.1604,4.1824,4.1921,4.1941,4.2157,4.236,4.2541,4.2734,4.3032,4.3406,4.3627,4.3809,4.4005,4.4005,4.4005,4.4036,4.4279,4.4635,4.5013,4.5393,4.5637,4.57,4.5828,4.5969,4.6098,4.6221,4.63,4.63,4.63,4.6468,4.6834,4.6464,4.6438,4.6775,4.6416,4.6201,4.6201,4.6216,4.6196,4.6196,4.6196,4.6196,4.6196,4.6196,4.6196,4.6203,4.6211,4.6215,4.6289,4.6289,4.6289,4.6289,4.6289,4.6289,4.6289,4.6289,4.6289,4.6289,4.625,4.6172,4.6111,4.6042,4.5969,4.5838,4.5988,4.6111,4.6123,4.6212,4.6289,4.6289,4.6289,4.6289,4.6289,4.6211,4.6147,4.6084,4.5916,4.5819,4.58,4.58,4.58,4.58,4.58,4.58,4.58,4.58,4.58,4.58,4.58,4.58,4.58,4.58,4.58,4.58,4.58,4.58,4.58,4.58,4.58,4.2636,4.2875,4.2068,4.1869,4.2016,4.1612,4.1534,4.1604,4.1604,4.1648,4.1719,4.1631,4.1604,4.1587,4.1675,4.1762,4.1815,4.2141,4.2331,4.236,4.2647,4.2832,4.2978,4.3248,4.344,4.356,4.3841,4.4005,4.4005,4.4005,4.4042,4.4135,4.4617,4.5004,4.5184,4.547,4.5586,4.562,4.5809,4.5959,4.6057,4.6211,4.63,4.63,4.63,4.629,4.6303,4.6293,4.628,4.6229,4.6212,4.6214,4.6206,4.6195,4.6209,4.6203,4.6196,4.6196,4.6196,4.6196,4.6209,4.6209,4.6209,4.6226,4.6285,4.6289,4.6289,4.6289,4.6289,4.6289,4.6289,4.6289,4.6289,4.6289,4.6269,4.6191,4.6094,4.6052,4.5988,4.5877,4.5988,4.6106,4.6141,4.6222,4.6289,4.6289,4.6289,4.6289,4.6289,4.625,4.6191,4.6102,4.5955,4.5838,4.5819,4.58,4.58,4.58,4.58,4.58,4.58,4.58,4.58,4.58,4.58,4.58,4.58,4.58,4.58,4.58,4.58,4.58,4.58,4.58,4.58,4.3256,4.3256,4.3262,4.3014,4.255,4.1928,4.1701,4.1657,4.1604,4.1831,4.2103,4.1744,4.1587,4.1631,4.1984,4.2115,4.2145,4.2572,4.2739,4.2736,4.2779,4.3019,4.3334,4.3406,4.3575,4.3892,4.3974,4.4005,4.4005,4.3986,4.4147,4.4401,4.4889,4.5187,4.5241,4.547,4.5586,4.5603,4.579,4.591,4.593,4.6176,4.63,4.63,4.63,4.63,4.6306,4.6303,4.6293,4.6288,4.6228,4.6215,4.621,4.6206,4.6206,4.6203,4.6196,4.6196,4.6196,4.6196,4.6195,4.6212,4.6211,4.6234,4.6303,4.6306,4.6289,4.6289,4.6289,4.6289,4.6289,4.6289,4.6289,4.6289,4.6289,4.625,4.6133,4.6111,4.6065,4.5988,4.6065,4.6118,4.6169,4.6265,4.6289,4.6289,4.6289,4.6289,4.6289,4.625,4.6211,4.6171,4.6065,4.5935,4.5858,4.58,4.5819,4.5819,4.58,4.58,4.58,4.58,4.58,4.58,4.58,4.58,4.58,4.58,4.58,4.58,4.58,4.58,4.58,4.58,4.58,4.4642,4.5063,4.4512,4.42,4.4031,4.3786,4.3551,4.3328,4.2855,4.2633,4.2467,4.1886,4.1719,4.1984,4.24,4.2422,4.2234,4.2862,4.3165,4.3177,4.3398,4.3595,4.374,4.3726,4.386,4.4005,4.4005,4.4005,4.4017,4.4151,4.4374,4.4643,4.5023,4.5284,4.5433,4.5547,4.5586,4.5603,4.5747,4.5852,4.592,4.615,4.63,4.63,4.63,4.63,4.63,4.63,4.6306,4.6295,4.6268,4.6269,4.6265,4.6225,4.621,4.621,4.6209,4.6196,4.6196,4.6196,4.6201,4.6209,4.625,4.6285,4.6303,4.6305,4.6289,4.6289,4.6289,4.6289,4.6289,4.6289,4.6289,4.6289,4.6289,4.6269,4.6172,4.6158,4.6143,4.6085,4.6123,4.6162,4.6203,4.6254,4.6289,4.6289,4.6289,4.6289,4.6289,4.6269,4.625,4.6206,4.6153,4.6079,4.5969,4.5935,4.593,4.591,4.5858,4.58,4.58,4.58,4.58,4.58,4.58,4.58,4.58,4.58,4.58,4.58,4.58,4.58,4.58,4.58,4.58,4.5482,4.5936,4.5247,4.4999,4.5125,4.4988,4.4827,4.4511,4.3837,4.3517,4.3412,4.2845,4.2692,4.2883,4.286,4.2619,4.2498,4.3232,4.3574,4.3594,4.3892,4.4005,4.4005,4.4005,4.4005,4.4005,4.4005,4.4005,4.4067,4.4346,4.4599,4.4825,4.5159,4.54,4.5586,4.5586,4.5586,4.5603,4.5727,4.5829,4.5929,4.6131,4.6249,4.63,4.63,4.63,4.63,4.63,4.63,4.63,4.6297,4.6305,4.6287,4.6245,4.6215,4.6202,4.621,4.6209,4.6203,4.6196,4.6214,4.6237,4.628,4.6297,4.6289,4.6288,4.6289,4.6289,4.6289,4.6289,4.6289,4.6289,4.6289,4.6289,4.6289,4.6269,4.6211,4.6209,4.6199,4.6145,4.6162,4.6222,4.6241,4.6269,4.6289,4.6289,4.6289,4.6289,4.6289,4.6289,4.6289,4.625,4.623,4.6202,4.6116,4.6021,4.5996,4.5969,4.5877,4.58,4.58,4.58,4.58,4.58,4.58,4.58,4.58,4.58,4.58,4.58,4.58,4.58,4.58,4.58,4.58,4.5424,4.5459,4.5258,4.5328,4.5275,4.4886,4.4629,4.485,4.4182,4.4343,4.5003,4.4935,4.4831,4.4437,4.3469,4.2828,4.2885,4.3579,4.3929,4.3923,4.3974,4.4005,4.4005,4.4005,4.4005,4.4005,4.4005,4.4005,4.4036,4.4493,4.4776,4.4825,4.5283,4.5586,4.5586,4.5586,4.5586,4.562,4.5731,4.5829,4.5919,4.6021,4.6176,4.6277,4.63,4.63,4.63,4.63,4.63,4.63,4.6303,4.6293,4.6306,4.6288,4.625,4.6205,4.6202,4.6202,4.6203,4.6209,4.6238,4.6278,4.63,4.6303,4.6293,4.6306,4.6289,4.6289,4.6289,4.6289,4.6289,4.6289,4.6289,4.6289,4.6289,4.6269,4.6211,4.6211,4.6211,4.6189,4.6203,4.6231,4.6297,4.6289,4.6289,4.6289,4.6289,4.6289,4.6289,4.6289,4.6289,4.6289,4.6289,4.6256,4.6131,4.6065,4.6014,4.5964,4.5896,4.58,4.58,4.58,4.58,4.58,4.58,4.58,4.58,4.58,4.58,4.58,4.58,4.58,4.58,4.58,4.58,4.699,4.7248,4.7205,4.7284,4.7393,4.7219,4.7085,4.6892,4.625,4.5961,4.587,4.5494,4.5192,4.5055,4.4894,4.42,4.3321,4.3744,4.4005,4.4005,4.4005,4.4005,4.4005,4.4005,4.4005,4.4005,4.4005,4.4005,4.4067,4.4519,4.48,4.4891,4.5361,4.5586,4.5586,4.5586,4.5586,4.5603,4.5651,4.5733,4.5889,4.5959,4.6064,4.6277,4.63,4.63,4.63,4.63,4.63,4.63,4.63,4.6303,4.6293,4.6295,4.6285,4.6207,4.6249,4.6247,4.6206,4.6238,4.6284,4.6293,4.63,4.63,4.6303,4.6297,4.6306,4.6289,4.6289,4.6289,4.6289,4.6289,4.6289,4.6289,4.6289,4.6289,4.6269,4.625,4.6264,4.6269,4.625,4.6284,4.6289,4.6289,4.6289,4.6289,4.6289,4.6289,4.6289,4.6289,4.6289,4.6289,4.6289,4.6293,4.6249,4.6123,4.6046,4.5963,4.5896,4.5838,4.58,4.58,4.58,4.58,4.58,4.58,4.58,4.58,4.58,4.58,4.58,4.58,4.58,4.58,4.58,4.7548,4.7842,4.8029,4.8171,4.832,4.8384,4.8329,4.8148,4.7526,4.7156,4.6928,4.6473,4.6205,4.612,4.636,4.5748,4.4512,4.4689,4.4674,4.4432,4.4413,4.4265,4.4023,4.4005,4.4005,4.4005,4.4005,4.4005,4.4048,4.4538,4.4776,4.4825,4.5342,4.5586,4.5586,4.5586,4.5586,4.5586,4.5586,4.5708,4.5867,4.5899,4.6041,4.6249,4.63,4.63,4.63,4.63,4.63,4.63,4.63,4.63,4.63,4.63,4.6295,4.623,4.6267,4.6285,4.625,4.6269,4.6307,4.6306,4.63,4.63,4.63,4.6287,4.6297,4.6305,4.6289,4.6289,4.6289,4.6289,4.6289,4.6289,4.6289,4.6289,4.6289,4.6289,4.6289,4.6289,4.6289,4.6289,4.6289,4.6289,4.6289,4.6289,4.6289,4.6289,4.6289,4.6289,4.6289,4.6289,4.6289,4.6289,4.6229,4.6131,4.6104,4.6041,4.5891,4.5819,4.58,4.58,4.58,4.58,4.58,4.58,4.58,4.58,4.58,4.58,4.58,4.58,4.58,4.58,4.58,4.6954,4.7098,4.7428,4.7806,4.7944,4.8051,4.8081,4.8106,4.7779,4.7849,4.8104,4.8159,4.785,4.771,4.7633,4.7203,4.6572,4.6513,4.6048,4.5329,4.5305,4.4896,4.4265,4.4283,4.4283,4.4265,4.4135,4.4135,4.4302,4.4802,4.5066,4.5048,4.5591,4.5874,4.5643,4.572,4.5643,4.5605,4.5586,4.5708,4.5867,4.5899,4.6033,4.6269,4.63,4.63,4.63,4.63,4.63,4.63,4.63,4.63,4.63,4.63,4.6303,4.6306,4.6303,4.6303,4.6284,4.6287,4.629,4.63,4.63,4.63,4.63,4.63,4.6303,4.629,4.6303,4.6289,4.6289,4.6289,4.6289,4.6289,4.6289,4.6289,4.6289,4.6289,4.6289,4.6289,4.6289,4.6289,4.6289,4.6289,4.6289,4.6289,4.6289,4.6289,4.6289,4.6289,4.6289,4.6289,4.6289,4.6289,4.6211,4.6136,4.6122,4.6087,4.5918,4.58,4.58,4.58,4.58,4.58,4.58,4.58,4.58,4.58,4.58,4.58,4.58,4.58,4.58,4.58,4.58,4.7548,4.7875,4.8002,4.817,4.8306,4.8384,4.8472,4.8561,4.8513,4.8587,4.8714,4.8714,4.8655,4.854,4.8537,4.837,4.8147,4.8129,4.7441,4.6327,4.6122,4.5974,4.5732,4.5695,4.5714,4.5714,4.5732,4.5804,4.5985,4.6304,4.6607,4.683,4.7125,4.699,4.6508,4.6488,4.624,4.5643,4.5586,4.568,4.5829,4.5886,4.5987,4.6144,4.6245,4.63,4.63,4.63,4.63,4.63,4.63,4.63,4.63,4.63,4.63,4.63,4.63,4.63,4.63,4.63,4.63,4.63,4.63,4.63,4.63,4.63,4.63,4.63,4.6293,4.63,4.6289,4.6289,4.6289,4.6289,4.6289,4.6289,4.6289,4.6289,4.6289,4.6289,4.6289,4.6289,4.6289,4.6289,4.6289,4.6289,4.6289,4.6289,4.6289,4.6289,4.6289,4.6289,4.6289,4.6289,4.625,4.6175,4.6122,4.6072,4.5924,4.58,4.58,4.58,4.58,4.58,4.58,4.58,4.58,4.58,4.58,4.58,4.58,4.58,4.58,4.58,4.58,4.8035,4.8324,4.8324,4.8343,4.8436,4.8532,4.864,4.8725,4.8853,4.889,4.889,4.889,4.889,4.889,4.889,4.889,4.889,4.889,4.8351,4.7441,4.7033,4.6814,4.6557,4.6531,4.6513,4.6527,4.6605,4.6756,4.6909,4.7276,4.7547,4.771,4.7968,4.7855,4.7375,4.7317,4.6913,4.622,4.6086,4.5998,4.5858,4.5863,4.5949,4.6098,4.624,4.63,4.63,4.63,4.63,4.63,4.63,4.63,4.63,4.63,4.63,4.63,4.63,4.63,4.63,4.63,4.63,4.63,4.63,4.63,4.63,4.63,4.63,4.63,4.6303,4.629,4.6303,4.6289,4.6289,4.6289,4.6289,4.6289,4.6289,4.6289,4.6289,4.6289,4.6289,4.6289,4.6289,4.6289,4.6289,4.6289,4.6289,4.6289,4.6289,4.6289,4.6289,4.6289,4.6289,4.6289,4.6289,4.6214,4.6122,4.605,4.593,4.5838,4.58,4.58,4.58,4.58,4.58,4.58,4.58,4.58,4.58,4.58,4.58,4.58,4.58,4.58,4.58,4.8249,4.8306,4.8324,4.8324,4.8344,4.8513,4.8601,4.8651,4.8816,4.889,4.889,4.889,4.889,4.889,4.889,4.889,4.889,4.889,4.8872,4.8537,4.8073,4.7448,4.6972,4.6962,4.694,4.688,4.7074,4.7162,4.741,4.7827,4.7865,4.8138,4.841,4.8241,4.8203,4.8183,4.7778,4.7086,4.6894,4.6519,4.5945,4.5879,4.5959,4.6084,4.6206,4.6277,4.63,4.63,4.63,4.63,4.63,4.63,4.63,4.63,4.63,4.63,4.63,4.63,4.63,4.63,4.63,4.63,4.63,4.63,4.63,4.63,4.6303,4.6306,4.6287,4.6287,4.6295,4.6305,4.6289,4.6289,4.6289,4.6289,4.6289,4.6289,4.6289,4.6289,4.6289,4.6289,4.6289,4.6289,4.6289,4.6289,4.6289,4.6289,4.6289,4.6289,4.6289,4.6289,4.6289,4.6289,4.6289,4.6195,4.6102,4.6053,4.5935,4.5838,4.58,4.58,4.58,4.58,4.58,4.58,4.58,4.58,4.58,4.58,4.58,4.58,4.58,4.58,4.58,4.7995,4.8306,4.8324,4.8324,4.8344,4.8513,4.8583,4.8633,4.8834,4.8909,4.889,4.889,4.889,4.889,4.889,4.889,4.889,4.889,4.889,4.8872,4.8723,4.8484,4.8282,4.8243,4.8221,4.8218,4.8434,4.884,4.9059,4.9238,4.9545,4.9908,4.9796,4.9625,4.9183,4.9048,4.8586,4.7817,4.7182,4.6873,4.6576,4.6056,4.5871,4.594,4.6091,4.6206,4.6277,4.63,4.63,4.63,4.63,4.63,4.63,4.63,4.63,4.63,4.63,4.63,4.63,4.63,4.63,4.63,4.63,4.63,4.63,4.63,4.6287,4.6295,4.6303,4.6289,4.6289,4.6289,4.6289,4.6289,4.6289,4.6289,4.6289,4.6289,4.6289,4.6289,4.6289,4.6289,4.6289,4.6289,4.6289,4.6289,4.6289,4.6289,4.6289,4.6289,4.6289,4.6289,4.6289,4.6289,4.6269,4.6172,4.6091,4.608,4.5969,4.5819,4.58,4.58,4.58,4.58,4.58,4.58,4.58,4.58,4.58,4.58,4.58,4.58,4.58,4.58,4.58,4.8035,4.8324,4.8324,4.8324,4.8306,4.8476,4.8549,4.8616,4.8765,4.8892,4.8909,4.889,4.889,4.889,4.889,4.889,4.889,4.889,4.889,4.889,4.8872,4.8853,4.8872,4.889,4.889,4.8925,4.9239,4.9491,4.9746,5.0068,5.0358,5.0567,5.0683,5.0414,4.999,4.9933,4.951,4.874,4.8125,4.7682,4.6931,4.6522,4.6137,4.5991,4.6016,4.617,4.6277,4.63,4.63,4.63,4.63,4.63,4.63,4.63,4.63,4.63,4.63,4.63,4.63,4.63,4.63,4.63,4.63,4.63,4.63,4.63,4.6287,4.6293,4.6306,4.6289,4.6289,4.6289,4.6289,4.6289,4.6289,4.6289,4.6289,4.6289,4.6289,4.6289,4.6289,4.6289,4.6289,4.6289,4.6289,4.6289,4.6289,4.6289,4.6289,4.6289,4.6289,4.6289,4.6289,4.6289,4.625,4.6152,4.6065,4.6035,4.5935,4.5819,4.58,4.58,4.58,4.58,4.58,4.58,4.58,4.58,4.58,4.58,4.58,4.58,4.58,4.58,4.58,4.8324,4.8324,4.8324,4.8324,4.8324,4.8457,4.855,4.8618,4.8748,4.8857,4.8909,4.889,4.889,4.889,4.889,4.889,4.889,4.889,4.889,4.889,4.889,4.889,4.889,4.889,4.889,4.8959,4.9257,4.9529,4.9803,5.0068,5.0358,5.0624,5.0683,5.0683,5.0529,5.0606,5.024,4.9644,4.924,4.8567,4.7566,4.7069,4.6568,4.6183,4.6036,4.617,4.6269,4.63,4.63,4.63,4.63,4.63,4.63,4.63,4.63,4.63,4.63,4.63,4.63,4.63,4.63,4.63,4.63,4.63,4.63,4.63,4.6303,4.6303,4.6303,4.6289,4.6289,4.6289,4.6289,4.6289,4.6289,4.6289,4.6289,4.6289,4.6289,4.6289,4.6289,4.6289,4.6289,4.6289,4.6289,4.6289,4.6289,4.6289,4.6289,4.6289,4.6289,4.6289,4.6289,4.6269,4.6211,4.6152,4.605,4.597,4.5891,4.58,4.58,4.58,4.58,4.58,4.58,4.58,4.58,4.58,4.58,4.58,4.58,4.58,4.58,4.58,4.58,4.8324,4.8324,4.8324,4.8324,4.8306,4.8457,4.8532,4.8604,4.875,4.8857,4.8874,4.889,4.889,4.889,4.889,4.889,4.889,4.889,4.889,4.889,4.889,4.889,4.889,4.889,4.889,4.8959,4.9257,4.9529,4.9803,5.0062,5.0377,5.0644,5.0683,5.0683,5.0683,5.0683,5.0625,5.0317,4.9798,4.9279,4.8625,4.7584,4.6973,4.6651,4.6329,4.6183,4.6273,4.63,4.63,4.63,4.63,4.63,4.63,4.63,4.63,4.63,4.63,4.63,4.63,4.63,4.63,4.63,4.63,4.63,4.63,4.63,4.63,4.6303,4.6295,4.6305,4.6289,4.6289,4.6289,4.6289,4.6289,4.6289,4.6289,4.6289,4.6289,4.6289,4.6289,4.6289,4.6289,4.6289,4.6289,4.6289,4.6289,4.6289,4.6289,4.6289,4.6289,4.6289,4.6289,4.626,4.6177,4.61,4.599,4.5912,4.5847,4.58,4.58,4.58,4.58,4.58,4.58,4.58,4.58,4.58,4.58,4.58,4.58,4.58,4.58,4.58,4.58,4.8324,4.8324,4.8324,4.8324,4.8306,4.8457,4.8513,4.8587,4.8715,4.8822,4.8857,4.8874,4.889,4.889,4.889,4.889,4.889,4.889,4.889,4.889,4.889,4.889,4.889,4.889,4.889,4.8943,4.9079,4.9377,4.973,4.9987,5.0225,5.0663,5.0683,5.0683,5.0683,5.0683,5.0683,5.0625,5.0279,4.9837,4.924,4.8586,4.7559,4.7139,4.6724,4.6544,4.622,4.6273,4.63,4.63,4.63,4.63,4.63,4.63,4.63,4.63,4.63,4.63,4.63,4.63,4.63,4.63,4.63,4.63,4.63,4.63,4.63,4.6303,4.6293,4.6289,4.6289,4.6289,4.6289,4.6289,4.6289,4.6289,4.6289,4.6289,4.6289,4.6289,4.6289,4.6289,4.6289,4.6289,4.6289,4.6289,4.6289,4.6289,4.6289,4.6289,4.6289,4.6289,4.6289,4.6265,4.6171,4.605,4.5899,4.5852,4.5833,4.58,4.58,4.58,4.58,4.58,4.58,4.58,4.58,4.58,4.58,4.58,4.58,4.58,4.58,4.58,4.58,4.8324,4.8324,4.8324,4.8324,4.8324,4.8419,4.8475,4.8531,4.8697,4.8768,4.8822,4.8874,4.889,4.889,4.889,4.889,4.889,4.889,4.889,4.889,4.889,4.889,4.889,4.889,4.889,4.889,4.8925,4.9233,4.9646,4.9857,5.0155,5.0604,5.0683,5.0683,5.0683,5.0683,5.0683,5.0664,5.0606,5.0337,4.9721,4.9356,4.8523,4.7584,4.7075,4.6873,4.6488,4.6343,4.6273,4.63,4.63,4.63,4.63,4.63,4.63,4.63,4.63,4.63,4.63,4.63,4.63,4.63,4.63,4.63,4.63,4.63,4.63,4.6287,4.6297,4.6289,4.6289,4.6289,4.6289,4.6289,4.6289,4.6289,4.6289,4.6289,4.6289,4.6289,4.6289,4.6289,4.6289,4.6289,4.6289,4.6289,4.6289,4.6289,4.6289,4.6289,4.6289,4.6289,4.6289,4.6235,4.6143,4.6084,4.5924,4.5819,4.58,4.58,4.58,4.58,4.58,4.58,4.58,4.58,4.58,4.58,4.58,4.58,4.58,4.58,4.58,4.58,4.58,4.8324,4.8324,4.8324,4.8324,4.8306,4.8306,4.844,4.8547,4.8641,4.875,4.8874,4.8909,4.889,4.889,4.889,4.889,4.889,4.889,4.889,4.889,4.889,4.889,4.889,4.889,4.889,4.889,4.8925,4.9201,4.9646,4.983,5.013,5.0565,5.0683,5.0683,5.0683,5.0683,5.0683,5.0683,5.0683,5.051,5.0279,4.9779,4.9102,4.8114,4.7613,4.7214,4.6995,4.6502,4.6181,4.6296,4.63,4.63,4.63,4.63,4.63,4.63,4.63,4.63,4.63,4.63,4.63,4.63,4.63,4.63,4.63,4.63,4.63,4.6287,4.63,4.6288,4.6305,4.6289,4.6289,4.6289,4.6289,4.6289,4.6289,4.6289,4.6289,4.6289,4.6289,4.6289,4.6289,4.6289,4.6289,4.6289,4.6289,4.6289,4.6289,4.6289,4.6289,4.6289,4.6289,4.6209,4.6104,4.6093,4.6007,4.5838,4.58,4.58,4.58,4.58,4.58,4.58,4.58,4.58,4.58,4.58,4.58,4.58,4.58,4.58,4.58,4.58,4.58,4.8324,4.8324,4.8324,4.8324,4.8306,4.8363,4.844,4.8547,4.8677,4.8768,4.8839,4.8855,4.889,4.889,4.889,4.889,4.889,4.889,4.889,4.889,4.889,4.889,4.889,4.889,4.889,4.889,4.8925,4.9201,4.9749,4.9803,5.013,5.0544,5.0683,5.0683,5.0683,5.0683,5.0683,5.0683,5.0683,5.0683,5.0683,5.0202,4.968,4.8962,4.8481,4.8025,4.7252,4.7077,4.6599,4.639,4.63,4.63,4.63,4.63,4.63,4.63,4.63,4.63,4.63,4.63,4.63,4.63,4.63,4.63,4.63,4.63,4.63,4.6306,4.629,4.6303,4.6287,4.6289,4.6289,4.6289,4.6289,4.6289,4.6289,4.6289,4.6289,4.6289,4.6289,4.6289,4.6289,4.6289,4.6289,4.6289,4.6289,4.6289,4.6289,4.6289,4.6289,4.6289,4.6268,4.6206,4.6111,4.6061,4.6007,4.5877,4.58,4.58,4.58,4.58,4.58,4.58,4.58,4.58,4.58,4.58,4.58,4.58,4.58,4.58,4.58,4.58,4.58,4.8324,4.8324,4.8324,4.8324,4.8324,4.8419,4.8458,4.8532,4.8678,4.8787,4.8822,4.8874,4.889,4.889,4.889,4.889,4.889,4.889,4.889,4.889,4.889,4.889,4.889,4.889,4.889,4.8909,4.9027,4.9283,4.9721,4.9803,5.0155,5.0544,5.0683,5.0683,5.0683,5.0683,5.0683,5.0683,5.0683,5.0683,5.0683,5.0644,5.0414,4.9683,4.9597,4.8817,4.7687,4.73,4.6872,4.645,4.6273,4.63,4.63,4.63,4.63,4.63,4.63,4.63,4.63,4.63,4.63,4.63,4.63,4.63,4.63,4.63,4.63,4.63,4.6287,4.6295,4.6305,4.6289,4.6289,4.6289,4.6289,4.6289,4.6289,4.6289,4.6289,4.6289,4.6289,4.6289,4.6289,4.6289,4.6289,4.6289,4.6289,4.6289,4.6289,4.6289,4.6289,4.6269,4.6239,4.6181,4.6105,4.6016,4.5944,4.5838,4.58,4.58,4.58,4.58,4.58,4.58,4.58,4.58,4.58,4.58,4.58,4.58,4.58,4.58,4.58,4.58,4.58,4.8324,4.8324,4.8324,4.8324,4.8324,4.8324,4.8418,4.8493,4.8606,4.8697,4.8787,4.8874,4.889,4.889,4.889,4.889,4.889,4.889,4.889,4.889,4.889,4.889,4.889,4.889,4.889,4.8959,4.9193,4.9499,4.9749,4.9811,5.013,5.0584,5.0683,5.0683,5.0683,5.0683,5.0683,5.0683,5.0683,5.0683,5.0683,5.0683,5.0606,5.0356,4.9854,4.9153,4.8261,4.7736,4.703,4.6372,4.6284,4.63,4.63,4.63,4.63,4.63,4.63,4.63,4.63,4.63,4.63,4.63,4.63,4.63,4.63,4.63,4.63,4.63,4.6293,4.6297,4.63,4.6307,4.6289,4.6289,4.6289,4.6289,4.6289,4.6289,4.6289,4.6289,4.6289,4.6289,4.6289,4.6289,4.6289,4.6289,4.6289,4.6289,4.6289,4.6289,4.6289,4.6289,4.625,4.6186,4.6102,4.6026,4.5924,4.5819,4.58,4.58,4.58,4.58,4.58,4.58,4.58,4.58,4.58,4.58,4.58,4.58,4.58,4.58,4.58,4.58,4.58,4.8035,4.8324,4.8324,4.8324,4.8324,4.8324,4.8379,4.8473,4.8587,4.8697,4.8787,4.8874,4.889,4.889,4.889,4.889,4.889,4.889,4.889,4.889,4.889,4.889,4.889,4.889,4.889,4.8993,4.9239,4.951,4.973,4.9968,5.0272,5.0624,5.0683,5.0683,5.0683,5.0683,5.0683,5.0683,5.0683,5.0683,5.0683,5.0683,5.0683,5.0683,5.0298,4.9735,4.9034,4.8348,4.7583,4.6921,4.6587,4.63,4.63,4.63,4.63,4.63,4.63,4.63,4.63,4.63,4.63,4.63,4.63,4.63,4.63,4.63,4.63,4.63,4.6295,4.63,4.6303,4.6288,4.6289,4.6289,4.6289,4.6289,4.6289,4.6289,4.6289,4.6289,4.6289,4.6289,4.6289,4.6289,4.6289,4.6289,4.6289,4.6289,4.6289,4.6289,4.6289,4.6289,4.625,4.6195,4.6111,4.603,4.5918,4.5838,4.58,4.58,4.58,4.58,4.58,4.58,4.58,4.58,4.58,4.58,4.58,4.58,4.58,4.58,4.58,4.58,4.58,4.7692,4.8132,4.8267,4.8324,4.8324,4.8324,4.8343,4.8473,4.8532,4.866,4.8768,4.882,4.889,4.889,4.889,4.889,4.889,4.889,4.889,4.889,4.889,4.889,4.889,4.889,4.889,4.889,4.9346,4.9627,4.9857,5.0135,5.0442,5.0683,5.0683,5.0683,5.0683,5.0683,5.0683,5.0683,5.0683,5.0683,5.0683,5.0683,5.0683,5.0683,5.0606,5.0354,4.9592,4.8806,4.8057,4.7328,4.6579,4.6245,4.6277,4.63,4.63,4.63,4.63,4.63,4.63,4.63,4.63,4.63,4.63,4.63,4.63,4.63,4.63,4.63,4.629,4.6303,4.6289,4.6289,4.6289,4.6289,4.6289,4.6289,4.6289,4.6289,4.6289,4.6289,4.6289,4.6289,4.6289,4.6289,4.6289,4.6289,4.6289,4.6289,4.6289,4.6289,4.6289,4.6289,4.6269,4.6211,4.6131,4.6046,4.5932,4.5858,4.5819,4.58,4.58,4.58,4.58,4.58,4.58,4.58,4.58,4.58,4.58,4.58,4.58,4.58,4.58,4.58,4.58,4.7204,4.7674,4.8114,4.8324,4.8324,4.8324,4.8324,4.8343,4.8457,4.855,4.8678,4.8785,4.889,4.889,4.889,4.889,4.889,4.889,4.889,4.889,4.889,4.889,4.889,4.889,4.889,4.8974,4.942,4.9721,4.9955,5.0336,5.0565,5.0683,5.0683,5.0683,5.0683,5.0683,5.0683,5.0683,5.0683,5.0683,5.0683,5.0683,5.0683,5.0683,5.0625,5.0317,4.9452,4.8834,4.8153,4.7445,4.6719,4.6245,4.6312,4.63,4.63,4.63,4.63,4.63,4.63,4.63,4.63,4.63,4.63,4.63,4.63,4.63,4.63,4.6303,4.6287,4.63,4.6289,4.6289,4.6289,4.6289,4.6289,4.6289,4.6289,4.6289,4.6289,4.6289,4.6289,4.6289,4.6289,4.6289,4.6289,4.6289,4.6289,4.6289,4.6289,4.6289,4.6289,4.6289,4.6289,4.623,4.6133,4.6056,4.5984,4.5877,4.5819,4.58,4.58,4.58,4.58,4.58,4.58,4.58,4.58,4.58,4.58,4.58,4.58,4.58,4.58,4.58,4.58,4.6981,4.7248,4.7977,4.8324,4.8324,4.8324,4.8324,4.8324,4.8457,4.8606,4.8732,4.8839,4.889,4.889,4.889,4.889,4.889,4.889,4.889,4.889,4.889,4.889,4.889,4.889,4.889,4.9042,4.9491,4.9803,4.9884,5.0399,5.0624,5.0683,5.0683,5.0683,5.0683,5.0683,5.0683,5.0683,5.0683,5.0683,5.0683,5.0683,5.0683,5.0683,5.0683,5.0567,5.0144,4.949,4.8775,4.8017,4.7241,4.6742,4.6327,4.6296,4.63,4.63,4.63,4.63,4.63,4.63,4.63,4.63,4.63,4.63,4.63,4.63,4.6287,4.629,4.629,4.6297,4.6289,4.6289,4.6289,4.6289,4.6289,4.6289,4.6289,4.6289,4.6289,4.6289,4.6289,4.6289,4.6289,4.6289,4.6289,4.6289,4.6289,4.6289,4.6289,4.6289,4.6289,4.6289,4.6289,4.625,4.6133,4.6075,4.604,4.5916,4.58,4.58,4.58,4.58,4.58,4.58,4.58,4.58,4.58,4.58,4.58,4.58,4.58,4.58,4.58,4.58,4.58,4.6908,4.6999,4.7915,4.8324,4.8324,4.8324,4.8324,4.8324,4.8457,4.8624,4.8787,4.8874,4.889,4.889,4.889,4.889,4.889,4.889,4.889,4.889,4.889,4.889,4.889,4.889,4.889,4.9042,4.9461,4.9803,4.983,5.0418,5.0643,5.0683,5.0683,5.0683,5.0683,5.0683,5.0683,5.0683,5.0683,5.0683,5.0683,5.0683,5.0683,5.0683,5.0683,5.0664,5.0394,4.9817,4.9078,4.836,4.764,4.6948,4.6518,4.6273,4.63,4.63,4.63,4.63,4.63,4.63,4.63,4.63,4.63,4.63,4.63,4.63,4.6306,4.6293,4.6293,4.6289,4.6289,4.6289,4.6289,4.6289,4.6289,4.6289,4.6289,4.6289,4.6289,4.6289,4.6289,4.6289,4.6289,4.6289,4.6289,4.6289,4.6289,4.6289,4.6289,4.6289,4.6289,4.6289,4.6289,4.623,4.6144,4.6085,4.6027,4.5877,4.58,4.58,4.58,4.58,4.58,4.58,4.58,4.58,4.58,4.58,4.58,4.58,4.58,4.58,4.58,4.58,4.58,4.6908,4.6999,4.7915,4.8324,4.8324,4.8324,4.8324,4.8306,4.8457,4.8606,4.8787,4.8874,4.889,4.889,4.889,4.889,4.889,4.889,4.889,4.889,4.889,4.889,4.889,4.889,4.889,4.9042,4.9461,4.9803,4.983,5.0418,5.0663,5.0683,5.0683,5.0683,5.0683,5.0683,5.0683,5.0683,5.0683,5.0683,5.0683,5.0683,5.0683,5.0683,5.0683,5.0683,5.0529,5.0086,4.9329,4.843,4.7847,4.7086,4.63,4.6288,4.63,4.63,4.63,4.63,4.63,4.63,4.63,4.63,4.63,4.63,4.63,4.6303,4.6303,4.629,4.6301,4.6289,4.6289,4.6289,4.6289,4.6289,4.6289,4.6289,4.6289,4.6289,4.6289,4.6289,4.6289,4.6289,4.6289,4.6289,4.6289,4.6289,4.6289,4.6289,4.6289,4.6289,4.6289,4.6289,4.6289,4.6211,4.6135,4.61,4.6027,4.5891,4.58,4.58,4.58,4.58,4.58,4.58,4.58,4.58,4.58,4.58,4.58,4.58,4.58,4.58,4.58,4.58,4.58,4.736,4.7421,4.8053,4.8324,4.8324,4.8324,4.8324,4.8363,4.8495,4.8624,4.8697,4.882,4.889,4.889,4.889,4.889,4.889,4.889,4.889,4.889,4.889,4.889,4.889,4.889,4.889,4.9075,4.9461,4.9803,4.9803,5.0418,5.0663,5.0683,5.0683,5.0683,5.0683,5.0683,5.0683,5.0683,5.0683,5.0683,5.0683,5.0683,5.0683,5.0683,5.0683,5.0683,5.0683,5.026,4.9599,4.8604,4.8002,4.7417,4.6482,4.6296,4.63,4.63,4.63,4.63,4.63,4.63,4.63,4.63,4.63,4.63,4.63,4.6293,4.629,4.629,4.6306,4.6289,4.6289,4.6289,4.6289,4.6289,4.6289,4.6289,4.6289,4.6289,4.6289,4.6289,4.6289,4.6289,4.6289,4.6289,4.6289,4.6289,4.6289,4.6289,4.6289,4.6289,4.6289,4.6269,4.625,4.6191,4.6134,4.6092,4.6002,4.5872,4.58,4.58,4.58,4.58,4.58,4.58,4.58,4.58,4.58,4.58,4.58,4.58,4.58,4.58,4.58,4.58,4.58,4.7591,4.7674,4.8075,4.8324,4.8324,4.8324,4.8324,4.8399,4.855,4.8642,4.8697,4.882,4.889,4.889,4.889,4.889,4.889,4.889,4.889,4.889,4.889,4.889,4.889,4.889,4.889,4.9057,4.9461,4.9803,4.983,5.0418,5.0663,5.0683,5.0683,5.0683,5.0683,5.0683,5.0683,5.0683,5.0683,5.0683,5.0683,5.0683,5.0683,5.0683,5.0683,5.0683,5.0683,5.0471,5.0003,4.8928,4.8277,4.7757,4.6755,4.6273,4.628,4.63,4.63,4.63,4.63,4.63,4.63,4.63,4.63,4.63,4.6303,4.629,4.6297,4.6301,4.6289,4.6289,4.6289,4.6289,4.6289,4.6289,4.6289,4.6289,4.6289,4.6289,4.6289,4.6289,4.6289,4.6289,4.6289,4.6289,4.6289,4.6289,4.6289,4.6289,4.6289,4.6289,4.6289,4.6269,4.6235,4.6173,4.6122,4.606,4.5944,4.5833,4.58,4.58,4.58,4.58,4.58,4.58,4.58,4.58,4.58,4.58,4.58,4.58,4.58,4.58,4.58,4.58,4.58,4.7632,4.7674,4.8132,4.8324,4.8324,4.8324,4.8361,4.8491,4.855,4.8678,4.8787,4.882,4.889,4.889,4.889,4.889,4.889,4.889,4.889,4.889,4.889,4.889,4.889,4.889,4.8959,4.9141,4.948,4.9857,4.9865,5.0399,5.0683,5.0683,5.0683,5.0683,5.0683,5.0683,5.0683,5.0683,5.0683,5.0683,5.0683,5.0683,5.0683,5.0683,5.0683,5.0683,5.0683,5.0587,4.9753,4.8952,4.838,4.7476,4.6734,4.6255,4.6273,4.63,4.63,4.63,4.63,4.63,4.63,4.6303,4.6306,4.6303,4.6303,4.6306,4.6295,4.6289,4.6289,4.6289,4.6289,4.6289,4.6289,4.6289,4.6289,4.6289,4.6289,4.6289,4.6289,4.6289,4.6289,4.6289,4.6289,4.6289,4.6289,4.6289,4.6289,4.6289,4.6289,4.6289,4.6289,4.625,4.6215,4.6174,4.6106,4.6015,4.5924,4.58,4.58,4.58,4.58,4.58,4.58,4.58,4.58,4.58,4.58,4.58,4.58,4.58,4.58,4.58,4.58,4.58,4.58,4.8093,4.8114,4.8249,4.8324,4.8324,4.8324,4.8324,4.8381,4.8532,4.8642,4.866,4.882,4.889,4.889,4.889,4.889,4.889,4.889,4.889,4.889,4.889,4.889,4.889,4.889,4.9027,4.9283,4.9579,4.9891,5.013,5.0544,5.0683,5.0683,5.0683,5.0683,5.0683,5.0683,5.0683,5.0683,5.0683,5.0683,5.0683,5.0683,5.0683,5.0683,5.0683,5.0683,5.0683,5.0683,4.9814,4.8686,4.8477,4.7718,4.6305,4.6216,4.63,4.63,4.63,4.63,4.63,4.63,4.6303,4.629,4.63,4.6297,4.629,4.6287,4.6297,4.6289,4.6289,4.6289,4.6289,4.6289,4.6289,4.6289,4.6289,4.6289,4.6289,4.6289,4.6289,4.6289,4.6289,4.6289,4.6289,4.6289,4.6289,4.6289,4.6289,4.6289,4.6289,4.6289,4.6269,4.623,4.6176,4.6123,4.6035,4.593,4.5872,4.58,4.58,4.58,4.58,4.58,4.58,4.58,4.58,4.58,4.58,4.58,4.58,4.58,4.58,4.58,4.58,4.58,4.5786,4.8324,4.8324,4.8324,4.8324,4.8324,4.8324,4.8326,4.8421,4.8532,4.8623,4.8697,4.882,4.889,4.889,4.889,4.889,4.889,4.889,4.889,4.889,4.889,4.889,4.889,4.8925,4.9094,4.9377,4.9665,4.9917,5.0225,5.0504,5.0683,5.0683,5.0683,5.0683,5.0683,5.0683,5.0683,5.0683,5.0683,5.0683,5.0683,5.0683,5.0683,5.0683,5.0683,5.0683,5.0683,5.0683,4.9833,4.8628,4.8458,4.7738,4.6461,4.6216,4.63,4.6303,4.629,4.6306,4.6303,4.63,4.6287,4.6289,4.6289,4.6306,4.6305,4.6303,4.6306,4.6289,4.6289,4.6289,4.6289,4.6289,4.6289,4.6289,4.6289,4.6289,4.6289,4.6289,4.6289,4.6289,4.6289,4.6289,4.6289,4.6289,4.6289,4.6289,4.6289,4.6289,4.6289,4.6289,4.6269,4.6211,4.6152,4.6084,4.5984,4.5877,4.5838,4.58,4.58,4.58,4.58,4.58,4.58,4.58,4.58,4.58,4.58,4.58,4.58,4.58,4.58,4.5805,4.5819,4.58,4.5786,4.8324,4.8324,4.8324,4.8324,4.8306,4.8324,4.8383,4.8532,4.8623,4.8697,4.8768,4.8855,4.889,4.889,4.889,4.889,4.889,4.889,4.889,4.889,4.889,4.889,4.889,4.8925,4.9141,4.9408,4.9712,4.9987,5.0272,5.0544,5.0683,5.0683,5.0683,5.0683,5.0683,5.0683,5.0683,5.0683,5.0683,5.0683,5.0683,5.0683,5.0683,5.0683,5.0683,5.0683,5.0683,5.0452,4.995,4.8922,4.8205,4.7679,4.6748,4.6236,4.6277,4.6303,4.629,4.6295,4.6293,4.6293,4.6301,4.6289,4.6289,4.6289,4.6289,4.6289,4.6289,4.6289,4.6289,4.6289,4.6289,4.6289,4.6289,4.6289,4.6289,4.6289,4.6289,4.6289,4.6289,4.6289,4.6289,4.6289,4.6289,4.6289,4.6289,4.6289,4.6289,4.6289,4.6289,4.6289,4.625,4.6191,4.6133,4.606,4.5951,4.5858,4.5819,4.58,4.58,4.58,4.58,4.58,4.58,4.58,4.58,4.58,4.58,4.58,4.58,4.58,4.5819,4.5805,4.5791,4.5752,4.5737,4.8324,4.8324,4.8324,4.8361,4.8454,4.8439,4.855,4.8734,4.8751,4.8787,4.8822,4.8874,4.889,4.889,4.889,4.889,4.889,4.889,4.889,4.889,4.889,4.889,4.889,4.8925,4.922,4.9598,4.9857,5.0106,5.0462,5.0624,5.0683,5.0683,5.0683,5.0683,5.0683,5.0683,5.0683,5.0683,5.0683,5.0683,5.0683,5.0683,5.0683,5.0683,5.0683,5.0683,5.0683,5.0645,4.9663,4.8542,4.8463,4.766,4.6416,4.6331,4.63,4.6303,4.629,4.6297,4.6289,4.6289,4.6289,4.6289,4.6289,4.6289,4.6289,4.6289,4.6289,4.6289,4.6289,4.6289,4.6289,4.6289,4.6289,4.6289,4.6289,4.6289,4.6289,4.6289,4.6289,4.6289,4.6289,4.6289,4.6289,4.6289,4.6289,4.6289,4.6289,4.6289,4.6289,4.6269,4.6211,4.6152,4.6113,4.6042,4.5924,4.5838,4.5819,4.58,4.58,4.58,4.58,4.58,4.58,4.58,4.58,4.58,4.58,4.58,4.58,4.5819,4.5791,4.5795,4.5669,4.5596,4.5634,4.8401,4.8401,4.8418,4.8453,4.8548,4.8532,4.8621,4.8787,4.8787,4.8822,4.8857,4.8874,4.889,4.889,4.889,4.889,4.889,4.889,4.889,4.889,4.889,4.889,4.889,4.8925,4.9296,4.9693,5.0106,5.0418,5.0663,5.0683,5.0683,5.0683,5.0683,5.0683,5.0683,5.0683,5.0683,5.0683,5.0683,5.0683,5.0683,5.0683,5.0683,5.0683,5.0683,5.0683,5.0683,5.0587,4.9644,4.8314,4.7652,4.7174,4.6382,4.63,4.63,4.6306,4.6295,4.6289,4.6289,4.6289,4.6289,4.6289,4.6289,4.6289,4.6289,4.6289,4.6289,4.6289,4.6289,4.6289,4.6289,4.6289,4.6289,4.6289,4.6289,4.6289,4.6289,4.6289,4.6289,4.6289,4.6289,4.6289,4.6289,4.6289,4.6289,4.6289,4.6289,4.6289,4.6289,4.623,4.6172,4.6114,4.6064,4.5996,4.5872,4.5819,4.5819,4.58,4.58,4.58,4.58,4.58,4.58,4.58,4.58,4.58,4.58,4.58,4.5805,4.581,4.5795,4.5765,4.5638,4.5459,4.5411,4.8494,4.8531,4.8548,4.8621,4.8622,4.8621,4.8688,4.88,4.882,4.8839,4.8909,4.889,4.889,4.889,4.889,4.889,4.889,4.889,4.889,4.889,4.889,4.889,4.8925,4.8993,4.942,4.9884,5.0355,5.0523,5.0683,5.0683,5.0683,5.0683,5.0683,5.0683,5.0683,5.0683,5.0683,5.0683,5.0683,5.0683,5.0683,5.0683,5.0683,5.0683,5.0683,5.0683,5.0683,5.0433,4.9721,4.833,4.695,4.6474,4.6337,4.63,4.629,4.6295,4.6305,4.6289,4.6289,4.6289,4.6289,4.6289,4.6289,4.6289,4.6289,4.6289,4.6289,4.6289,4.6289,4.6289,4.6289,4.6289,4.6289,4.6289,4.6289,4.6289,4.6289,4.6289,4.6289,4.6289,4.6289,4.6289,4.6289,4.6289,4.6289,4.6289,4.6289,4.6289,4.6269,4.6211,4.6152,4.6066,4.5995,4.591,4.5819,4.58,4.58,4.58,4.58,4.58,4.58,4.58,4.58,4.58,4.58,4.58,4.58,4.5819,4.581,4.5795,4.577,4.5719,4.5522,4.5339,4.515,4.8569,4.8569,4.8587,4.8661,4.8735,4.8748,4.8816,4.889,4.8855,4.8909,4.889,4.889,4.889,4.889,4.889,4.889,4.889,4.889,4.889,4.889,4.889,4.889,4.8993,4.9174,4.9637,5.0062,5.0462,5.0643,5.0683,5.0683,5.0683,5.0683,5.0683,5.0683,5.0683,5.0683,5.0683,5.0683,5.0683,5.0683,5.0683,5.0683,5.0683,5.0683,5.0683,5.0683,5.0683,5.0683,4.9644,4.8235,4.6815,4.629,4.6201,4.629,4.6295,4.6289,4.6289,4.6289,4.6289,4.6289,4.6289,4.6289,4.6289,4.6289,4.6289,4.6289,4.6289,4.6289,4.6289,4.6289,4.6289,4.6289,4.6289,4.6289,4.6289,4.6289,4.6289,4.6289,4.6289,4.6289,4.6289,4.6289,4.6289,4.6289,4.6289,4.6289,4.6289,4.6289,4.623,4.6172,4.6113,4.6024,4.5944,4.5858,4.58,4.58,4.58,4.58,4.58,4.58,4.58,4.58,4.58,4.58,4.58,4.58,4.5819,4.5805,4.5795,4.5781,4.5758,4.5654,4.5435,4.5189,4.501]},{"header":{"parameterUnit":"m.s-1","parameterCategory":1,"la1":31.0,"la2":29.5877,"lo1":-88.7671,"lo2":-86.6584,"dy":0.0162,"dx":0.0185,"nx":115,"ny":88,"refTime":"2023-08-25T06:00:00:Z","depth":0,"parameterNumber":3,"parameterNumberName":"V-component_of_WINDS"},"data":[0.0,0.0,0.0,0.0,0.0,0.0,0.0,0.0,0.0,0.0,0.0,0.0,0.0,0.0,0.0,0.0,0.0,0.0,0.0,0.0,0.0,0.0,0.0,0.0,0.0,0.0,0.0,0.0,0.0,0.0,0.0,0.0,0.0,0.0,0.0,0.0,0.0,0.0,0.0,0.0,0.0,0.0,0.0,0.0,0.0,0.0,0.0,0.0,0.0,0.0,0.0,0.0,0.0,0.0,0.0,0.0,0.0,0.0,0.0,0.0,0.0,0.0,0.0,0.0,0.0,0.0,0.0,0.0,0.0,0.0,0.0,0.0,0.0,0.0,0.0,0.0,0.0,0.0,0.0,0.0,0.0,0.0,0.0,0.0,0.0,0.0,0.0,0.0,0.0,0.0,0.0,0.0,0.0,0.0,0.0,0.0,0.0,0.0,0.0,0.0,0.0,0.0,0.0,0.0,0.0,0.0,0.0,0.0,0.0,0.0,0.0,0.0,0.0,0.0,0.0,0.0,0.0,0.0,0.0,0.0,0.0,0.0,0.0,0.0,0.0,0.0,0.0,0.0,0.0,0.0,0.0,0.0,0.0,0.0,0.0,0.0,0.0,0.0,0.0,0.0,0.0,0.0,0.0,0.0,0.0,0.0,0.0,0.0,0.0,0.0,0.0,0.0,0.0,0.0,0.0,0.0,0.0,0.0,0.0,0.0,0.0,0.0,0.0,0.0,0.0,0.0,0.0,0.0,0.0,0.0,0.0,0.0,0.0,0.0,0.0,0.0,0.0,0.0,0.0,0.0,0.0,0.0,0.0,0.0,0.0,0.0,0.0,0.0,0.0,0.0,0.0,0.0,0.0,0.0,0.0,0.0,0.0,0.0,0.0,0.0,0.0,0.0,0.0,0.0,0.0,0.0,0.0,0.0,0.0,0.0,0.0,0.0,0.0,0.0,0.0,0.0,0.0,0.0,0.0,0.0,0.0,0.0,0.0,0.0,0.0,0.0,0.0,0.0,0.0,0.0,0.0,0.0,0.0,0.0,0.0,0.0,0.0,0.0,0.0,0.0,0.0,0.0,0.0,0.0,0.0,0.0,0.0,0.0,0.0,0.0,0.0,0.0,0.0,0.0,0.0,0.0,0.0,0.0,0.0,0.0,0.0,0.0,0.0,0.0,0.0,0.0,0.0,0.0,0.0,0.0,0.0,0.0,0.0,0.0,0.0,0.0,0.0,0.0,0.0,0.0,0.0,0.0,0.0,0.0,0.0,0.0,0.0,0.0,0.0,0.0,0.0,0.0,0.0,0.0,0.0,0.0,0.0,0.0,0.0,0.0,0.0,0.0,0.0,0.0,0.0,0.0,0.0,0.0,0.0,0.0,0.0,0.0,0.0,0.0,0.0,0.0,0.0,0.0,0.0,0.0,0.0,0.0,0.0,0.0,0.0,0.0,0.0,0.0,0.0,0.0,0.0,0.0,0.0,0.0,0.0,0.0,0.0,0.0,0.0,0.0,0.0,0.0,0.0,0.0,0.0,0.0,0.0,0.0,0.0,0.0,0.0,0.0,0.0,0.0,0.0,0.0,0.0,0.0,0.0,0.0,0.0,0.0,0.0,0.0,0.0,0.0,0.0,0.0,0.0,0.0,0.0,0.0,0.0,0.0,0.0,0.0,0.0,0.0,0.0,0.0,0.0,0.0,0.0,0.0,0.0,0.0,0.0,0.0,0.0,0.0,0.0,0.0,0.0,0.0,0.0,0.0,0.0,0.0,0.0,0.0,0.0,0.0,0.0,0.0,0.0,0.0,0.0,0.0,0.0,0.0,0.0,0.0,0.0,0.0,0.0,0.0,0.0,0.0,0.0,0.0,0.0,0.0,0.0,0.0,0.0,0.0,0.0,0.0,0.0,0.0,0.0,0.0,0.0,0.0,0.0,0.0,0.0,0.0,0.0,0.0,0.0,0.0,0.0,0.0,0.0,0.0,0.0,0.0,0.0,0.0,0.0,0.0,0.0,0.0,0.0,0.0,0.0,0.0,0.0,0.0,0.0,0.0,0.0,0.0,0.0,0.0,0.0,0.0,0.0,0.0,0.0,0.0,0.0,0.0,0.0,0.0,0.0,0.0,0.0,0.0,0.0,0.0,0.0,0.0,0.0,0.0,0.0,0.0,0.0,0.0,0.0,0.0,0.0,0.0,0.0,0.0,0.0,0.0,0.0,0.0,0.0,0.0,0.0,0.0,0.0,0.0,0.0,0.0,0.0,0.0,0.0,0.0,0.0,0.0,0.0,0.0,0.0,0.0,0.0,0.0,0.0,0.0,0.0,0.0,0.0,0.0,0.0,0.0,0.0,0.0,0.0,0.0,0.0,0.0,0.0,0.0,0.0,0.0,0.0,0.0,0.0,0.0,0.0,0.0,0.0,0.0,0.0,0.0,0.0,0.0,0.0,0.0,0.0,0.0,0.0,0.0,0.0,0.0,0.0,0.0,0.0,0.0,0.0,0.0,0.0,0.0,0.0,0.0,0.0,0.0,0.0,0.0,0.0,0.0,0.0,0.0,0.0,0.0,0.0,0.0,0.0,0.0,0.0,0.0,0.0,0.0,0.0,0.0,0.0,0.0,0.0,0.0,0.0,0.0,0.0,0.0,0.0,0.0,0.0,0.0,0.0,0.0,0.0,0.0,0.0,0.0,0.0,0.0,0.0,0.0,0.0,0.0,0.0,0.0,0.0,0.0,0.0,0.0,0.0,0.0,0.0,0.0,0.0,0.0,0.0,0.0,0.0,0.0,0.0,0.0,0.0,0.0,0.0,0.0,0.0,0.0,0.0,0.0,0.0,0.0,0.0,0.0,0.0,0.0,0.0,0.0,0.0,0.0,0.0,0.0,0.0,0.0,0.0,0.0,0.0,0.0,0.0,0.0,0.0,0.0,0.0,0.0,0.0,0.0,0.0,0.0,0.0,0.0,0.0,0.0,0.0,0.0,0.0,0.0,0.0,0.0,0.0,0.0,0.0,0.0,0.0,0.0,0.0,0.0,0.0,0.0,0.0,0.0,0.0,0.0,0.0,0.0,0.0,0.0,0.0,0.0,0.0,0.0,0.0,0.0,0.0,0.0,0.0,0.0,0.0,0.0,0.0,0.0,0.0,0.0,0.0,0.0,0.0,0.0,0.0,0.0,0.0,0.0,0.0,0.0,0.0,0.0,0.0,0.0,0.0,0.0,0.0,0.0,0.0,0.0,0.0,0.0,0.0,0.0,0.0,0.0,0.0,0.0,0.0,0.0,0.0,0.0,0.0,0.0,0.0,0.0,0.0,0.0,0.0,0.0,0.0,0.0,0.0,0.0,0.0,0.0,0.0,0.0,0.0,0.0,0.0,0.0,0.0,0.0,0.0,0.0,0.0,0.0,0.0,0.0,0.0,0.0,0.0,0.0,0.0,0.0,0.0,0.0,0.0,0.0,0.0,0.0,0.0,0.0,0.0,0.0,0.0,0.0,0.0,0.0,0.0,0.0,0.0,0.0,0.0,0.0,0.0,0.0,0.0,0.0,0.0,0.0,0.0,0.0,0.0,0.0,0.0,0.0,0.0,0.0,0.0,0.0,0.0,0.0,0.0,0.0,0.0,0.0,0.0,0.0,0.0,0.0,0.0,0.0,0.0,0.0,0.0,0.0,0.0,0.0,0.0,0.0,0.0,0.0,0.0,0.0,0.0,0.0,0.0,0.0,0.0,0.0,0.0,0.0,0.0,0.0,0.0,0.0,0.0,0.0,0.0,0.0,0.0,0.0,0.0,0.0,0.0,0.0,0.0,0.0,0.0,0.0,0.0,0.0,0.0,0.0,0.0,0.0,0.0,0.0,0.0,0.0,0.0,0.0,0.0,0.0,0.0,0.0,0.0,0.0,0.0,0.0,0.0,0.0,0.0,0.0,0.0,0.0,0.0,0.0,0.0,0.0,0.0,0.0,0.0,0.0,0.0,0.0,0.0,0.0,0.0,0.0,0.0,0.0,0.0,0.0,0.0,0.0,0.0,0.0,0.0,0.0,0.0,0.0,0.0,0.0,0.0,0.0,0.0,0.0,0.0,0.0,0.0,0.0,0.0,0.0,0.0,0.0,0.0,0.0,0.0,0.0,0.0,0.0,0.0,0.0,0.0,0.0,0.0,0.0,0.0,0.0,0.0,0.0,0.0,0.0,0.0,0.0,0.0,0.0,0.0,0.0,0.0,0.0,0.0,0.0,0.0,0.0,0.0,0.0,0.0,0.0,0.8937,0.0,0.0,0.0,0.8937,0.0,0.0,0.0,0.0,0.0,0.0,0.0,0.0,0.0,0.0,0.0,0.0,0.0,0.0,0.0,0.0,0.0,0.0,0.0,0.0,0.0,0.0,0.0,0.0,0.0,0.0,0.0,0.0,0.0,0.0,0.0,0.0,0.0,0.0,0.0,0.0,0.0,0.0,0.0,0.0,0.0,0.0,0.0,0.0,0.0,0.0,0.0,0.0,0.0,0.0,0.0,0.0,0.0,0.0,0.0,0.0,0.0,0.0,0.0,0.0,0.0,0.0,0.0,0.0,0.0,0.0,0.0,0.0,0.0,0.0,0.0,0.0,0.0,0.0,0.0,0.0,0.0,0.0,0.0,0.0,0.0,0.0,0.0,0.0,0.0,0.0,0.0,0.0,0.0,0.0,0.0,0.0,0.0,0.0,0.0,0.0,0.0,0.0,0.0,0.0,0.0,0.0,0.0,0.0,0.0,0.0,0.0,0.0,0.0,0.0,0.8689,0.8693,0.8689,0.8693,0.8693,0.0,0.0,0.0,0.0,0.0,0.0,0.0,0.0,0.0,0.0,0.0,0.0,0.0,0.0,0.0,0.0,0.0,0.0,0.0,0.0,0.0,0.0,0.0,0.0,0.0,0.0,0.0,0.0,0.0,0.0,0.0,0.0,0.0,0.0,0.0,0.0,0.0,0.0,0.0,0.0,0.0,0.0,0.0,0.0,0.0,0.0,0.0,0.0,0.0,0.0,0.0,0.0,0.0,0.0,0.0,0.0,0.0,0.0,0.0,0.0,0.0,0.0,0.0,0.0,0.0,0.0,0.0,0.0,0.0,0.0,0.0,0.0,0.0,0.0,0.0,0.0,0.0,0.0,0.0,0.0,0.0,0.0,0.0,0.0,0.0,0.0,0.0,0.0,0.0,0.0,0.0,0.0,0.0,0.0,0.0,0.0,0.0,0.0,0.0,0.0,0.0,0.0,0.0,0.0,0.0,0.0,0.0,0.0,0.0,0.0,0.0,0.0,0.8482,0.8482,0.8591,0.0,0.0,0.0,0.0,0.0,0.0,0.0,0.0,0.0,0.0,0.0,0.0,0.0,0.0,0.0,0.0,0.0,0.0,0.0,0.0,0.0,0.0,0.0,0.0,0.0,0.0,0.0,0.0,0.0,0.0,0.0,0.0,0.0,0.0,0.0,0.0,0.0,0.0,0.0,0.0,0.0,0.0,0.0,0.0,0.0,0.0,0.0,0.0,0.0,0.0,0.0,0.0,0.0,0.0,0.0,0.0,0.0,0.0,0.0,0.0,0.0,0.0,0.0,0.0,0.0,0.0,0.0,0.0,0.0,0.0,0.0,0.0,0.0,0.0,0.0,0.0,0.0,0.0,0.0,0.0,0.0,0.0,0.0,0.0,0.0,0.0,0.0,0.0,0.0,0.0,0.0,0.0,0.0,0.0,0.0,0.0,0.0,0.0,0.0,0.0,0.0,0.0,0.0,0.0,0.0,0.0,0.0,0.0,0.0,0.0,0.8482,0.8482,0.8479,0.0,0.8482,0.0,0.0,0.0,0.0,0.0,0.0,0.0,0.0,0.0,0.0,0.0,0.0,0.0,0.0,0.0,0.0,0.0,0.0,0.0,0.0,0.0,0.0,0.0,0.0,0.0,0.0,0.0,0.0,0.0,0.0,0.0,0.0,0.0,0.0,0.0,0.0,0.0,0.0,0.0,0.0,0.0,0.0,0.0,0.0,0.0,0.0,0.0,0.0,0.0,0.0,0.0,0.0,0.0,0.0,0.0,0.0,0.0,0.0,0.0,0.0,0.0,0.0,0.0,0.0,0.0,0.0,0.0,0.0,0.0,0.0,0.0,0.0,0.0,0.0,0.0,0.0,0.0,0.0,0.0,0.0,0.0,0.0,0.0,0.0,0.0,0.0,0.0,0.0,0.0,0.0,0.0,0.0,0.0,0.0,0.0,0.0,0.0,0.0,0.0,0.0,0.0,0.0,0.0,0.0,0.0,0.0,0.0,0.0,0.0,0.0,0.8221,0.8218,0.8218,0.8262,0.0,0.0,0.0,0.0,0.0,0.0,0.0,0.0,0.0,0.0,0.0,0.0,0.0,0.0,0.0,0.0,0.0,0.0,0.0,0.0,0.0,0.0,0.0,0.0,0.0,0.0,0.0,0.0,0.0,0.0,0.0,0.0,0.0,0.0,0.0,0.0,0.0,0.0,0.0,0.0,0.0,0.0,0.0,0.0,0.0,0.0,0.0,0.0,0.0,0.0,0.0,0.0,0.0,0.0,0.0,0.0,0.0,0.0,0.0,0.0,0.0,0.0,0.0,0.0,0.0,0.0,0.0,0.0,0.0,0.0,0.0,0.0,0.0,0.0,0.0,0.0,0.0,0.0,0.0,0.0,0.0,0.0,0.0,0.0,0.0,0.0,0.0,0.0,0.0,0.0,0.0,0.0,0.0,0.0,0.0,0.0,0.0,0.0,0.0,0.0,0.0,0.0,0.0,0.0,0.0,0.0,0.0,0.0,0.0,0.0,0.8038,0.8038,0.8038,0.8038,0.8092,0.8204,0.0,0.0,0.0,0.0,0.0,0.0,0.0,0.0,0.0,0.0,0.0,0.0,0.0,0.0,0.0,0.0,0.0,0.0,0.0,0.0,0.0,0.0,0.0,0.0,0.0,0.0,0.0,0.0,0.0,0.0,0.0,0.0,0.0,0.0,0.0,0.0,0.0,0.0,0.0,0.0,0.0,0.0,0.0,0.0,0.0,0.0,0.0,0.0,0.0,0.0,0.0,0.0,0.0,0.0,0.0,0.0,0.0,0.0,0.0,0.0,0.0,0.0,0.0,0.0,0.0,0.0,0.0,0.0,0.0,0.0,0.0,0.0,0.0,0.0,0.0,0.0,0.0,0.0,0.0,0.0,0.0,0.0,0.0,0.0,0.0,0.0,0.0,0.0,0.0,0.0,0.0,0.0,0.0,0.0,0.0,0.0,0.0,0.0,0.0,0.0,0.0,0.0,0.0,0.0,0.0,0.0,0.0,0.0,0.8038,0.8038,0.8038,0.8038,0.8038,0.8045,0.0,0.0,0.0,0.0,0.0,0.0,0.0,0.0,0.0,0.0,0.0,0.0,0.0,0.0,0.0,0.0,0.0,0.0,0.0,0.0,0.0,0.0,0.0,0.0,0.0,0.0,0.0,0.0,0.0,0.0,0.0,0.0,0.0,0.0,0.0,0.0,0.0,0.0,0.0,0.0,0.0,0.0,0.0,0.0,0.0,0.0,0.0,0.0,0.0,0.0,0.0,0.0,0.0,0.0,0.0,0.0,0.0,0.0,0.0,0.0,0.0,0.0,0.0,0.0,0.0,0.0,0.0,0.0,0.0,0.0,0.0,0.0,0.0,0.0,0.0,0.0,0.0,0.0,0.0,0.0,0.0,0.0,0.0,0.0,0.0,0.0,0.0,0.0,0.0,0.0,0.0,0.0,0.0,0.0,0.0,0.0,0.0,0.0,0.0,0.0,0.0,0.0,0.0,0.0,0.0,0.0,0.0,0.0,0.0,0.8038,0.8038,0.8038,0.8038,0.8038,0.8038,0.0,0.0,0.0,0.0,0.0,0.0,0.0,0.0,0.0,0.0,0.0,0.0,0.0,0.0,0.0,0.0,0.0,0.0,0.0,0.0,0.0,0.0,0.0,0.0,0.0,0.0,0.0,0.0,0.0,0.0,0.0,0.0,0.0,0.0,0.0,0.0,0.0,0.0,0.0,0.0,0.0,0.0,0.0,0.0,0.0,0.0,0.0,0.0,0.0,0.0,0.0,0.0,0.0,0.0,0.0,0.0,0.0,0.0,0.0,0.0,0.0,0.0,0.0,0.0,0.0,0.0,0.0,0.0,0.0,0.0,0.0,0.0,0.0,0.0,0.0,0.0,0.0,0.0,0.0,0.0,0.0,0.0,0.0,0.0,0.0,0.0,0.0,0.0,0.0,0.0,0.0,0.0,0.0,0.0,0.0,0.0,0.0,0.0,0.0,0.0,0.0,0.0,0.0,0.0,0.0,0.0,0.0,0.0,0.0,0.8038,0.0,0.8038,0.8038,0.8038,0.8038,0.0,0.0,0.0,0.0,0.0,0.0,0.0,0.0,0.0,0.0,0.0,0.0,0.0,0.0,0.0,0.0,0.0,0.0,0.0,0.0,0.0,0.0,0.0,0.0,0.0,0.0,0.0,0.0,0.0,0.0,0.0,0.0,0.0,0.0,0.0,0.0,0.0,0.0,0.0,0.0,0.0,0.0,0.0,0.0,0.0,0.0,0.0,0.0,0.0,0.0,0.0,0.0,0.0,0.0,0.0,0.0,0.0,0.0,0.0,0.0,0.0,0.0,0.0,0.0,0.0,0.0,0.0,0.0,0.0,0.0,0.0,0.0,0.0,0.0,0.0,0.0,0.0,0.0,0.0,0.0,0.0,0.0,0.0,0.0,0.0,0.0,0.0,0.0,0.0,0.0,0.0,0.0,0.0,0.0,0.0,0.0,0.0,0.0,0.0,0.0,0.0,0.0,0.0,0.0,0.0,0.0,0.0,0.0,0.8038,0.8038,0.8038,0.8038,0.8038,0.8038,0.7939,0.0,0.0,0.0,0.0,0.0,0.0,0.0,0.0,0.0,0.0,0.0,0.0,0.0,0.0,0.0,0.0,0.0,0.0,0.0,0.0,0.0,0.0,0.0,0.0,0.0,0.0,0.0,0.0,0.0,0.0,0.0,0.0,0.0,0.0,0.0,0.0,0.0,0.0,0.0,0.0,0.0,0.0,0.0,0.0,0.0,0.0,0.0,0.0,0.0,0.0,0.0,0.0,0.0,0.0,0.0,0.0,0.0,0.0,0.0,0.0,0.0,0.0,0.0,0.0,0.0,0.0,0.0,0.0,0.0,0.0,0.0,0.0,0.0,0.0,0.0,0.0,0.0,0.0,0.0,0.0,0.0,0.0,0.0,0.0,0.0,0.0,0.0,0.0,0.0,0.0,0.0,0.0,0.0,0.0,0.0,0.0,0.0,0.0,0.0,0.0,0.0,0.0,0.0,0.0,0.0,0.0,0.0,0.0,0.0,0.8038,0.8038,0.8038,0.8038,0.8038,0.764,0.0,0.0,0.0,0.0,0.0,0.0,0.0,0.0,0.0,0.0,0.0,0.0,0.0,0.0,0.0,0.0,0.0,0.0,0.0,0.0,0.0,0.0,0.0,0.0,0.0,0.0,0.0,0.0,0.0,0.0,0.0,0.0,0.0,0.0,0.0,0.0,0.0,0.0,0.0,0.0,0.0,0.0,0.0,0.0,0.0,0.0,0.0,0.0,0.0,0.0,0.0,0.0,0.0,0.0,0.0,0.0,0.0,0.0,0.0,0.0,0.0,0.0,0.0,0.0,0.0,0.0,0.0,0.0,0.0,0.0,0.0,0.0,0.0,0.0,0.0,0.0,0.0,0.0,0.0,0.0,0.0,0.0,0.0,0.0,0.0,0.0,0.0,0.0,0.0,0.0,0.0,0.0,0.0,0.0,0.0,0.0,0.0,0.0,0.0,0.0,0.0,0.0,0.0,0.0,0.0,0.0,0.0,0.0,0.0,0.8038,0.8038,0.8038,0.8038,0.8038,0.7537,0.6434,0.0,0.0,0.0,0.0,0.0,0.0,0.0,0.0,0.0,0.0,0.0,0.0,0.0,0.0,0.0,0.0,0.0,0.0,0.0,0.0,0.0,0.0,0.0,0.0,0.0,0.0,0.0,0.0,0.0,0.0,0.0,0.0,0.0,0.0,0.0,0.0,0.0,0.0,0.0,0.0,0.0,0.0,0.0,0.0,0.0,0.0,0.0,0.0,0.0,0.0,0.0,0.0,0.0,0.0,0.0,0.0,0.0,0.0,0.0,0.0,0.0,0.0,0.0,0.0,0.0,0.0,0.0,0.0,0.0,0.0,0.0,0.0,0.0,0.0,0.0,0.0,0.0,0.0,0.0,0.0,0.0,0.0,0.0,0.0,0.0,0.0,0.0,0.0,0.0,0.0,0.0,0.0,0.0,0.0,0.0,0.0,0.0,0.0,0.0,0.0,0.0,0.0,0.0,0.0,0.0,0.0,0.0,0.0,0.8038,0.8038,0.8038,0.8038,0.8038,0.7437,0.0,0.0,0.0,0.0,0.0,0.0,0.0,0.0,0.0,0.0,0.0,0.0,0.0,0.0,0.0,0.0,0.0,0.0,0.0,0.0,0.0,0.0,0.0,0.0,0.0,0.0,0.0,0.0,0.0,0.0,0.0,0.0,0.0,0.0,0.0,0.0,0.0,0.0,0.0,0.0,0.0,0.0,0.0,0.0,0.0,0.0,0.0,0.0,0.0,0.0,0.0,0.0,0.0,0.0,0.0,0.0,0.0,0.0,0.0,0.0,0.0,0.0,0.0,0.0,0.0,0.0,0.0,0.0,0.0,0.0,0.0,0.0,0.0,0.0,0.0,0.0,0.0,0.0,0.0,0.0,0.0,0.0,0.0,0.0,0.0,0.0,0.0,0.0,0.0,0.0,0.0,0.0,0.0,0.0,0.0,0.0,0.0,0.0,0.0,0.0,0.0,0.0,0.0,0.0,0.0,0.0,0.0,0.0,0.0,0.8038,0.8038,0.8038,0.8038,0.8038,0.7132,0.0,0.0,0.0,0.0,0.0,0.0,0.0,0.0,0.0,0.0,0.0,0.0,0.0,0.0,0.0,0.0,0.0,0.0,0.0,0.0,0.0,0.0,0.0,0.0,0.0,0.0,0.0,0.0,0.0,0.0,0.0,0.0,0.0,0.0,0.0,0.0,0.0,0.0,0.0,0.0,0.0,0.0,0.0,0.0,0.0,0.0,0.0,0.0,0.0,0.0,0.0,0.0,0.0,0.0,0.0,0.0,0.0,0.0,0.0,0.0,0.0,0.0,0.0,0.0,0.0,0.0,0.0,0.0,0.0,0.0,0.0,0.0,0.0,0.0,0.0,0.0,0.0,0.0,0.0,0.0,0.0,0.0,0.0,0.0,0.0,0.0,0.0,0.0,0.0,0.0,0.0,0.0,0.0,0.0,0.0,0.0,0.0,0.0,0.0,0.0,0.0,0.0,0.0,0.0,0.0,0.0,0.0,0.0,0.8038,0.8038,0.8038,0.7839,0.7338,0.7746,0.6939,0.0,0.0,0.0,0.0,0.0,0.0,0.0,0.0,0.0,0.0,0.0,0.0,0.0,0.0,0.0,0.0,0.0,0.0,0.0,0.0,0.0,0.0,0.0,0.0,0.0,0.0,0.0,0.0,0.0,0.0,0.0,0.0,0.0,0.0,0.0,0.0,0.0,0.0,0.0,0.0,0.0,0.0,0.0,0.0,0.0,0.0,0.0,0.0,0.0,0.0,0.0,0.0,0.0,0.0,0.0,0.0,0.0,0.0,0.0,0.0,0.0,0.0,0.0,0.0,0.0,0.0,0.0,0.0,0.0,0.0,0.0,0.0,0.0,0.0,0.0,0.0,0.0,0.0,0.0,0.0,0.0,0.0,0.0,0.0,0.0,0.0,0.0,0.0,0.0,0.0,0.0,0.0,0.0,0.0,0.0,0.0,0.0,0.0,0.0,0.0,0.0,0.0,0.0,0.0,0.0,0.0,0.0,0.0,0.7939,0.7839,0.7839,0.7338,0.6337,0.7359,0.6954,0.0,0.0,0.0,0.0,0.0,0.0,0.0,0.0,0.0,0.0,0.0,0.0,0.0,0.0,0.0,0.0,0.0,0.0,0.0,0.0,0.0,0.0,0.0,0.0,0.0,0.0,0.0,0.0,0.0,0.0,0.0,0.0,0.0,0.0,0.0,0.0,0.0,0.0,0.0,0.0,0.0,0.0,0.0,0.0,0.0,0.0,0.0,0.0,0.0,0.0,0.0,0.0,0.0,0.0,0.0,0.0,0.0,0.0,0.0,0.0,0.0,0.0,0.0,0.0,0.0,0.0,0.0,0.0,0.0,0.0,0.0,0.0,0.0,0.0,0.0,0.0,0.0,0.0,0.0,0.0,0.0,0.0,0.0,0.0,0.0,0.0,0.0,0.0,0.0,0.0,0.0,0.0,0.0,0.0,0.0,0.0,0.0,0.0,0.0,0.0,0.0,0.0,0.0,0.0,0.0,0.0,0.0,0.0,0.7537,0.6736,0.6736,0.6232,0.5125,0.6954,0.655,0.0,0.0,0.0,0.0,0.0,0.0,0.0,0.0,0.0,0.0,0.0,0.0,0.0,0.0,0.0,0.0,0.0,0.0,0.0,0.0,0.0,0.0,0.0,0.0,0.0,0.0,0.0,0.0,0.0,0.0,0.0,0.0,0.0,0.0,0.0,0.0,0.0,0.0,0.0,0.0,0.0,0.0,0.0,0.0,0.0,0.0,0.0,0.0,0.0,0.0,0.0,0.0,0.0,0.0,0.0,0.0,0.0,0.0,0.0,0.0,0.0,0.0,0.0,0.0,0.0,0.0,0.0,0.0,0.0,0.0,0.0,0.0,0.0,0.0,0.0,0.0,0.0,0.0,0.0,0.0,0.0,0.0,0.0,0.0,0.0,0.0,0.0,0.0,0.0,0.0,0.0,0.0,0.0,0.0,0.0,0.0,0.0,0.0,0.0,0.0,0.0,0.0,0.0,0.0,0.0,0.0,0.0,0.0,0.6936,0.6437,0.5932,0.5127,0.4124,0.5644,0.5443,0.0,0.0,0.0,0.0,0.0,0.0,0.0,0.0,0.0,0.0,0.0,0.0,0.0,0.0,0.0,0.0,0.0,0.0,0.0,0.0,0.0,0.0,0.0,0.0,0.0,0.0,0.0,0.0,0.0,0.0,0.0,0.0,0.0,0.0,0.0,0.0,0.0,0.0,0.0,0.0,0.0,0.0,0.0,0.0,0.0,0.0,0.0,0.0,0.0,0.0,0.0,0.0,0.0,0.0,0.0,0.0,0.0,0.0,0.0,0.0,0.0,0.0,0.0,0.0,0.0,0.0,0.0,0.0,0.0,0.0,0.0,0.0,0.0,0.0,0.0,0.0,0.0,0.0,0.0,0.0,0.0,0.0,0.0,0.0,0.0,0.0,0.0,0.0,0.0,0.0,0.0,0.0,0.0,0.0,0.0,0.0,0.0,0.0,0.0,0.0,0.0,0.0,0.0,0.0,0.0,0.0,0.0,0.7021,0.6353,0.6134,0.5127,0.4024,0.3022,0.3833,0.394,0.3036,0.0,0.0,0.0,0.0,0.0,0.0,0.0,0.0,0.0,0.0,0.0,0.0,0.0,0.0,0.0,0.0,0.0,0.0,0.0,0.0,0.0,0.0,0.0,0.0,0.0,0.0,0.0,0.0,0.0,0.0,0.0,0.0,0.0,0.0,0.0,0.0,0.0,0.0,0.0,0.0,0.0,0.0,0.0,0.0,0.0,0.0,0.0,0.0,0.0,0.0,0.0,0.0,0.0,0.0,0.0,0.0,0.0,0.0,0.0,0.0,0.0,0.0,0.0,0.0,0.0,0.0,0.0,0.0,0.0,0.0,0.0,0.0,0.0,0.0,0.0,0.0,0.0,0.0,0.0,0.0,0.0,0.0,0.0,0.0,0.0,0.0,0.0,0.0,0.0,0.0,0.0,0.0,0.0,0.0,0.0,0.0,0.0,0.0,0.0,0.0,0.0,0.0,0.0,0.0,0.0,0.8272,0.7208,0.6123,0.5129,0.4024,0.2922,0.1919,0.202,0.2035,0.1859,0.0,0.0,0.0,0.0,0.0,0.0,0.0,0.0,0.0,0.0,0.0,0.0,0.0,0.0,0.0,0.0,0.0,0.0,0.0,0.0,0.0,0.0,0.0,0.0,0.0,0.0,0.0,0.0,0.0,0.0,0.0,0.0,0.0,0.0,0.0,0.0,0.0,0.0,0.0,0.0,0.0,0.0,0.0,0.0,0.0,0.0,0.0,0.0,0.0,0.0,0.0,0.0,0.0,0.0,0.0,0.0,0.0,0.0,0.0,0.0,0.0,0.0,0.0,0.0,0.0,0.0,0.0,0.0,0.0,0.0,0.0,0.0,0.0,0.0,0.0,0.0,0.0,0.0,0.0,0.0,0.0,0.0,0.0,0.0,0.0,0.0,0.0,0.0,0.0,0.0,0.0,0.0,0.0,0.0,0.0,0.0,0.0,0.0,0.0,0.0,0.0,0.0,0.0,0.0,0.0,0.8377,0.6578,0.5374,0.4724,0.3224,0.212,0.1618,0.1632,0.1647,0.0,0.0,0.0,0.0,0.0,0.0,0.0,0.0,0.0,0.0,0.0,0.0,0.0,0.0,0.0,0.0,0.0,0.0,0.0,0.0,0.0,0.0,0.0,0.0,0.0,0.0,0.0,0.0,0.0,0.0,0.0,0.0,0.0,0.0,0.0,0.0,0.0,0.0,0.0,0.0,0.0,0.0,0.0,0.0,0.0,0.0,0.0,0.0,0.0,0.0,0.0,0.0,0.0,0.0,0.0,0.0,0.0,0.0,0.0,0.0,0.0,0.0,0.0,0.0,0.0,0.0,0.0,0.0,0.0,0.0,0.0,0.0,0.0,0.0,0.0,0.0,0.0,0.0,0.0,0.0,0.0,0.0,0.0,0.0,0.0,0.0,0.0,0.0,0.0,0.0,0.0,0.0,0.0,0.0,0.0,0.0,0.0,0.0,0.0,0.0,0.0,0.0,0.0,0.0,0.0,0.0,0.8367,0.6062,0.4845,0.4726,0.2722,0.1617,0.1617,0.1641,0.1658,0.0,0.0,0.0,0.0,0.0,0.0,0.0,0.0,0.0,0.0,0.0,0.0,0.0,0.0,0.0,0.0,0.0,0.0,0.0,0.0,0.0,0.0,0.0,0.0,0.0,0.0,0.0,0.0,0.0,0.0,0.0,0.0,0.0,0.0,0.0,0.0,0.0,0.0,0.0,0.0,0.0,0.0,0.0,0.0,0.0,0.0,0.0,0.0,0.0,0.0,0.0,0.0,0.0,0.0,0.0,0.0,0.0,0.0,0.0,0.0,0.0,0.0,0.0,0.0,0.0,0.0,0.0,0.0,0.0,0.0,0.0,0.0,0.0,0.0,0.0,0.0,0.0,0.0,0.0,0.0,0.0,0.0,0.0,0.0,0.0,0.0,0.0,0.0,0.0,0.0,0.0,0.0,0.0,0.0,0.0,0.0,0.0,0.0,0.0,0.0,0.0,0.0,0.0,0.0,0.0,0.0,0.8377,0.6241,0.501,0.473,0.2723,0.1617,0.1617,0.162,0.1646,0.0,0.0,0.0,0.0,0.0,0.0,0.0,0.0,0.0,0.0,0.0,0.0,0.0,0.0,0.0,0.0,0.0,0.0,0.0,0.0,0.0,0.0,0.0,0.0,0.0,0.0,0.0,0.0,0.0,0.0,0.0,0.0,0.0,0.0,0.0,0.0,0.0,0.0,0.0,0.0,0.0,0.0,0.0,0.0,0.0,0.0,0.0,0.0,0.0,0.0,0.0,0.0,0.0,0.0,0.0,0.0,0.0,0.0,0.0,0.0,0.0,0.0,0.0,0.0,0.0,0.0,0.0,0.0,0.0,0.0,0.0,0.0,0.0,0.0,0.0,0.0,0.0,0.0,0.0,0.0,0.0,0.0,0.0,0.0,0.0,0.0,0.0,0.0,0.0,0.0,0.0,0.0,0.0,0.0,0.0,0.0,0.0,0.0,0.0,0.0,0.0,0.0,0.0,0.0,0.0,0.8229,0.7527,0.5777,0.4562,0.3927,0.2421,0.1617,0.1617,0.1634,0.1662,0.0,0.0,0.0,0.0,0.0,0.0,0.0,0.0,0.0,0.0,0.0,0.0,0.0,0.0,0.0,0.0,0.0,0.0,0.0,0.0,0.0,0.0,0.0,0.0,0.0,0.0,0.0,0.0,0.0,0.0,0.0,0.0,0.0,0.0,0.0,0.0,0.0,0.0,0.0,0.0,0.0,0.0,0.0,0.0,0.0,0.0,0.0,-0.0959,-0.3663,0.0,0.0,0.0,0.0,0.0,0.0,0.0,0.0,0.0,0.0,0.0,0.0,0.0,0.0,0.0,0.0,0.0,0.0,0.0,0.0,0.0,0.0,0.0,0.0,0.0,0.0,0.0,0.0,0.0,0.0,0.0,0.0,0.0,0.0,0.0,0.0,0.0,0.0,0.0,0.0,0.0,0.0,0.0,0.0,0.0,0.0,0.0,0.0,0.0,0.0,0.0,0.0,0.0,0.0,0.0,0.0,0.0,0.689,0.5528,0.4325,0.3224,0.2119,0.1617,0.1617,0.1639,0.0,0.0,0.0,0.0,0.0,0.0,0.0,0.0,0.0,0.0,0.0,0.0,0.0,0.0,0.0,0.0,0.0,0.0,0.0,0.0,0.0,0.0,0.0,0.0,0.0,0.0,0.0,0.5161,0.0,0.0,0.0,0.0,0.0,0.0,0.0,0.0,0.0,0.0,0.0,0.0,0.0,0.0,0.0,0.0,0.0,0.0,0.0,0.0,-0.2817,-0.6466,-0.7011,-0.5911,0.0,0.0,0.0,0.0,0.0,0.0,0.0,0.0,0.0,0.0,0.0,0.0,0.0,0.0,0.0,0.0,0.0,0.0,0.0,0.0,0.0,0.0,0.0,0.0,0.0,0.0,0.0,0.0,0.0,0.0,0.0,0.0,0.0,0.0,0.0,0.0,0.0,0.0,0.0,0.0,0.0,0.0,0.0,0.0,0.0,0.0,0.0,0.0,0.0,0.0,0.0,0.0,0.0,0.0,0.7951,0.6887,0.553,0.4225,0.3224,0.212,0.1617,0.1617,0.1619,0.1646,0.0,0.0,0.0,0.0,0.0,0.0,0.0,0.0,0.0,0.0,0.0,0.0,0.0,0.0,0.0,0.0,0.0,0.0,0.0,0.0,0.0,0.0,0.0,0.0,0.0,0.0,0.0,0.0,0.0,0.0,0.0,0.0,0.0,0.0,0.0,0.0,0.0,0.0,0.0,0.0,0.0,0.0,0.0,0.0,0.0,0.0,-0.3392,-0.615,-0.637,-0.6669,-0.6778,-0.6686,0.0,0.0,0.0,0.0,0.0,0.0,0.0,0.0,0.0,0.0,0.0,0.0,0.0,0.0,0.0,0.0,0.0,0.0,0.0,0.0,0.0,0.0,0.0,0.0,0.0,0.0,0.0,0.0,0.0,0.0,0.0,0.0,0.0,0.0,0.0,0.0,0.0,0.0,0.0,0.0,0.0,0.0,0.0,0.0,0.0,0.0,0.0,0.0,0.0,0.0,0.0,0.0,0.0,0.7635,0.5941,0.5222,0.3924,0.2321,0.1818,0.1617,0.1617,0.1111,0.0817,0.0,0.0,0.0,0.0,0.0,0.0,0.0,0.0,0.0,0.0,0.0,0.0,0.0,0.0,0.0,0.0,0.0,0.0,0.0,0.0,0.0,0.0,0.0,0.0,0.0,0.0,0.0,0.0,0.6458,0.6445,0.6437,0.0,0.0,0.0,0.0,0.0,0.0,0.0,0.0,0.0,0.0,0.0,0.0,0.0,0.0,0.0,-0.3659,-0.6374,-0.6432,-0.6578,-0.6779,-0.6877,-0.4259,0.0,0.0,0.0,0.0,0.0,0.0,0.0,0.0,0.0,0.0,0.0,0.0,0.0,0.0,0.0,0.0,0.0,0.0,0.0,0.0,0.0,0.0,0.0,0.0,0.0,0.0,0.0,0.0,0.0,0.0,0.0,0.0,0.0,0.0,0.0,0.0,0.0,0.0,0.0,0.0,0.0,0.0,0.0,0.0,0.0,0.0,0.0,0.0,0.0,0.0,0.0,0.0,0.7425,0.5309,0.4918,0.3723,0.1617,0.1617,0.1617,0.1617,0.0808,0.0102,0.0,0.0,0.0,0.0,0.0,0.0,0.0,0.0,0.0,0.0,0.0,0.0,0.0,0.0,0.0,0.0,0.0,0.0,0.0,0.0,0.0,0.0,0.0,0.0,0.0,0.0,0.0,0.0,0.645,0.6437,0.6437,0.0,0.0,0.0,0.0,0.0,0.0,0.0,0.0,0.0,0.0,0.0,0.0,0.0,0.0,0.0,-0.3636,-0.6406,-0.6369,-0.6479,-0.6649,-0.6648,0.0,0.0,0.0,0.0,0.0,0.0,0.0,0.0,0.0,0.0,0.0,0.0,0.0,0.0,0.0,0.0,0.0,0.0,0.0,0.0,0.0,0.0,0.0,0.0,0.0,0.0,0.0,1.7582,0.0,0.0,1.9206,0.0,0.0,0.0,0.0,0.0,0.0,0.0,0.0,0.0,0.0,0.0,0.0,0.0,0.0,0.0,0.0,0.0,0.0,0.0,0.0,0.0,0.0,0.7425,0.5307,0.4916,0.3723,0.1717,0.1617,0.1617,0.1617,0.0808,-0.0204,-0.1554,0.0,0.0,0.0,0.0,0.0,0.0,0.0,0.0,0.0,0.0,0.0,0.0,0.0,0.0,0.0,0.0,0.0,0.0,0.0,0.0,0.0,0.0,0.0,0.0,0.0,0.0,0.6364,0.6448,0.6437,0.0,0.0,0.0,0.0,0.0,0.0,0.0,0.0,0.0,0.3528,0.1311,0.0,0.0,0.0,0.0,0.0,-0.3633,-0.6377,-0.6382,-0.6361,-0.6382,0.0,0.0,0.0,0.0,0.0,0.0,0.0,0.0,0.0,0.0,0.0,0.0,0.0,0.0,0.0,0.0,0.0,0.0,0.0,0.0,0.0,0.0,0.0,0.0,0.0,0.0,0.0,1.7094,1.7371,0.0,0.0,0.0,0.0,0.0,0.0,0.0,0.0,0.0,0.0,0.0,2.0213,2.0331,0.0,0.0,0.0,0.0,0.0,0.0,0.0,0.0,0.0,0.0,0.0,0.0,0.7425,0.5406,0.4916,0.3725,0.1717,0.1617,0.1617,0.1617,0.0303,-0.1119,-0.2696,0.0,0.0,0.0,0.0,0.0,0.0,0.0,0.0,0.0,0.0,0.0,0.0,0.0,0.0,0.0,0.0,0.0,0.0,0.0,0.0,0.0,0.0,0.0,0.0,0.0,0.6458,0.0,0.0,0.0,0.0,0.0,0.0,0.0,0.0,0.0,0.0,0.6361,0.556,0.3428,0.1311,0.0,0.0,0.0,0.0,0.0,0.0,0.0,0.0,0.0,0.0,0.0,0.0,0.0,0.0,0.0,0.0,0.0,-0.5897,-0.4815,-0.4819,-0.2239,0.0,0.0,0.0,0.0,0.0,0.0,0.0,0.0,0.0,0.0,0.0,0.0,0.0,0.0,0.0,0.0,1.7889,1.8168,1.8476,0.0,0.0,0.0,0.0,0.0,0.0,0.0,0.0,2.05,2.0449,2.0677,2.0677,1.9743,1.8022,1.8319,1.7316,0.0,0.0,0.0,0.0,0.0,0.0,0.0,0.0,0.7401,0.5361,0.4902,0.3723,0.1717,0.1617,0.1617,0.1516,0.0,-0.1622,-0.3186,-0.3309,-0.3358,0.0,0.0,0.0,0.0,0.0,0.0,0.0,0.0,0.0,0.0,0.0,0.0,0.0,0.0,0.0,0.0,0.0,0.0,0.0,0.0,0.0,0.0,0.0,0.6458,0.0,0.0,0.0,0.0,0.0,0.0,0.0,0.0,0.0,0.6437,0.6361,0.556,0.3428,0.1311,0.0,0.0,0.0,0.0,0.0,0.0,0.0,0.0,0.0,-0.6364,-0.6447,-0.646,-0.64,-0.6419,-0.4053,-0.3339,-0.6606,0.0,0.0,-0.7182,-0.4706,-0.2239,-0.1454,-0.1231,-0.2464,-0.6405,-0.7198,-0.7198,0.0,0.0,0.0,0.0,1.9185,0.0,0.0,0.0,1.99,1.9707,0.0,2.0707,0.0,0.0,0.0,0.0,2.2034,2.2307,0.0,0.0,2.0497,2.03,2.0292,2.03,1.9263,1.7483,1.8342,1.7377,1.4906,1.4956,0.0,0.0,0.0,0.0,0.0,0.0,0.7461,0.5169,0.4873,0.3723,0.1717,0.1617,0.1516,0.1415,0.0,-0.1513,-0.3131,-0.3286,-0.3319,-0.3323,-0.3962,0.0,0.0,0.0,0.0,0.0,0.0,0.0,0.0,0.0,0.0,0.0,0.0,0.0,0.0,0.0,0.0,0.0,0.0,0.0,0.0,0.6268,0.0,0.0,0.0,0.0,0.0,0.0,0.0,0.0,0.0,0.6437,0.6437,0.6358,0.566,0.3528,0.0,0.0,0.0,0.0,-0.1513,-0.5672,-0.6374,-0.6361,-0.6361,-0.645,-0.6437,-0.6439,0.0,0.0,-0.6398,-0.6401,-0.6479,-0.7026,-0.7121,-0.713,-0.7143,-0.7062,-0.6286,-0.4142,-0.3692,-0.4479,-0.6614,-0.7184,-0.7176,2.0585,0.0,0.0,0.0,0.0,2.0297,2.0206,2.021,1.9458,1.9241,1.9479,1.9868,0.0,0.0,0.0,0.0,0.0,0.0,2.1466,2.0874,2.0517,2.0322,2.0292,2.0292,1.9629,1.8411,1.7948,1.6965,1.546,1.4874,1.4859,1.5603,0.0,0.0,0.0,0.0,0.7267,0.5268,0.4871,0.3723,0.1617,0.1617,0.1009,-0.0101,-0.0504,-0.1513,-0.313,-0.3247,-0.3277,-0.332,-0.3562,0.0,0.0,0.0,0.0,0.0,0.0,0.0,0.0,0.0,0.0,0.0,0.0,0.0,0.0,0.0,0.0,0.0,0.0,0.0,0.4738,0.3052,0.3057,0.0,0.0,0.0,0.0,0.0,0.0,0.0,0.0,0.0,0.6437,0.6361,0.556,0.0,0.0,0.0,0.0,0.0,-0.151,-0.5768,-0.6361,0.0,-0.6442,-0.6439,-0.6437,-0.6437,-0.6437,-0.645,-0.6385,-0.6384,-0.6463,-0.657,-0.6666,-0.6653,-0.691,-0.7065,-0.6948,-0.6279,-0.617,-0.6398,-0.6956,-0.7182,-0.7176,2.0702,2.0845,2.0883,2.0959,2.098,2.0752,2.0566,2.0246,1.9679,1.957,1.9783,1.9783,2.027,2.1199,2.1199,0.0,0.0,0.0,2.0857,2.0651,2.0407,2.0297,2.03,2.0292,1.982,1.8788,1.8133,1.7196,1.5798,1.514,1.4979,1.5167,0.0,1.3162,1.1944,0.9476,0.7103,0.5112,0.4853,0.3725,0.1617,0.1617,0.0808,-0.0706,-0.0605,-0.1311,-0.313,-0.323,-0.3248,-0.3283,-0.3308,-0.3562,0.0,0.0,0.0,0.0,0.0,0.0,0.0,0.0,0.0,0.0,0.0,0.0,0.0,0.0,0.0,0.0,0.0,0.0706,0.2417,0.2543,0.0,0.0,0.0,0.0,0.0,0.0,0.0,0.6437,0.6437,0.6437,0.6437,0.6361,0.556,0.3528,0.1311,0.0,0.0,0.0,-0.1509,-0.5763,-0.6456,-0.6437,-0.6437,-0.6437,-0.6437,-0.6437,-0.6437,-0.6437,-0.6439,-0.6398,-0.6441,-0.6457,-0.6437,-0.6412,-0.6623,-0.6786,-0.6939,-0.7095,-0.7146,-0.7176,-0.7171,-0.7173,-0.7168,2.0826,2.0654,2.0382,2.0292,2.0292,2.0292,2.0292,2.0292,2.0292,2.0292,2.0292,2.0292,2.0489,2.0831,2.0831,0.0,2.0814,2.0454,2.03,2.0292,2.0292,2.0292,2.0292,2.0292,1.982,1.8796,1.8688,1.7669,1.5886,1.5697,1.5377,1.4684,1.4965,1.3847,1.1582,0.9252,0.6949,0.4926,0.4824,0.3725,0.1617,0.1617,0.0808,-0.0706,-0.0302,-0.1008,-0.313,-0.323,-0.323,-0.3233,-0.3283,-0.3318,-0.3324,0.0,0.0,0.0,0.0,0.0,0.0,0.0,0.0,0.0,0.0,0.0,0.0,0.0,0.0,0.0,0.0,0.0,0.0,0.3542,0.0,0.0,0.0,0.6366,0.6439,0.6437,0.6437,0.6437,0.0,0.0,0.6439,0.6361,0.5663,0.3731,0.1513,0.0,0.0,0.0,-0.1509,-0.5763,-0.6456,-0.6437,-0.6437,-0.6437,-0.6437,-0.6437,-0.6437,-0.6437,-0.6437,-0.6439,-0.6439,-0.6445,-0.6425,-0.6398,-0.6395,-0.6393,-0.65,-0.6931,-0.704,-0.7122,-0.7111,-0.7122,-0.7241,2.0654,2.0382,2.0292,2.0292,2.0292,2.0292,2.0292,2.0292,2.0292,2.0292,2.0292,2.0292,2.0343,2.0429,2.0429,2.0429,2.0429,2.0335,2.0292,2.0292,2.0292,2.0292,2.0292,2.0292,1.982,1.8788,1.8041,1.7016,1.5798,1.5051,1.452,1.4407,1.4466,1.3556,1.1568,0.9241,0.7369,0.6034,0.5227,0.3725,0.1718,0.1617,0.0808,-0.0706,-0.0302,-0.1008,-0.313,-0.323,-0.323,-0.323,-0.3244,-0.3274,-0.332,-0.3391,0.0,0.0,0.0,0.0,0.0,0.0,0.0,0.0,0.0,0.0,0.0,0.0,0.0,0.0,0.0,0.0,0.0,0.0919,0.0,0.0,0.6444,0.6455,0.6366,0.6448,0.6437,0.6437,0.6437,0.6439,0.6456,0.6369,0.6173,0.5667,0.2323,0.0,0.0,0.0,-0.1509,-0.5454,-0.6453,-0.6437,-0.6437,-0.6437,-0.6437,-0.6437,-0.6437,-0.6437,-0.6437,-0.6437,-0.6437,-0.6437,-0.6456,-0.638,-0.6382,-0.6374,-0.6453,-0.6709,-0.6804,-0.6885,-0.6885,-0.7069,-0.7245,2.0835,2.0645,2.0564,2.0382,2.0292,2.0292,2.0292,2.0292,2.0292,2.0292,2.0292,2.0292,2.0292,2.0292,2.0292,2.0292,2.0292,2.0292,2.0292,2.0292,2.0292,2.0292,2.0292,2.0292,1.982,1.8788,1.7762,1.6734,1.5792,1.4771,1.4298,1.4304,1.4358,1.3335,1.1439,0.9164,0.7437,0.6437,0.4926,0.3324,0.1717,0.1617,0.101,-0.0202,-0.0302,-0.1109,-0.2623,-0.3052,-0.3271,-0.3271,-0.3297,-0.3315,-0.3323,-0.3379,-0.3414,0.0,0.0,0.0,0.0,0.0,0.0,0.0,0.0,0.0,0.0,0.0,0.0,0.0,0.0,0.0,0.0,0.0,0.0918,0.3332,0.3558,0.4277,0.6168,0.6456,0.6445,0.6437,0.6442,0.645,0.6361,0.6374,0.6385,0.639,0.2727,0.0,0.0,-0.1512,-0.3731,-0.5967,-0.6453,-0.6437,-0.6437,-0.6437,-0.6437,-0.6437,-0.6437,-0.6437,-0.6437,-0.6437,-0.6437,-0.6437,-0.6437,-0.6437,-0.6439,-0.6385,-0.6433,-0.6444,-0.6592,-0.6676,-0.6779,-0.6965,-0.7014,2.1203,2.0988,2.0826,2.0564,2.0275,2.0292,2.0292,2.0292,2.0292,2.0292,2.0292,2.0292,2.0292,2.0292,2.0292,2.0292,2.0292,2.0292,2.0292,2.0292,2.0292,2.0292,2.0292,2.0292,1.9729,1.8603,1.7762,1.6727,1.5609,1.4765,1.4298,1.4304,1.4346,1.3258,1.1179,0.911,0.7431,0.6234,0.4327,0.2822,0.1617,0.1617,0.1212,0.0404,-0.0202,-0.1009,-0.2024,-0.2874,-0.3313,-0.3323,-0.3365,-0.3365,-0.3315,-0.3368,-0.3377,0.0,-0.3904,0.0,0.0,0.0,0.0,0.0,0.0,0.0,0.0,0.0,0.0,0.0,0.0,0.0,0.0,0.0,0.0,0.0,0.0,0.151,0.5041,0.6055,0.6456,0.6439,0.6453,0.6361,0.5957,0.6176,0.639,0.6083,0.2727,0.0,0.0,-0.3534,-0.6173,-0.638,-0.6453,-0.6437,-0.6437,-0.6437,-0.6437,-0.6437,-0.6437,-0.6437,-0.6437,-0.6437,-0.6437,-0.6437,-0.6437,-0.6437,-0.6437,-0.6439,-0.6439,-0.6445,-0.6453,-0.6518,-0.6687,-0.676,-0.6779,2.1293,2.0988,2.0826,2.0538,2.0322,2.0275,2.0292,2.0292,2.0292,2.0292,2.0292,2.0292,2.0292,2.0292,2.0292,2.0292,2.0292,2.0292,2.0292,2.0292,2.0292,2.0292,2.0292,2.0292,1.9355,1.7662,1.7382,1.6358,1.458,1.4388,1.4298,1.4298,1.4292,1.3311,1.1175,0.0,0.0,0.0,0.4726,0.3525,0.1718,0.1617,0.1212,0.0404,0.0908,0.0,-0.1957,-0.2859,-0.3271,-0.3318,-0.3285,0.0,0.0,0.0,0.0,0.0,0.0,0.0,0.0,0.0,0.0,0.0,-0.5832,-0.3747,0.0,0.0,0.0,0.0,0.0,0.0,0.0,0.0,0.0,0.0,0.0,0.0302,0.1207,0.4321,0.6439,0.6437,0.6453,0.5754,0.4234,0.5258,0.6292,0.5989,0.273,0.0,0.0,-0.3537,-0.6178,-0.6377,-0.6453,-0.6437,-0.6437,-0.6437,-0.6437,-0.6437,-0.6437,-0.6437,-0.6437,-0.6437,-0.6437,-0.6437,-0.6437,-0.6437,-0.6437,-0.6437,-0.6437,-0.6437,-0.6437,-0.645,-0.6499,-0.6481,-0.6445,2.1096,2.0997,2.0736,2.0538,0.0,2.0447,2.0456,2.0257,2.0275,2.0292,2.0292,2.0292,2.0292,2.0292,2.0292,2.0292,2.0292,2.0292,2.0292,2.0292,2.0292,2.0292,2.0292,1.9812,1.8788,1.7296,1.6828,1.5798,1.4394,1.4298,1.4298,1.4298,1.428,1.3294,1.1175,0.9095,0.6913,0.4824,0.4824,0.3725,0.1717,0.1617,0.1415,0.101,0.1414,0.0,0.0,0.0,0.0,0.0,0.0,0.0,0.0,-0.3305,0.0,-0.3279,-0.3613,-0.384,-0.4148,-0.4667,-0.5268,-0.5734,-0.4193,-0.2352,-0.0102,0.0,0.0,0.0,0.0,0.0,0.0,0.0,0.0,0.0,0.0,0.0704,0.292,0.5035,0.6348,0.6439,0.6458,0.5555,0.3527,0.3027,0.3234,0.3136,0.0,0.0,0.0,-0.1817,-0.3835,-0.5962,-0.6453,-0.6437,-0.6437,-0.6437,-0.6437,-0.6437,-0.6437,-0.6437,-0.6437,-0.6437,-0.6437,-0.6437,-0.6437,-0.6437,-0.6437,-0.6437,-0.6437,-0.6437,-0.6437,-0.6437,-0.6439,-0.6385,-0.6428,2.1096,2.0997,2.0835,2.0645,2.0538,2.0637,2.0538,2.0322,2.0275,0.0,0.0,2.0292,2.0292,2.0292,2.0292,2.0292,2.0292,2.0292,2.0292,2.0292,2.0292,2.0192,2.0011,1.9163,1.8226,1.7008,1.617,1.5324,1.4298,1.4298,1.4298,1.4304,1.4268,1.3072,1.0658,0.8913,0.7033,0.5227,0.4924,0.3823,0.1918,0.1718,0.1617,0.1617,0.1617,0.091,-0.0608,-0.2359,-0.3311,-0.3113,-0.3252,-0.3357,-0.3309,-0.3305,-0.3282,-0.3236,-0.323,-0.343,-0.3833,-0.3428,-0.3527,-0.4433,-0.1712,0.0,0.0,0.0,0.0,0.0,0.0,0.0,0.0,0.0,0.0,0.0,0.0,0.1713,0.566,0.6369,0.6456,0.6442,0.6358,0.556,0.3426,0.1412,0.0,0.0,0.0,0.0,0.0,0.0,-0.1914,-0.555,-0.645,-0.6437,-0.6437,-0.6437,-0.6437,-0.6437,-0.6437,-0.6437,-0.6437,-0.6437,-0.6437,-0.6437,-0.6437,-0.6437,-0.6437,-0.6437,-0.6437,-0.6437,-0.6437,-0.6437,-0.6437,-0.6437,-0.6442,2.1302,2.1293,2.0835,2.0995,2.1446,2.0698,2.0283,2.0283,2.0292,2.0292,2.0292,2.0292,2.0292,2.0292,2.0292,2.0292,2.0292,2.0292,2.0292,2.0292,2.0292,1.982,1.898,1.888,1.7855,1.6075,1.5893,1.5235,1.4394,1.4298,1.4298,1.4298,1.431,1.2292,0.8709,0.8195,0.7437,0.6134,0.5227,0.4225,0.3024,0.2019,0.1617,0.1617,0.1617,0.1119,0.0206,-0.204,-0.296,-0.2278,-0.2869,-0.3252,-0.3244,-0.3245,-0.3238,-0.3232,-0.323,-0.3232,-0.3331,-0.3229,-0.323,-0.333,-0.131,0.0,0.0,0.0,0.0,0.0,0.0,0.0,0.0,0.0,0.0,0.0,0.0,0.0,0.5663,0.6369,0.6458,0.6439,0.6358,0.556,0.3428,0.1311,0.0,0.0,0.0,0.0,0.0,0.0,0.0,-0.5249,-0.6453,-0.6439,-0.6437,-0.6437,-0.6437,-0.6437,-0.6437,-0.6437,-0.6437,-0.6437,-0.6437,-0.6437,-0.6437,-0.6437,-0.6437,-0.6437,-0.6437,-0.6437,-0.6437,-0.6437,-0.6437,-0.6437,-0.6437,2.1434,2.0942,2.0914,2.0887,2.0893,2.049,2.0266,2.0292,2.0292,2.0292,2.0292,2.0292,2.0292,2.0292,2.0292,2.0292,2.0292,2.0286,1.9995,1.9446,1.888,1.8419,1.7948,1.7483,1.6734,1.5798,1.5235,1.4765,1.4298,1.4298,1.4298,1.4202,1.3221,1.1025,0.8241,0.8004,0.7739,0.7238,0.5627,0.4325,0.3224,0.2119,0.1617,0.1617,0.1617,0.1217,0.0409,-0.0304,-0.0811,-0.1429,-0.2128,-0.2522,-0.2522,-0.2928,-0.323,-0.323,-0.323,-0.323,-0.323,-0.323,-0.323,-0.313,-0.2321,-0.121,0.0,0.0,0.0,0.0,0.0,0.0,0.0,0.0,0.0,0.0,0.0,0.0,0.2719,0.5144,0.6358,0.6442,0.6361,0.556,0.3428,0.1311,0.0,0.0,0.0,0.0,0.0,0.0,-0.1511,-0.5454,-0.6453,-0.6439,-0.6437,-0.6437,-0.6437,-0.6437,-0.6437,-0.6437,-0.6437,-0.6437,-0.6437,-0.6437,-0.6437,-0.6437,-0.6437,-0.6437,-0.6437,-0.6437,-0.6437,-0.6437,-0.6437,-0.6437,-0.6437,2.1724,2.1027,2.1204,2.0989,2.0606,2.0408,2.0257,2.0292,2.0292,2.0201,2.0011,2.0192,2.0292,2.0283,2.0102,1.992,1.9945,2.0213,1.9627,1.8419,1.723,1.6764,1.6821,1.617,1.5704,1.5425,1.4669,1.4298,1.4298,1.4298,1.431,1.4022,1.1955,0.9874,0.8069,0.8018,0.8038,0.7839,0.5929,0.4425,0.3524,0.2321,0.1617,0.1617,0.1617,0.1313,0.0707,0.1212,0.0909,-0.0403,-0.1311,-0.1816,-0.2017,-0.2623,-0.3029,-0.313,-0.323,-0.323,-0.323,-0.323,-0.3029,-0.2725,-0.3029,-0.2423,-0.0606,-0.0101,0.0,0.0,0.0,0.0,0.0,0.0,0.0,0.0,0.0,0.0,0.0,0.3827,0.6361,0.6448,0.6361,0.5763,0.3935,0.1614,0.0,0.0,0.0,0.0,0.0,0.0,0.0,-0.4947,-0.6458,-0.6442,-0.6439,-0.6437,-0.6437,-0.6437,-0.6437,-0.6437,-0.6437,-0.6437,-0.6437,-0.6437,-0.6437,-0.6437,-0.6437,-0.6437,-0.6437,-0.6437,-0.6437,-0.6437,-0.6437,-0.6437,-0.6437,2.2398,2.2398,2.2043,2.1799,2.1331,2.0563,2.0226,2.0317,2.0292,1.9729,1.9188,1.9911,2.0283,2.0192,1.9355,1.8972,1.9096,1.9851,1.9252,1.7375,1.5465,1.5023,1.588,1.5798,1.5324,1.458,1.4394,1.4298,1.4298,1.4292,1.4238,1.3893,1.1296,0.9193,0.8079,0.8018,0.8038,0.7939,0.5927,0.4724,0.4524,0.2622,0.1617,0.1617,0.1617,0.1617,0.1415,0.1516,0.1212,0.0303,-0.0504,-0.121,-0.1917,-0.2017,-0.2422,-0.313,-0.323,-0.323,-0.323,-0.323,-0.2623,-0.1311,-0.2321,-0.2625,-0.1516,-0.0505,0.0,0.0,0.0,0.0,0.0,0.0,0.0,0.0,0.0,0.0,0.0,0.3831,0.6372,0.6361,0.6372,0.6276,0.5567,0.2425,0.0,0.0,0.0,0.0,0.0,0.0,0.0,-0.4853,-0.6372,-0.6456,-0.6445,-0.6437,-0.6439,-0.6439,-0.6437,-0.6437,-0.6437,-0.6437,-0.6437,-0.6437,-0.6437,-0.6437,-0.6437,-0.6437,-0.6437,-0.6437,-0.6437,-0.6437,-0.6437,-0.6437,-0.6437,2.1413,2.0418,2.0403,2.0611,2.0649,1.9495,1.9733,2.0899,1.9984,1.9767,2.0029,2.0203,2.0011,1.9355,1.8326,1.8226,1.8804,1.8637,1.7769,1.6358,1.4943,1.4481,1.4848,1.4949,1.4675,1.4298,1.4298,1.4298,1.4196,1.3709,1.3039,1.2381,1.0498,0.911,0.8113,0.8031,0.8038,0.7939,0.6531,0.5427,0.4624,0.2722,0.1617,0.1617,0.1617,0.1617,0.1617,0.1617,0.1415,0.1111,0.0303,-0.0202,-0.0606,-0.1513,-0.1917,-0.1917,-0.2725,-0.323,-0.323,-0.323,-0.2118,0.0403,0.0,-0.0606,-0.1516,-0.0606,0.0,0.0,0.0,0.0,0.0,0.0,0.0,0.0,0.0,0.0,0.0,0.3734,0.6382,0.6374,0.638,0.6385,0.5775,0.2626,0.0,0.0,0.0,0.0,0.0,0.0,0.0,-0.2422,-0.4647,-0.6271,-0.6358,-0.6456,-0.6353,-0.635,-0.6445,-0.6437,-0.6437,-0.6437,-0.6437,-0.6437,-0.6437,-0.6437,-0.6437,-0.6437,-0.6437,-0.6437,-0.6437,-0.6437,-0.6437,-0.6437,-0.6437,2.1694,2.0332,1.9909,2.0035,2.0327,1.8981,1.9259,2.0638,2.0093,1.9947,2.0128,1.9865,1.9119,1.8092,1.7535,1.7762,1.8149,1.7029,1.6075,1.533,1.458,1.4298,1.4298,1.4298,1.4298,1.4298,1.4298,1.4298,1.4106,1.2926,1.195,1.1072,0.9805,0.8825,0.8038,0.8038,0.8038,0.7939,0.6936,0.5932,0.4726,0.3024,0.1918,0.1617,0.1617,0.1617,0.1617,0.1617,0.1617,0.1617,0.101,0.0606,0.0404,-0.0706,-0.121,-0.0907,-0.1917,-0.2725,-0.313,-0.323,-0.1816,0.111,0.1616,0.101,-0.0202,-0.0303,0.0,0.0,0.0,0.0,0.0,0.0,0.0,0.0,0.0,0.0,0.0,0.3029,0.4958,0.6075,0.6385,0.5778,0.4554,0.0,0.0,0.0,0.0,0.0,0.0,0.0,0.0,0.0,0.0,-0.4551,-0.5356,-0.5651,-0.5851,-0.6358,-0.6448,-0.6437,-0.6437,-0.6437,-0.6437,-0.6437,-0.6437,-0.6437,-0.6437,-0.6437,-0.6437,-0.6437,-0.6437,-0.6437,-0.6437,-0.6437,-0.6437,2.4026,2.3538,2.1708,2.0777,2.0752,1.9517,1.9174,1.9501,2.0603,2.0208,1.8641,1.8498,1.7659,1.6614,1.7013,1.7304,1.7109,1.5432,1.4592,1.4484,1.4394,1.4298,1.4298,1.4298,1.4298,1.4298,1.4298,1.4298,1.4202,1.2339,1.1268,1.1072,0.9213,0.8038,0.8038,0.8038,0.8038,0.7839,0.7039,0.5932,0.4826,0.3723,0.2622,0.1717,0.1617,0.1617,0.1617,0.1617,0.1617,0.1617,0.1516,0.1212,0.0505,0.0303,-0.0,-0.0706,-0.0907,-0.1613,-0.2826,-0.3029,-0.1716,0.101,0.1617,0.1516,0.1212,0.0505,0.0,0.0,0.0,0.0,0.0,0.0,0.0,0.0,0.0,0.0,0.0,0.0,0.0,0.5058,0.5775,0.4452,0.101,0.0202,0.0,0.0,0.0,0.0,0.0,0.0,0.0,0.0,0.0,-0.111,-0.3024,-0.4131,-0.5039,-0.5949,-0.645,-0.6437,-0.6437,-0.6437,-0.6437,-0.6437,-0.6437,-0.6437,-0.6437,-0.6437,-0.6437,-0.6437,-0.6437,-0.6437,-0.6437,-0.6437,-0.6437,2.0554,2.0055,2.0648,2.0071,1.8669,1.7537,1.7839,1.9184,1.8686,1.8569,1.8533,1.8265,1.7915,1.7408,1.7009,1.6636,1.6197,1.4956,1.4298,1.4298,1.4298,1.4298,1.4298,1.4298,1.4298,1.4298,1.4298,1.4298,1.4106,1.2242,1.117,1.0881,0.9023,0.8038,0.8038,0.8038,0.8038,0.7939,0.7537,0.6631,0.4924,0.4425,0.3423,0.1717,0.1617,0.1617,0.1617,0.1617,0.1617,0.1617,0.1617,0.1516,0.1212,0.1111,0.0606,-0.0605,-0.0303,-0.0504,-0.1513,-0.1716,-0.0707,0.1212,0.1617,0.1617,0.1516,0.101,0.0505,0.0,0.0,0.0,0.0,0.0,0.0,0.0,0.0,0.0,0.0,0.0,0.0707,0.1919,0.2323,0.1515,0.0,0.0,0.0,0.0,0.0,0.0,0.0,0.0,0.0,0.0,0.0,-0.1212,-0.4861,-0.4137,-0.413,-0.5644,-0.645,-0.6442,-0.6437,-0.6437,-0.6437,-0.6437,-0.6437,-0.6437,-0.6437,-0.6437,-0.6437,-0.6437,-0.6437,-0.6437,-0.6437,-0.6437,-0.6437,1.9332,1.8966,2.0264,2.0076,1.8548,1.666,1.6759,1.8122,1.7888,1.7984,1.8249,1.8072,1.7736,1.7244,1.6531,1.5976,1.5544,1.4844,1.4515,1.4437,1.4431,1.4383,1.4304,1.4298,1.4298,1.4298,1.4298,1.4298,1.41,1.2247,1.1268,1.1072,0.9019,0.8038,0.8038,0.8038,0.8038,0.8038,0.8038,0.6933,0.5125,0.4824,0.3725,0.1918,0.1617,0.1617,0.1617,0.1617,0.1617,0.1617,0.1617,0.1617,0.1617,0.1617,0.1111,0.0202,0.0505,0.0606,0.0101,-0.0,0.0404,0.1415,0.1617,0.1617,0.1617,0.1414,0.101,0.0606,0.0,0.0,0.0,0.0,0.0,0.0,0.0,0.0,0.0,0.0,0.0,0.0,0.0,0.0,0.0,0.0,0.0,0.0,0.0,0.0,0.0,0.0,0.0,0.0,0.0,0.0,-0.303,-0.3024,-0.4135,-0.5653,-0.6348,-0.6439,-0.6437,-0.6437,-0.6437,-0.6437,-0.6437,-0.6437,-0.6437,-0.6437,-0.6437,-0.6437,-0.6437,-0.6437,-0.6437,-0.6437,-0.6437,2.0783,2.0601,2.0869,2.0539,1.9859,1.7252,1.5971,1.6447,1.8102,1.8248,1.7508,1.7528,1.6827,1.5848,1.5707,1.5451,1.5245,1.5113,1.4962,1.4838,1.4721,1.4588,1.4383,1.4389,1.4389,1.4383,1.434,1.434,1.4075,1.2319,1.1236,1.0815,0.9069,0.8089,0.8048,0.8062,0.8048,0.8041,0.8038,0.6933,0.5125,0.4824,0.3825,0.1919,0.1617,0.1617,0.1617,0.1617,0.1617,0.1617,0.1617,0.1617,0.1617,0.1617,0.1516,0.1415,0.1516,0.1516,0.1515,0.1414,0.1313,0.1617,0.1617,0.1617,0.1617,0.1617,0.1516,0.1313,0.0707,0.0,0.0,0.0,0.0,0.0,0.0,0.0,0.0,0.0,0.0,0.0,0.0,0.0,0.0,0.0,0.0,0.0,0.0,0.0,0.0,0.0,0.0,0.0,0.0,0.0,0.0,-0.1813,-0.3934,-0.5761,-0.6147,-0.6437,-0.6437,-0.6437,-0.6437,-0.6437,-0.6437,-0.6437,-0.6437,-0.6437,-0.6437,-0.6437,-0.6437,-0.6437,-0.6437,-0.6437,-0.6437,1.9332,1.8617,1.8667,1.8611,1.8422,1.7015,1.6218,1.6013,1.6704,1.673,1.6418,1.6418,1.6162,1.5889,1.5771,1.5716,1.5644,1.5638,1.5415,1.5052,1.4986,1.4938,1.4859,1.4847,1.4853,1.4853,1.4859,1.4442,1.3512,1.2299,1.1512,1.0919,0.9267,0.8286,0.8096,0.8093,0.8153,0.8048,0.8038,0.7235,0.5932,0.5127,0.4124,0.2822,0.2019,0.1617,0.1617,0.1617,0.1617,0.1617,0.1617,0.1617,0.1617,0.1617,0.1617,0.1617,0.1617,0.1617,0.1617,0.1617,0.1617,0.1617,0.1617,0.1617,0.1617,0.1617,0.1617,0.1617,0.1212,0.0909,0.0,0.0,0.0,0.0,0.0,0.0,0.0,0.0,0.0,0.0,0.0,0.0,0.0,0.0,0.0,0.0,0.0,0.0,0.0,0.0,0.0,0.0,0.0,0.0,0.0,-0.1814,-0.3934,-0.5555,-0.625,-0.6437,-0.6437,-0.6437,-0.6437,-0.6437,-0.6437,-0.6437,-0.6437,-0.6437,-0.6437,-0.6437,-0.6437,-0.6437,-0.6437,-0.6437,-0.6437,1.8199,1.7589,1.7589,1.7595,1.751,1.6948,1.6393,1.5949,1.5873,1.5885,1.5885,1.5885,1.5885,1.5885,1.5885,1.5885,1.5885,1.5885,1.571,1.5415,1.5282,1.5324,1.5352,1.5119,1.5113,1.5005,1.4695,1.4072,1.334,1.1897,1.1196,1.1015,0.9433,0.8438,0.8353,0.8343,0.8272,0.815,0.8126,0.7594,0.6445,0.5327,0.4323,0.3224,0.212,0.1617,0.1617,0.1617,0.1617,0.1617,0.1617,0.1617,0.1617,0.1617,0.1617,0.1617,0.1617,0.1617,0.1617,0.1617,0.1617,0.1617,0.1617,0.1617,0.1617,0.1617,0.1617,0.1617,0.1516,0.1313,0.0707,0.0,0.0,0.0,0.0,0.0,0.0,0.0,0.0,0.0,0.0,0.0,0.0,0.0,0.0,0.0,0.0,0.0,0.0,0.0,0.0,0.0,0.0,0.0,0.0,-0.1816,-0.3934,-0.5247,-0.6353,-0.6442,-0.6437,-0.6437,-0.6437,-0.6437,-0.6437,-0.6437,-0.6437,-0.6437,-0.6437,-0.6437,-0.6437,-0.6437,-0.6437,-0.6437,-0.6437,1.7681,1.7582,1.7589,1.7589,1.7477,1.6823,1.6262,1.5925,1.5861,1.5885,1.5885,1.5885,1.5885,1.5885,1.5885,1.5885,1.5885,1.5885,1.5879,1.5771,1.562,1.5646,1.5716,1.5372,1.5252,1.5119,1.4168,1.3523,1.3148,1.1372,1.0502,1.0893,0.941,0.8615,0.8716,0.8604,0.8425,0.8303,0.8269,0.768,0.6662,0.5532,0.4425,0.3425,0.2422,0.1717,0.1617,0.1617,0.1617,0.1617,0.1617,0.1617,0.1617,0.1617,0.1617,0.1617,0.1617,0.1617,0.1617,0.1617,0.1617,0.1617,0.1617,0.1617,0.1617,0.1617,0.1516,0.1415,0.1414,0.1414,0.1111,0.0606,0.0,0.0,0.0,0.0,0.0,0.0,0.0,0.0,0.0,0.0,0.0,0.0,0.0,0.0,0.0,0.0,0.0,0.0,0.0,0.0,0.0,0.0,0.0,-0.1815,-0.3932,-0.5553,-0.6456,-0.6442,-0.6437,-0.6437,-0.6437,-0.6437,-0.6437,-0.6437,-0.6437,-0.6437,-0.6437,-0.6437,-0.6437,-0.6437,-0.6437,-0.6437,-0.6437,1.8304,1.7582,1.7589,1.7589,1.7477,1.6823,1.6256,1.5919,1.5867,1.5891,1.5885,1.5885,1.5885,1.5885,1.5885,1.5885,1.5885,1.5885,1.5885,1.5879,1.5831,1.587,1.5921,1.5791,1.5668,1.5551,1.4462,1.3545,1.2573,1.1254,1.0305,0.9588,0.9229,0.8862,0.8894,0.8759,0.8567,0.8431,0.8319,0.816,0.769,0.6575,0.5429,0.4423,0.3324,0.2422,0.1717,0.1617,0.1617,0.1617,0.1617,0.1617,0.1617,0.1617,0.1617,0.1617,0.1617,0.1617,0.1617,0.1617,0.1617,0.1617,0.1617,0.1617,0.1617,0.1617,0.1414,0.1111,0.0707,0.0,0.0,0.0,0.0,0.0,0.0,0.0,0.0,0.0,0.0,0.0,0.0,0.0,0.0,0.0,0.0,0.0,0.0,0.0,0.0,0.0,0.0,0.0,0.0,0.0,0.0,0.0,-0.383,-0.5658,-0.6358,-0.6439,-0.6437,-0.6437,-0.6437,-0.6437,-0.6437,-0.6437,-0.6437,-0.6437,-0.6437,-0.6437,-0.6437,-0.6437,-0.6437,-0.6437,-0.6437,1.8199,1.7589,1.7589,1.7589,1.7582,1.7047,1.648,1.6031,1.608,1.6004,1.5891,1.5885,1.5885,1.5885,1.5885,1.5885,1.5885,1.5885,1.5885,1.5885,1.5879,1.5873,1.5879,1.5885,1.5885,1.5779,1.4702,1.3609,1.2403,1.1214,1.0131,0.9144,0.8937,0.8889,0.8927,0.8804,0.873,0.8594,0.8486,0.8408,0.817,0.716,0.6279,0.524,0.4026,0.2723,0.1717,0.1617,0.1617,0.1617,0.1617,0.1617,0.1617,0.1617,0.1617,0.1617,0.1617,0.1617,0.1617,0.1617,0.1617,0.1617,0.1617,0.1617,0.1617,0.1617,0.1414,0.1212,0.0505,0.0,0.0,0.0,0.0,0.0,0.0,0.0,0.0,0.0,0.0,0.0,0.0,0.0,0.0,0.0,0.0,0.0,0.0,0.0,0.0,0.0,0.0,0.0,0.0,0.0,0.0,0.0,-0.4131,-0.5856,-0.6456,-0.6439,-0.6437,-0.6437,-0.6437,-0.6437,-0.6437,-0.6437,-0.6437,-0.6437,-0.6437,-0.6437,-0.6437,-0.6437,-0.6437,-0.6437,-0.6437,1.7589,1.7589,1.7589,1.7589,1.7589,1.7279,1.6717,1.615,1.6193,1.6111,1.5891,1.5885,1.5885,1.5885,1.5885,1.5885,1.5885,1.5885,1.5885,1.5885,1.5885,1.5885,1.5885,1.5885,1.5885,1.5672,1.4708,1.3619,1.2417,1.1214,1.0131,0.9154,0.8937,0.8937,0.891,0.8923,0.8859,0.8754,0.8682,0.8564,0.828,0.7455,0.6856,0.608,0.423,0.2723,0.1919,0.1617,0.1617,0.1617,0.1617,0.1617,0.1617,0.1617,0.1617,0.1617,0.1617,0.1617,0.1617,0.1617,0.1617,0.1617,0.1617,0.1617,0.1617,0.1617,0.1516,0.1516,0.0707,0.0,0.0,0.0,0.0,0.0,0.0,0.0,0.0,0.0,0.0,0.0,0.0,0.0,0.0,0.0,0.0,0.0,0.0,0.0,0.0,0.0,0.0,0.0,0.0,0.0,0.0,0.0,-0.5247,-0.6052,-0.6348,-0.6437,-0.6437,-0.6437,-0.6437,-0.6437,-0.6437,-0.6437,-0.6437,-0.6437,-0.6437,-0.6437,-0.6437,-0.6437,-0.6437,-0.6437,-0.6437,1.7589,1.7589,1.7589,1.7589,1.7582,1.7279,1.6948,1.6499,1.6311,1.6111,1.5998,1.5885,1.5885,1.5885,1.5885,1.5885,1.5885,1.5885,1.5885,1.5885,1.5885,1.5885,1.5885,1.5885,1.5885,1.5672,1.4708,1.3619,1.2417,1.1328,1.0135,0.9044,0.8937,0.8937,0.8937,0.8937,0.8927,0.8872,0.8781,0.8689,0.8574,0.8176,0.744,0.6556,0.4461,0.2825,0.1818,0.1617,0.1617,0.1617,0.1617,0.1617,0.1617,0.1617,0.1617,0.1617,0.1617,0.1617,0.1617,0.1617,0.1617,0.1617,0.1617,0.1617,0.1617,0.1617,0.1617,0.1516,0.1111,0.0606,0.0,0.0,0.0,0.0,0.0,0.0,0.0,0.0,0.0,0.0,0.0,0.0,0.0,0.0,0.0,0.0,0.0,0.0,0.0,0.0,0.0,0.0,0.0,-0.2121,-0.3736,-0.5151,-0.5749,-0.6044,-0.6239,-0.6437,-0.6437,-0.6437,-0.6437,-0.6437,-0.6437,-0.6437,-0.6437,-0.6437,-0.6437,-0.6437,-0.6437,-0.6437,-0.6437,-0.6437,-0.6437,1.7589,1.7589,1.7589,1.7589,1.7582,1.7279,1.7179,1.6967,1.6537,1.6217,1.6111,1.5998,1.5885,1.5885,1.5885,1.5885,1.5885,1.5885,1.5885,1.5885,1.5885,1.5885,1.5885,1.5885,1.5885,1.5785,1.5357,1.4159,1.263,1.1655,1.0676,0.9047,0.8937,0.8937,0.8937,0.8937,0.8937,0.8927,0.8866,0.8788,0.8682,0.8567,0.7852,0.673,0.5014,0.3561,0.2523,0.1818,0.1617,0.1617,0.1617,0.1617,0.1617,0.1617,0.1617,0.1617,0.1617,0.1617,0.1617,0.1617,0.1617,0.1617,0.1617,0.1617,0.1617,0.1617,0.1617,0.1516,0.1212,0.0,0.0,0.0,0.0,0.0,0.0,0.0,0.0,0.0,0.0,0.0,0.0,0.0,0.0,0.0,0.0,0.0,0.0,0.0,0.0,0.0,0.0,0.0,0.0,-0.2425,-0.4039,-0.5247,-0.6145,-0.6342,-0.6339,-0.6437,-0.6437,-0.6437,-0.6437,-0.6437,-0.6437,-0.6437,-0.6437,-0.6437,-0.6437,-0.6437,-0.6437,-0.6437,-0.6437,-0.6437,-0.6437,1.7589,1.7589,1.7589,1.7589,1.7589,1.7384,1.7285,1.7186,1.6649,1.6318,1.6217,1.5998,1.5885,1.5885,1.5885,1.5885,1.5885,1.5885,1.5885,1.5885,1.5885,1.5885,1.5885,1.5885,1.5885,1.5885,1.5779,1.4583,1.2955,1.22,1.1004,0.9265,0.8937,0.8937,0.8937,0.8937,0.8937,0.8933,0.8923,0.8876,0.8767,0.8703,0.8011,0.6793,0.5884,0.4513,0.3251,0.2429,0.1818,0.1617,0.1617,0.1617,0.1617,0.1617,0.1617,0.1617,0.1617,0.1617,0.1617,0.1617,0.1617,0.1617,0.1617,0.1617,0.1617,0.1617,0.1617,0.1414,0.101,0.0,0.0,0.0,0.0,0.0,0.0,0.0,0.0,0.0,0.0,0.0,0.0,0.0,0.0,0.0,0.0,0.0,0.0,0.0,0.0,0.0,0.0,0.0,0.0,-0.2929,-0.4748,-0.5454,-0.625,-0.6439,-0.6437,-0.6437,-0.6437,-0.6437,-0.6437,-0.6437,-0.6437,-0.6437,-0.6437,-0.6437,-0.6437,-0.6437,-0.6437,-0.6437,-0.6437,-0.6437,-0.6437,1.7589,1.7589,1.7589,1.7589,1.7582,1.7582,1.7035,1.6362,1.6511,1.6311,1.5998,1.5891,1.5885,1.5885,1.5885,1.5885,1.5885,1.5885,1.5885,1.5885,1.5885,1.5885,1.5885,1.5885,1.5885,1.5885,1.5779,1.4691,1.2955,1.2309,1.1114,0.9372,0.8937,0.8937,0.8937,0.8937,0.8937,0.8937,0.8937,0.8906,0.8866,0.8665,0.8217,0.7083,0.6586,0.5379,0.3802,0.3048,0.2521,0.1718,0.1617,0.1617,0.1617,0.1617,0.1617,0.1617,0.1617,0.1617,0.1617,0.1617,0.1617,0.1617,0.1617,0.1617,0.1617,0.1617,0.1617,0.1414,0.0909,0.0303,0.0606,0.0202,0.0,0.0,0.0,0.0,0.0,0.0,0.0,0.0,0.0,0.0,0.0,0.0,0.0,0.0,0.0,0.0,0.0,0.0,0.0,0.0,0.0,-0.2725,-0.5457,-0.5864,-0.6364,-0.6442,-0.6437,-0.6437,-0.6437,-0.6437,-0.6437,-0.6437,-0.6437,-0.6437,-0.6437,-0.6437,-0.6437,-0.6437,-0.6437,-0.6437,-0.6437,-0.6437,-0.6437,1.7589,1.7589,1.7589,1.7589,1.7582,1.7483,1.7035,1.6362,1.6405,1.6318,1.6105,1.5992,1.5885,1.5885,1.5885,1.5885,1.5885,1.5885,1.5885,1.5885,1.5885,1.5885,1.5885,1.5885,1.5885,1.5885,1.5779,1.4691,1.2635,1.2417,1.1114,0.9482,0.8937,0.8937,0.8937,0.8937,0.8937,0.8937,0.8937,0.8937,0.8937,0.8852,0.8314,0.7864,0.7137,0.6003,0.4654,0.3498,0.2748,0.1823,0.1617,0.1617,0.1617,0.1617,0.1617,0.1617,0.1617,0.1617,0.1617,0.1617,0.1617,0.1617,0.1617,0.1617,0.1617,0.1617,0.1617,0.1415,0.1313,0.0707,0.0404,0.0202,0.0,0.0,0.0,0.0,0.0,0.0,0.0,0.0,0.0,0.0,0.0,0.0,0.0,0.0,0.0,0.0,0.0,0.0,0.0,0.0,-0.0404,-0.2422,-0.505,-0.5962,-0.6364,-0.6448,-0.6437,-0.6437,-0.6437,-0.6437,-0.6437,-0.6437,-0.6437,-0.6437,-0.6437,-0.6437,-0.6437,-0.6437,-0.6437,-0.6437,-0.6437,-0.6437,-0.6437,1.7589,1.7589,1.7589,1.7589,1.7589,1.7384,1.716,1.6829,1.6524,1.6324,1.6217,1.5998,1.5885,1.5885,1.5885,1.5885,1.5885,1.5885,1.5885,1.5885,1.5885,1.5885,1.5885,1.5885,1.5885,1.5891,1.5458,1.4482,1.2743,1.2417,1.1004,0.9482,0.8937,0.8937,0.8937,0.8937,0.8937,0.8937,0.8937,0.8937,0.8937,0.893,0.8889,0.876,0.7855,0.6861,0.5539,0.4138,0.3072,0.2231,0.1818,0.1617,0.1617,0.1617,0.1617,0.1617,0.1617,0.1617,0.1617,0.1617,0.1617,0.1617,0.1617,0.1617,0.1617,0.1617,0.1617,0.1617,0.1414,0.1111,0.0606,0.0202,0.0,0.0,0.0,0.0,0.0,0.0,0.0,0.0,0.0,0.0,0.0,0.0,0.0,0.0,0.0,0.0,0.0,0.0,0.0,0.0,-0.1009,-0.2521,-0.4338,-0.5854,-0.6253,-0.6442,-0.6437,-0.6437,-0.6437,-0.6437,-0.6437,-0.6437,-0.6437,-0.6437,-0.6437,-0.6437,-0.6437,-0.6437,-0.6437,-0.6437,-0.6437,-0.6437,-0.6437,1.7589,1.7589,1.7589,1.7589,1.7589,1.7589,1.7503,1.7411,1.6855,1.653,1.6324,1.5998,1.5885,1.5885,1.5885,1.5885,1.5885,1.5885,1.5885,1.5885,1.5885,1.5885,1.5885,1.5885,1.5885,1.5672,1.4922,1.3727,1.2635,1.2304,1.1114,0.9375,0.8937,0.8937,0.8937,0.8937,0.8937,0.8937,0.8937,0.8937,0.8937,0.8937,0.8923,0.8766,0.8455,0.7785,0.6461,0.4912,0.3598,0.2938,0.2021,0.1617,0.1617,0.1617,0.1617,0.1617,0.1617,0.1617,0.1617,0.1617,0.1617,0.1617,0.1617,0.1617,0.1617,0.1617,0.1617,0.1617,0.1212,0.101,0.0909,0.0404,0.0,0.0,0.0,0.0,0.0,0.0,0.0,0.0,0.0,0.0,0.0,0.0,0.0,0.0,0.0,0.0,0.0,0.0,0.0,0.0,0.0,-0.2017,-0.3932,-0.5448,-0.625,-0.6439,-0.6437,-0.6437,-0.6437,-0.6437,-0.6437,-0.6437,-0.6437,-0.6437,-0.6437,-0.6437,-0.6437,-0.6437,-0.6437,-0.6437,-0.6437,-0.6437,-0.6437,1.8199,1.7589,1.7589,1.7589,1.7589,1.7589,1.7609,1.7523,1.6967,1.653,1.6324,1.5998,1.5885,1.5885,1.5885,1.5885,1.5885,1.5885,1.5885,1.5885,1.5885,1.5885,1.5885,1.5885,1.5885,1.5565,1.4702,1.3614,1.263,1.1651,1.0457,0.9154,0.8937,0.8937,0.8937,0.8937,0.8937,0.8937,0.8937,0.8937,0.8937,0.8937,0.8937,0.8937,0.8869,0.81,0.7,0.5936,0.4477,0.3487,0.2238,0.1617,0.1617,0.1617,0.1617,0.1617,0.1617,0.1617,0.1617,0.1617,0.1617,0.1617,0.1617,0.1617,0.1617,0.1617,0.1617,0.1617,0.1111,0.0909,0.0707,0.0303,0.0,0.0,0.0,0.0,0.0,0.0,0.0,0.0,0.0,0.0,0.0,0.0,0.0,0.0,0.0,0.0,0.0,0.0,0.0,0.0,0.0,-0.121,-0.3325,-0.5244,-0.6147,-0.6442,-0.6437,-0.6437,-0.6437,-0.6437,-0.6437,-0.6437,-0.6437,-0.6437,-0.6437,-0.6437,-0.6437,-0.6437,-0.6437,-0.6437,-0.6437,-0.6437,-0.6437,1.9027,1.7996,1.7687,1.7589,1.7589,1.7589,1.7595,1.7523,1.7067,1.6636,1.6318,1.6099,1.5885,1.5885,1.5885,1.5885,1.5885,1.5885,1.5885,1.5885,1.5885,1.5885,1.5885,1.5885,1.5885,1.5885,1.4266,1.3181,1.22,1.1,0.9805,0.8937,0.8937,0.8937,0.8937,0.8937,0.8937,0.8937,0.8937,0.8937,0.8937,0.8937,0.8937,0.8937,0.8809,0.8426,0.7633,0.7077,0.5901,0.4037,0.2747,0.2019,0.1717,0.1617,0.1617,0.1617,0.1617,0.1617,0.1617,0.1617,0.1617,0.1617,0.1617,0.1617,0.1617,0.1617,0.1617,0.1617,0.1313,0.0707,0.0,0.0,0.0,0.0,0.0,0.0,0.0,0.0,0.0,0.0,0.0,0.0,0.0,0.0,0.0,0.0,0.0,0.0,0.0,0.0,0.0,0.0,0.0,0.0,-0.3024,-0.4738,-0.5741,-0.6445,-0.6439,-0.6437,-0.6437,-0.6437,-0.6437,-0.6437,-0.6437,-0.6437,-0.6437,-0.6437,-0.6437,-0.6437,-0.6437,-0.6437,-0.6437,-0.6437,-0.6437,2.0158,1.902,1.7989,1.7589,1.7589,1.7589,1.7589,1.7595,1.7279,1.6955,1.6524,1.6205,1.5885,1.5885,1.5885,1.5885,1.5885,1.5885,1.5885,1.5885,1.5885,1.5885,1.5885,1.5885,1.5885,1.5559,1.3938,1.2743,1.1878,1.0241,0.9372,0.8937,0.8937,0.8937,0.8937,0.8937,0.8937,0.8937,0.8937,0.8937,0.8937,0.8937,0.8937,0.8937,0.8927,0.8759,0.8608,0.8282,0.7089,0.4882,0.3574,0.2424,0.182,0.1617,0.1617,0.1617,0.1617,0.1617,0.1617,0.1617,0.1617,0.1617,0.1617,0.1617,0.1617,0.1617,0.1617,0.1516,0.1414,0.0909,0.0,0.0,0.0,0.0,0.0,0.0,0.0,0.0,0.0,0.0,0.0,0.0,0.0,0.0,0.0,0.0,0.0,0.0,0.0,0.0,0.0,0.0,0.0,0.0,0.0,-0.4435,-0.5952,-0.6448,-0.6439,-0.6437,-0.6437,-0.6437,-0.6437,-0.6437,-0.6437,-0.6437,-0.6437,-0.6437,-0.6437,-0.6437,-0.6437,-0.6437,-0.6437,-0.6437,-0.6437,2.0672,2.0055,1.8297,1.7589,1.7589,1.7589,1.7589,1.7589,1.7279,1.6855,1.6424,1.6105,1.5885,1.5885,1.5885,1.5885,1.5885,1.5885,1.5885,1.5885,1.5885,1.5885,1.5885,1.5885,1.5885,1.5345,1.3609,1.2417,1.2091,1.0025,0.9154,0.8937,0.8937,0.8937,0.8937,0.8937,0.8937,0.8937,0.8937,0.8937,0.8937,0.8937,0.8937,0.8937,0.8937,0.8916,0.8842,0.8726,0.7289,0.5577,0.4133,0.2961,0.1921,0.1718,0.1617,0.1617,0.1617,0.1617,0.1617,0.1617,0.1617,0.1617,0.1617,0.1617,0.1617,0.1617,0.1414,0.1313,0.1313,0.101,0.0,0.0,0.0,0.0,0.0,0.0,0.0,0.0,0.0,0.0,0.0,0.0,0.0,0.0,0.0,0.0,0.0,0.0,0.0,0.0,0.0,0.0,0.0,0.0,0.0,-0.464,-0.6266,-0.6453,-0.6437,-0.6437,-0.6437,-0.6437,-0.6437,-0.6437,-0.6437,-0.6437,-0.6437,-0.6437,-0.6437,-0.6437,-0.6437,-0.6437,-0.6437,-0.6437,-0.6437,2.0885,2.068,1.8513,1.7589,1.7589,1.7589,1.7589,1.7589,1.7279,1.6861,1.6324,1.5998,1.5885,1.5885,1.5885,1.5885,1.5885,1.5885,1.5885,1.5885,1.5885,1.5885,1.5885,1.5885,1.5885,1.5345,1.3717,1.2417,1.2309,1.0029,0.9158,0.8937,0.8937,0.8937,0.8937,0.8937,0.8937,0.8937,0.8937,0.8937,0.8937,0.8937,0.8937,0.8937,0.8937,0.8933,0.8886,0.8784,0.7883,0.6152,0.4692,0.3386,0.2438,0.1818,0.1617,0.1617,0.1617,0.1617,0.1617,0.1617,0.1617,0.1617,0.1617,0.1617,0.1617,0.1617,0.1415,0.1212,0.1212,0.0,0.0,0.0,0.0,0.0,0.0,0.0,0.0,0.0,0.0,0.0,0.0,0.0,0.0,0.0,0.0,0.0,0.0,0.0,0.0,0.0,0.0,0.0,0.0,0.0,-0.2822,-0.4742,-0.6366,-0.6448,-0.6437,-0.6437,-0.6437,-0.6437,-0.6437,-0.6437,-0.6437,-0.6437,-0.6437,-0.6437,-0.6437,-0.6437,-0.6437,-0.6437,-0.6437,-0.6437,-0.6437,2.0885,2.068,1.8513,1.7589,1.7589,1.7589,1.7589,1.7582,1.7279,1.6855,1.6324,1.5998,1.5885,1.5885,1.5885,1.5885,1.5885,1.5885,1.5885,1.5885,1.5885,1.5885,1.5885,1.5885,1.5885,1.5345,1.3717,1.2417,1.2309,1.0029,0.9047,0.8937,0.8937,0.8937,0.8937,0.8937,0.8937,0.8937,0.8937,0.8937,0.8937,0.8937,0.8937,0.8937,0.8937,0.8937,0.891,0.8944,0.7923,0.6376,0.5346,0.4119,0.2832,0.192,0.1617,0.1617,0.1617,0.1617,0.1617,0.1617,0.1617,0.1617,0.1617,0.1617,0.1617,0.1516,0.1516,0.1313,0.0808,0.0,0.0,0.0,0.0,0.0,0.0,0.0,0.0,0.0,0.0,0.0,0.0,0.0,0.0,0.0,0.0,0.0,0.0,0.0,0.0,0.0,0.0,0.0,0.0,0.0,-0.353,-0.5151,-0.6366,-0.6348,-0.6437,-0.6437,-0.6437,-0.6437,-0.6437,-0.6437,-0.6437,-0.6437,-0.6437,-0.6437,-0.6437,-0.6437,-0.6437,-0.6437,-0.6437,-0.6437,-0.6437,1.9738,1.9642,1.8206,1.7589,1.7589,1.7589,1.7589,1.7483,1.7054,1.6743,1.653,1.6099,1.5885,1.5885,1.5885,1.5885,1.5885,1.5885,1.5885,1.5885,1.5885,1.5885,1.5885,1.5885,1.5885,1.5238,1.3717,1.2417,1.2417,1.0029,0.9047,0.8937,0.8937,0.8937,0.8937,0.8937,0.8937,0.8937,0.8937,0.8937,0.8937,0.8937,0.8937,0.8937,0.8937,0.8937,0.8937,0.8862,0.7967,0.6399,0.5363,0.4357,0.2741,0.1718,0.1617,0.1617,0.1617,0.1617,0.1617,0.1617,0.1617,0.1617,0.1617,0.1617,0.1617,0.1212,0.1313,0.1313,0.0505,0.0,0.0,0.0,0.0,0.0,0.0,0.0,0.0,0.0,0.0,0.0,0.0,0.0,0.0,0.0,0.0,0.0,0.0,0.0,0.0,0.0,0.0,0.0,0.0,0.0,-0.4239,-0.5557,-0.6261,-0.6345,-0.6437,-0.6437,-0.6437,-0.6437,-0.6437,-0.6437,-0.6437,-0.6437,-0.6437,-0.6437,-0.6437,-0.6437,-0.6437,-0.6437,-0.6437,-0.6437,-0.6437,1.9228,1.902,1.8094,1.7589,1.7589,1.7589,1.7589,1.7496,1.6955,1.663,1.653,1.6099,1.5885,1.5885,1.5885,1.5885,1.5885,1.5885,1.5885,1.5885,1.5885,1.5885,1.5885,1.5885,1.5885,1.5232,1.3717,1.2417,1.2309,1.0029,0.9047,0.8937,0.8937,0.8937,0.8937,0.8937,0.8937,0.8937,0.8937,0.8937,0.8937,0.8937,0.8937,0.8937,0.8937,0.8937,0.8937,0.8559,0.8032,0.6333,0.5181,0.4283,0.2757,0.1818,0.1616,0.1617,0.1617,0.1617,0.1617,0.1617,0.1617,0.1617,0.1617,0.1617,0.1516,0.1313,0.101,0.0808,0.0,0.0,0.0,0.0,0.0,0.0,0.0,0.0,0.0,0.0,0.0,0.0,0.0,0.0,0.0,0.0,0.0,0.0,0.0,0.0,0.0,0.0,0.0,0.0,-0.2929,-0.4243,-0.4949,-0.5655,-0.6253,-0.6339,-0.6437,-0.6437,-0.6437,-0.6437,-0.6437,-0.6437,-0.6437,-0.6437,-0.6437,-0.6437,-0.6437,-0.6437,-0.6437,-0.6437,-0.6437,-0.6437,-0.6437,1.9124,1.902,1.7996,1.7589,1.7589,1.7589,1.7602,1.753,1.6955,1.6524,1.6324,1.6099,1.5885,1.5885,1.5885,1.5885,1.5885,1.5885,1.5885,1.5885,1.5885,1.5885,1.5885,1.5885,1.5672,1.5024,1.3722,1.22,1.2087,1.0025,0.8937,0.8937,0.8937,0.8937,0.8937,0.8937,0.8937,0.8937,0.8937,0.8937,0.8937,0.8937,0.8937,0.8937,0.8937,0.8937,0.8937,0.8806,0.7991,0.688,0.5833,0.4571,0.337,0.2222,0.1818,0.1617,0.1617,0.1617,0.1617,0.1617,0.1617,0.1516,0.1415,0.1516,0.1516,0.1415,0.1111,0.0,0.0,0.0,0.0,0.0,0.0,0.0,0.0,0.0,0.0,0.0,0.0,0.0,0.0,0.0,0.0,0.0,0.0,0.0,0.0,0.0,0.0,0.0,0.0,0.0,-0.2624,-0.5363,-0.607,-0.616,-0.625,-0.6437,-0.6437,-0.6437,-0.6437,-0.6437,-0.6437,-0.6437,-0.6437,-0.6437,-0.6437,-0.6437,-0.6437,-0.6437,-0.6437,-0.6437,-0.6437,-0.6437,-0.6437,1.8101,1.7989,1.7681,1.7589,1.7589,1.7589,1.7589,1.749,1.6948,1.663,1.6518,1.6099,1.5885,1.5885,1.5885,1.5885,1.5885,1.5885,1.5885,1.5885,1.5885,1.5885,1.5885,1.5885,1.5458,1.4482,1.3285,1.1978,1.1114,0.9482,0.8937,0.8937,0.8937,0.8937,0.8937,0.8937,0.8937,0.8937,0.8937,0.8937,0.8937,0.8937,0.8937,0.8937,0.8937,0.8937,0.8937,0.8937,0.8224,0.6951,0.5845,0.47,0.334,0.222,0.1617,0.1617,0.1617,0.1617,0.1617,0.1617,0.1516,0.1313,0.0909,0.101,0.1313,0.1414,0.101,0.0,0.0,0.0,0.0,0.0,0.0,0.0,0.0,0.0,0.0,0.0,0.0,0.0,0.0,0.0,0.0,0.0,0.0,0.0,0.0,0.0,0.0,0.0,0.0,0.0,-0.2622,-0.5459,-0.6163,-0.6353,-0.6345,-0.6437,-0.6437,-0.6437,-0.6437,-0.6437,-0.6437,-0.6437,-0.6437,-0.6437,-0.6437,-0.6437,-0.6437,-0.6437,-0.6437,-0.6437,-0.6437,-0.6437,-0.6537,1.7589,1.7589,1.7589,1.7589,1.7589,1.7589,1.747,1.7147,1.6829,1.6624,1.653,1.6099,1.5885,1.5885,1.5885,1.5885,1.5885,1.5885,1.5885,1.5885,1.5885,1.5885,1.5885,1.5779,1.5244,1.4159,1.296,1.1869,1.0676,0.9588,0.8937,0.8937,0.8937,0.8937,0.8937,0.8937,0.8937,0.8937,0.8937,0.8937,0.8937,0.8937,0.8937,0.8937,0.8937,0.8937,0.8937,0.8937,0.8227,0.6942,0.5843,0.4702,0.3351,0.222,0.1617,0.1516,0.1313,0.1415,0.1516,0.1617,0.1414,0.0,0.0,0.0505,0.0606,0.0707,0.0505,0.0,0.0,0.0,0.0,0.0,0.0,0.0,0.0,0.0,0.0,0.0,0.0,0.0,0.0,0.0,0.0,0.0,0.0,0.0,0.0,0.0,0.0,0.0,0.0,0.0,0.0,-0.5454,-0.5952,-0.6448,-0.6442,-0.6437,-0.6437,-0.6437,-0.6437,-0.6437,-0.6437,-0.6437,-0.6437,-0.6437,-0.6437,-0.6437,-0.6437,-0.6437,-0.6437,-0.6539,-0.6439,-0.6437,-0.6537,1.7589,1.7589,1.7589,1.7589,1.7582,1.7589,1.7252,1.6711,1.6624,1.653,1.6318,1.5992,1.5885,1.5885,1.5885,1.5885,1.5885,1.5885,1.5885,1.5885,1.5885,1.5885,1.5885,1.5779,1.5024,1.4051,1.2856,1.1655,1.0457,0.9482,0.8937,0.8937,0.8937,0.8937,0.8937,0.8937,0.8937,0.8937,0.8937,0.8937,0.8937,0.8937,0.8937,0.8937,0.8937,0.8937,0.8937,0.8669,0.8359,0.7093,0.5812,0.4696,0.3166,0.2221,0.1717,0.1516,0.1313,0.1111,0.1212,0.1212,0.0808,0.0,0.0,0.0,0.0,0.0,0.0,0.0,0.0,0.0,0.0,0.0,0.0,0.0,0.0,0.0,0.0,0.0,0.0,0.0,0.0,0.0,0.0,0.0,0.0,0.0,0.0,0.0,0.0,0.0,0.0,0.0,0.0,-0.5655,-0.605,-0.6445,-0.6439,-0.6437,-0.6437,-0.6437,-0.6437,-0.6437,-0.6437,-0.6437,-0.6437,-0.6437,-0.6437,-0.6437,-0.6437,-0.6437,-0.6439,-0.6539,-0.6639,-0.6634,-0.6734,1.7589,1.7589,1.7589,1.7602,1.7516,1.7153,1.6836,1.6662,1.643,1.6324,1.6217,1.5998,1.5885,1.5885,1.5885,1.5885,1.5885,1.5885,1.5885,1.5885,1.5885,1.5885,1.5885,1.5779,1.4696,1.329,1.22,1.1223,0.9809,0.9154,0.8937,0.8937,0.8937,0.8937,0.8937,0.8937,0.8937,0.8937,0.8937,0.8937,0.8937,0.8937,0.8937,0.8937,0.8937,0.8937,0.8937,0.8816,0.8645,0.8014,0.6273,0.4275,0.2128,0.182,0.1617,0.1516,0.1313,0.101,0.0,0.0,0.0,0.0,0.0,0.0,0.0,0.0,0.0,0.0,0.0,0.0,0.0,0.0,0.0,0.0,0.0,0.0,0.0,0.0,0.0,0.0,0.0,0.0,0.0,0.0,0.0,0.0,0.0,0.0,0.0,0.0,0.0,0.0,0.0,-0.5959,-0.625,-0.6442,-0.6439,-0.6437,-0.6437,-0.6437,-0.6437,-0.6437,-0.6437,-0.6437,-0.6437,-0.6437,-0.6437,-0.6437,-0.6437,-0.6439,-0.6639,-0.6742,-0.6927,-0.7018,-0.7024,1.7378,1.7378,1.7503,1.7635,1.743,1.6711,1.6387,1.6324,1.6324,1.6217,1.6111,1.5998,1.5885,1.5885,1.5885,1.5885,1.5885,1.5885,1.5885,1.5885,1.5885,1.5885,1.5885,1.5779,1.4369,1.2852,1.1223,1.0029,0.9047,0.8937,0.8937,0.8937,0.8937,0.8937,0.8937,0.8937,0.8937,0.8937,0.8937,0.8937,0.8937,0.8937,0.8937,0.8937,0.8937,0.8937,0.8937,0.892,0.8754,0.8193,0.6591,0.4231,0.2431,0.1617,0.1617,0.1415,0.1111,0.0,0.0,0.0,0.0,0.0,0.0,0.0,0.0,0.0,0.0,0.0,0.0,0.0,0.0,0.0,0.0,0.0,0.0,0.0,0.0,0.0,0.0,0.0,0.0,0.0,0.0,0.0,0.0,0.0,0.0,0.0,0.0,0.0,0.0,-0.2316,-0.4943,-0.6158,-0.6345,-0.6439,-0.6439,-0.6437,-0.6437,-0.6437,-0.6437,-0.6437,-0.6437,-0.6437,-0.6437,-0.6437,-0.6437,-0.6437,-0.6539,-0.6642,-0.6742,-0.6942,-0.7126,-0.7505,-0.7905,1.7173,1.7186,1.743,1.7457,1.7338,1.6387,1.5937,1.5974,1.6099,1.6105,1.5891,1.5885,1.5885,1.5885,1.5885,1.5885,1.5885,1.5885,1.5885,1.5885,1.5885,1.5885,1.5779,1.5565,1.3938,1.2091,1.0245,0.9592,0.8937,0.8937,0.8937,0.8937,0.8937,0.8937,0.8937,0.8937,0.8937,0.8937,0.8937,0.8937,0.8937,0.8937,0.8937,0.8937,0.8937,0.8937,0.8937,0.8893,0.8767,0.7979,0.6807,0.4373,0.253,0.1617,0.1313,0.1111,0.0606,0.0,0.0,0.0,0.0,0.0,0.0,0.0,0.0,0.0,0.0,0.0,0.0,0.0,0.0,0.0,0.0,0.0,0.0,0.0,0.0,0.0,0.0,0.0,0.0,0.0,0.0,0.0,0.0,0.0,0.0,0.0,0.0,0.0,0.0,-0.312,-0.5546,-0.635,-0.6439,-0.6437,-0.6437,-0.6437,-0.6437,-0.6437,-0.6437,-0.6437,-0.6437,-0.6437,-0.6437,-0.6437,-0.6437,-0.6439,-0.6642,-0.6742,-0.7045,-0.7241,-0.772,-0.8199,-0.8981,1.6842,1.6842,1.6849,1.6874,1.6781,1.6193,1.5861,1.5885,1.5992,1.5891,1.5885,1.5885,1.5885,1.5885,1.5885,1.5885,1.5885,1.5885,1.5885,1.5885,1.5885,1.5885,1.5565,1.4917,1.3068,1.1328,0.9809,0.9158,0.8937,0.8937,0.8937,0.8937,0.8937,0.8937,0.8937,0.8937,0.8937,0.8937,0.8937,0.8937,0.8937,0.8937,0.8937,0.8937,0.8937,0.8937,0.8937,0.8937,0.8754,0.8072,0.6788,0.4457,0.2522,0.1313,0.1111,0.0,0.0,0.0,0.0,0.0,0.0,0.0,0.0,0.0,0.0,0.0,0.0,0.0,0.0,0.0,0.0,0.0,0.0,0.0,0.0,0.0,0.0,0.0,0.0,0.0,0.0,0.0,0.0,0.0,0.0,0.0,0.0,0.0,0.0,0.0,-0.1913,-0.3925,-0.6253,-0.6445,-0.6437,-0.6437,-0.6437,-0.6437,-0.6437,-0.6437,-0.6437,-0.6437,-0.6437,-0.6437,-0.6437,-0.6437,-0.6439,-0.6539,-0.6742,-0.6842,-0.7247,-0.764,-0.8216,-0.8886,-0.9567]}]]